<?xml version="1.0" encoding="utf-8"?>
<gpx xmlns:xsi="http://www.w3.org/2001/XMLSchema-instance" xmlns:xsd="http://www.w3.org/2001/XMLSchema" version="1.1" creator="Shapelink.com" xmlns="http://www.topografix.com/GPX/1/1" xmlns:gpxtpx="http://www.garmin.com/xmlschemas/TrackPointExtension/v1">
  <metadata>
    <name>Ejecutar 5.34 km, 2020-01-09</name>
    <desc></desc>
    <author><name>Peter Littke</name></author> 
    <time>2020-01-09T06:24:50Z</time>
  </metadata>
  <trk>
    <name>Ejecutar 5.34 km, 2020-01-09</name>
    <trkseg>
      <trkpt lat="59.299144" lon="18.081697">
        <ele>43</ele>
        <time>2020-01-09T06:24:50Z</time>
      </trkpt>
      <trkpt lat="59.29915" lon="18.081752">
        <ele>43</ele>
        <time>2020-01-09T06:24:53Z</time>
      </trkpt>
      <trkpt lat="59.299156" lon="18.081801">
        <ele>43</ele>
        <time>2020-01-09T06:24:56Z</time>
      </trkpt>
      <trkpt lat="59.299162" lon="18.081849">
        <ele>43</ele>
        <time>2020-01-09T06:24:58Z</time>
      </trkpt>
      <trkpt lat="59.29917" lon="18.08191">
        <ele>43</ele>
        <time>2020-01-09T06:25:00Z</time>
      </trkpt>
      <trkpt lat="59.299175" lon="18.081946">
        <ele>43</ele>
        <time>2020-01-09T06:25:01Z</time>
      </trkpt>
      <trkpt lat="59.299179" lon="18.081985">
        <ele>43</ele>
        <time>2020-01-09T06:25:02Z</time>
      </trkpt>
      <trkpt lat="59.299179" lon="18.082031">
        <ele>43</ele>
        <time>2020-01-09T06:25:03Z</time>
      </trkpt>
      <trkpt lat="59.299175" lon="18.08208">
        <ele>43</ele>
        <time>2020-01-09T06:25:04Z</time>
      </trkpt>
      <trkpt lat="59.299168" lon="18.082125">
        <ele>43</ele>
        <time>2020-01-09T06:25:05Z</time>
      </trkpt>
      <trkpt lat="59.299155" lon="18.082173">
        <ele>43</ele>
        <time>2020-01-09T06:25:06Z</time>
      </trkpt>
      <trkpt lat="59.299139" lon="18.082215">
        <ele>43</ele>
        <time>2020-01-09T06:25:07Z</time>
      </trkpt>
      <trkpt lat="59.299119" lon="18.082244">
        <ele>43</ele>
        <time>2020-01-09T06:25:08Z</time>
      </trkpt>
      <trkpt lat="59.299098" lon="18.082266">
        <ele>0</ele>
        <time>2020-01-09T06:25:08Z</time>
      </trkpt>
      <trkpt lat="59.299076" lon="18.082286">
        <ele>43</ele>
        <time>2020-01-09T06:25:09Z</time>
      </trkpt>
      <trkpt lat="59.29905" lon="18.082301">
        <ele>43</ele>
        <time>2020-01-09T06:25:11Z</time>
      </trkpt>
      <trkpt lat="59.299021" lon="18.082315">
        <ele>42</ele>
        <time>2020-01-09T06:25:12Z</time>
      </trkpt>
      <trkpt lat="59.298997" lon="18.08234">
        <ele>42</ele>
        <time>2020-01-09T06:25:13Z</time>
      </trkpt>
      <trkpt lat="59.298969" lon="18.082363">
        <ele>42</ele>
        <time>2020-01-09T06:25:14Z</time>
      </trkpt>
      <trkpt lat="59.298942" lon="18.082386">
        <ele>0</ele>
        <time>2020-01-09T06:25:14Z</time>
      </trkpt>
      <trkpt lat="59.298919" lon="18.082405">
        <ele>42</ele>
        <time>2020-01-09T06:25:15Z</time>
      </trkpt>
      <trkpt lat="59.298896" lon="18.082421">
        <ele>42</ele>
        <time>2020-01-09T06:25:17Z</time>
      </trkpt>
      <trkpt lat="59.298872" lon="18.082443">
        <ele>42</ele>
        <time>2020-01-09T06:25:18Z</time>
      </trkpt>
      <trkpt lat="59.298849" lon="18.082463">
        <ele>42</ele>
        <time>2020-01-09T06:25:19Z</time>
      </trkpt>
      <trkpt lat="59.298827" lon="18.082483">
        <ele>42</ele>
        <time>2020-01-09T06:25:20Z</time>
      </trkpt>
      <trkpt lat="59.298807" lon="18.082502">
        <ele>42</ele>
        <time>2020-01-09T06:25:21Z</time>
      </trkpt>
      <trkpt lat="59.298787" lon="18.082513">
        <ele>42</ele>
        <time>2020-01-09T06:25:22Z</time>
      </trkpt>
      <trkpt lat="59.29879" lon="18.082464">
        <ele>41</ele>
        <time>2020-01-09T06:25:25Z</time>
      </trkpt>
      <trkpt lat="59.298818" lon="18.082423">
        <ele>41</ele>
        <time>2020-01-09T06:25:27Z</time>
      </trkpt>
      <trkpt lat="59.298837" lon="18.082395">
        <ele>0</ele>
        <time>2020-01-09T06:25:27Z</time>
      </trkpt>
      <trkpt lat="59.298855" lon="18.082377">
        <ele>41</ele>
        <time>2020-01-09T06:25:28Z</time>
      </trkpt>
      <trkpt lat="59.298885" lon="18.082355">
        <ele>40</ele>
        <time>2020-01-09T06:25:30Z</time>
      </trkpt>
      <trkpt lat="59.298911" lon="18.082337">
        <ele>40</ele>
        <time>2020-01-09T06:25:31Z</time>
      </trkpt>
      <trkpt lat="59.298934" lon="18.082318">
        <ele>41</ele>
        <time>2020-01-09T06:25:32Z</time>
      </trkpt>
      <trkpt lat="59.29896" lon="18.082297">
        <ele>41</ele>
        <time>2020-01-09T06:25:33Z</time>
      </trkpt>
      <trkpt lat="59.298985" lon="18.082281">
        <ele>40</ele>
        <time>2020-01-09T06:25:34Z</time>
      </trkpt>
      <trkpt lat="59.29901" lon="18.082258">
        <ele>40</ele>
        <time>2020-01-09T06:25:35Z</time>
      </trkpt>
      <trkpt lat="59.299035" lon="18.082236">
        <ele>0</ele>
        <time>2020-01-09T06:25:35Z</time>
      </trkpt>
      <trkpt lat="59.29906" lon="18.082219">
        <ele>40</ele>
        <time>2020-01-09T06:25:36Z</time>
      </trkpt>
      <trkpt lat="59.299083" lon="18.082206">
        <ele>40</ele>
        <time>2020-01-09T06:25:38Z</time>
      </trkpt>
      <trkpt lat="59.299104" lon="18.082196">
        <ele>40</ele>
        <time>2020-01-09T06:25:39Z</time>
      </trkpt>
      <trkpt lat="59.299131" lon="18.082197">
        <ele>40</ele>
        <time>2020-01-09T06:25:40Z</time>
      </trkpt>
      <trkpt lat="59.299159" lon="18.082205">
        <ele>40</ele>
        <time>2020-01-09T06:25:41Z</time>
      </trkpt>
      <trkpt lat="59.299188" lon="18.082219">
        <ele>40</ele>
        <time>2020-01-09T06:25:42Z</time>
      </trkpt>
      <trkpt lat="59.299216" lon="18.082233">
        <ele>40</ele>
        <time>2020-01-09T06:25:43Z</time>
      </trkpt>
      <trkpt lat="59.299242" lon="18.082245">
        <ele>40</ele>
        <time>2020-01-09T06:25:44Z</time>
      </trkpt>
      <trkpt lat="59.299269" lon="18.082254">
        <ele>40</ele>
        <time>2020-01-09T06:25:45Z</time>
      </trkpt>
      <trkpt lat="59.299297" lon="18.082268">
        <ele>39</ele>
        <time>2020-01-09T06:25:46Z</time>
      </trkpt>
      <trkpt lat="59.299327" lon="18.082287">
        <ele>0</ele>
        <time>2020-01-09T06:25:46Z</time>
      </trkpt>
      <trkpt lat="59.299386" lon="18.082297">
        <ele>40</ele>
        <time>2020-01-09T06:25:49Z</time>
      </trkpt>
      <trkpt lat="59.299414" lon="18.082285">
        <ele>40</ele>
        <time>2020-01-09T06:25:50Z</time>
      </trkpt>
      <trkpt lat="59.299438" lon="18.082272">
        <ele>40</ele>
        <time>2020-01-09T06:25:51Z</time>
      </trkpt>
      <trkpt lat="59.299466" lon="18.082258">
        <ele>40</ele>
        <time>2020-01-09T06:25:52Z</time>
      </trkpt>
      <trkpt lat="59.299488" lon="18.082233">
        <ele>40</ele>
        <time>2020-01-09T06:25:53Z</time>
      </trkpt>
      <trkpt lat="59.299505" lon="18.082209">
        <ele>40</ele>
        <time>2020-01-09T06:25:54Z</time>
      </trkpt>
      <trkpt lat="59.299522" lon="18.082189">
        <ele>40</ele>
        <time>2020-01-09T06:25:55Z</time>
      </trkpt>
      <trkpt lat="59.299542" lon="18.082176">
        <ele>0</ele>
        <time>2020-01-09T06:25:55Z</time>
      </trkpt>
      <trkpt lat="59.299562" lon="18.08216">
        <ele>40</ele>
        <time>2020-01-09T06:25:56Z</time>
      </trkpt>
      <trkpt lat="59.299582" lon="18.082137">
        <ele>41</ele>
        <time>2020-01-09T06:25:58Z</time>
      </trkpt>
      <trkpt lat="59.299602" lon="18.082117">
        <ele>41</ele>
        <time>2020-01-09T06:25:59Z</time>
      </trkpt>
      <trkpt lat="59.299629" lon="18.082099">
        <ele>41</ele>
        <time>2020-01-09T06:26:00Z</time>
      </trkpt>
      <trkpt lat="59.299648" lon="18.082068">
        <ele>41</ele>
        <time>2020-01-09T06:26:01Z</time>
      </trkpt>
      <trkpt lat="59.299671" lon="18.082067">
        <ele>41</ele>
        <time>2020-01-09T06:26:02Z</time>
      </trkpt>
      <trkpt lat="59.299699" lon="18.082051">
        <ele>41</ele>
        <time>2020-01-09T06:26:03Z</time>
      </trkpt>
      <trkpt lat="59.299723" lon="18.082037">
        <ele>41</ele>
        <time>2020-01-09T06:26:04Z</time>
      </trkpt>
      <trkpt lat="59.299746" lon="18.082014">
        <ele>41</ele>
        <time>2020-01-09T06:26:05Z</time>
      </trkpt>
      <trkpt lat="59.29977" lon="18.081984">
        <ele>0</ele>
        <time>2020-01-09T06:26:05Z</time>
      </trkpt>
      <trkpt lat="59.299796" lon="18.081963">
        <ele>41</ele>
        <time>2020-01-09T06:26:06Z</time>
      </trkpt>
      <trkpt lat="59.299822" lon="18.081938">
        <ele>41</ele>
        <time>2020-01-09T06:26:08Z</time>
      </trkpt>
      <trkpt lat="59.29985" lon="18.081915">
        <ele>41</ele>
        <time>2020-01-09T06:26:09Z</time>
      </trkpt>
      <trkpt lat="59.299872" lon="18.081897">
        <ele>41</ele>
        <time>2020-01-09T06:26:10Z</time>
      </trkpt>
      <trkpt lat="59.2999" lon="18.081888">
        <ele>41</ele>
        <time>2020-01-09T06:26:11Z</time>
      </trkpt>
      <trkpt lat="59.29993" lon="18.08189">
        <ele>41</ele>
        <time>2020-01-09T06:26:12Z</time>
      </trkpt>
      <trkpt lat="59.299955" lon="18.081875">
        <ele>41</ele>
        <time>2020-01-09T06:26:13Z</time>
      </trkpt>
      <trkpt lat="59.299979" lon="18.081859">
        <ele>41</ele>
        <time>2020-01-09T06:26:14Z</time>
      </trkpt>
      <trkpt lat="59.300001" lon="18.081842">
        <ele>0</ele>
        <time>2020-01-09T06:26:14Z</time>
      </trkpt>
      <trkpt lat="59.300023" lon="18.081821">
        <ele>40</ele>
        <time>2020-01-09T06:26:15Z</time>
      </trkpt>
      <trkpt lat="59.300046" lon="18.081797">
        <ele>40</ele>
        <time>2020-01-09T06:26:17Z</time>
      </trkpt>
      <trkpt lat="59.300071" lon="18.081774">
        <ele>40</ele>
        <time>2020-01-09T06:26:18Z</time>
      </trkpt>
      <trkpt lat="59.300096" lon="18.081756">
        <ele>40</ele>
        <time>2020-01-09T06:26:19Z</time>
      </trkpt>
      <trkpt lat="59.300121" lon="18.081739">
        <ele>40</ele>
        <time>2020-01-09T06:26:20Z</time>
      </trkpt>
      <trkpt lat="59.300147" lon="18.081729">
        <ele>40</ele>
        <time>2020-01-09T06:26:21Z</time>
      </trkpt>
      <trkpt lat="59.300175" lon="18.081721">
        <ele>40</ele>
        <time>2020-01-09T06:26:22Z</time>
      </trkpt>
      <trkpt lat="59.300204" lon="18.081713">
        <ele>40</ele>
        <time>2020-01-09T06:26:23Z</time>
      </trkpt>
      <trkpt lat="59.30023" lon="18.081699">
        <ele>40</ele>
        <time>2020-01-09T06:26:24Z</time>
      </trkpt>
      <trkpt lat="59.300256" lon="18.081683">
        <ele>0</ele>
        <time>2020-01-09T06:26:24Z</time>
      </trkpt>
      <trkpt lat="59.300278" lon="18.08166">
        <ele>40</ele>
        <time>2020-01-09T06:26:25Z</time>
      </trkpt>
      <trkpt lat="59.300301" lon="18.081635">
        <ele>40</ele>
        <time>2020-01-09T06:26:27Z</time>
      </trkpt>
      <trkpt lat="59.300324" lon="18.081615">
        <ele>40</ele>
        <time>2020-01-09T06:26:28Z</time>
      </trkpt>
      <trkpt lat="59.300349" lon="18.081599">
        <ele>40</ele>
        <time>2020-01-09T06:26:29Z</time>
      </trkpt>
      <trkpt lat="59.30037" lon="18.081579">
        <ele>40</ele>
        <time>2020-01-09T06:26:30Z</time>
      </trkpt>
      <trkpt lat="59.300395" lon="18.081557">
        <ele>40</ele>
        <time>2020-01-09T06:26:31Z</time>
      </trkpt>
      <trkpt lat="59.300422" lon="18.081543">
        <ele>40</ele>
        <time>2020-01-09T06:26:32Z</time>
      </trkpt>
      <trkpt lat="59.300446" lon="18.081531">
        <ele>40</ele>
        <time>2020-01-09T06:26:33Z</time>
      </trkpt>
      <trkpt lat="59.300471" lon="18.081516">
        <ele>0</ele>
        <time>2020-01-09T06:26:33Z</time>
      </trkpt>
      <trkpt lat="59.300496" lon="18.081495">
        <ele>40</ele>
        <time>2020-01-09T06:26:34Z</time>
      </trkpt>
      <trkpt lat="59.300517" lon="18.081474">
        <ele>40</ele>
        <time>2020-01-09T06:26:36Z</time>
      </trkpt>
      <trkpt lat="59.300541" lon="18.081455">
        <ele>40</ele>
        <time>2020-01-09T06:26:37Z</time>
      </trkpt>
      <trkpt lat="59.300564" lon="18.081435">
        <ele>40</ele>
        <time>2020-01-09T06:26:38Z</time>
      </trkpt>
      <trkpt lat="59.300594" lon="18.081417">
        <ele>41</ele>
        <time>2020-01-09T06:26:39Z</time>
      </trkpt>
      <trkpt lat="59.300626" lon="18.081404">
        <ele>41</ele>
        <time>2020-01-09T06:26:40Z</time>
      </trkpt>
      <trkpt lat="59.300656" lon="18.081389">
        <ele>41</ele>
        <time>2020-01-09T06:26:41Z</time>
      </trkpt>
      <trkpt lat="59.300685" lon="18.081373">
        <ele>41</ele>
        <time>2020-01-09T06:26:42Z</time>
      </trkpt>
      <trkpt lat="59.30071" lon="18.081357">
        <ele>41</ele>
        <time>2020-01-09T06:26:43Z</time>
      </trkpt>
      <trkpt lat="59.300732" lon="18.081334">
        <ele>0</ele>
        <time>2020-01-09T06:26:43Z</time>
      </trkpt>
      <trkpt lat="59.300755" lon="18.081313">
        <ele>41</ele>
        <time>2020-01-09T06:26:44Z</time>
      </trkpt>
      <trkpt lat="59.300777" lon="18.081294">
        <ele>42</ele>
        <time>2020-01-09T06:26:46Z</time>
      </trkpt>
      <trkpt lat="59.300799" lon="18.081273">
        <ele>42</ele>
        <time>2020-01-09T06:26:47Z</time>
      </trkpt>
      <trkpt lat="59.300819" lon="18.081252">
        <ele>42</ele>
        <time>2020-01-09T06:26:48Z</time>
      </trkpt>
      <trkpt lat="59.300842" lon="18.081226">
        <ele>42</ele>
        <time>2020-01-09T06:26:49Z</time>
      </trkpt>
      <trkpt lat="59.300864" lon="18.081197">
        <ele>42</ele>
        <time>2020-01-09T06:26:50Z</time>
      </trkpt>
      <trkpt lat="59.300886" lon="18.081172">
        <ele>42</ele>
        <time>2020-01-09T06:26:51Z</time>
      </trkpt>
      <trkpt lat="59.30091" lon="18.081145">
        <ele>42</ele>
        <time>2020-01-09T06:26:52Z</time>
      </trkpt>
      <trkpt lat="59.30093" lon="18.081122">
        <ele>0</ele>
        <time>2020-01-09T06:26:52Z</time>
      </trkpt>
      <trkpt lat="59.30095" lon="18.081102">
        <ele>42</ele>
        <time>2020-01-09T06:26:53Z</time>
      </trkpt>
      <trkpt lat="59.300973" lon="18.081078">
        <ele>42</ele>
        <time>2020-01-09T06:26:55Z</time>
      </trkpt>
      <trkpt lat="59.300998" lon="18.081052">
        <ele>42</ele>
        <time>2020-01-09T06:26:56Z</time>
      </trkpt>
      <trkpt lat="59.301026" lon="18.081037">
        <ele>42</ele>
        <time>2020-01-09T06:26:57Z</time>
      </trkpt>
      <trkpt lat="59.301047" lon="18.081019">
        <ele>42</ele>
        <time>2020-01-09T06:26:58Z</time>
      </trkpt>
      <trkpt lat="59.301074" lon="18.080997">
        <ele>42</ele>
        <time>2020-01-09T06:26:59Z</time>
      </trkpt>
      <trkpt lat="59.301101" lon="18.080971">
        <ele>42</ele>
        <time>2020-01-09T06:27:00Z</time>
      </trkpt>
      <trkpt lat="59.301124" lon="18.080945">
        <ele>42</ele>
        <time>2020-01-09T06:27:01Z</time>
      </trkpt>
      <trkpt lat="59.301149" lon="18.080921">
        <ele>42</ele>
        <time>2020-01-09T06:27:02Z</time>
      </trkpt>
      <trkpt lat="59.301171" lon="18.080902">
        <ele>0</ele>
        <time>2020-01-09T06:27:02Z</time>
      </trkpt>
      <trkpt lat="59.301196" lon="18.080882">
        <ele>41</ele>
        <time>2020-01-09T06:27:03Z</time>
      </trkpt>
      <trkpt lat="59.301219" lon="18.080863">
        <ele>41</ele>
        <time>2020-01-09T06:27:05Z</time>
      </trkpt>
      <trkpt lat="59.301243" lon="18.080841">
        <ele>41</ele>
        <time>2020-01-09T06:27:06Z</time>
      </trkpt>
      <trkpt lat="59.301267" lon="18.080824">
        <ele>41</ele>
        <time>2020-01-09T06:27:07Z</time>
      </trkpt>
      <trkpt lat="59.301288" lon="18.080805">
        <ele>41</ele>
        <time>2020-01-09T06:27:08Z</time>
      </trkpt>
      <trkpt lat="59.301311" lon="18.080786">
        <ele>41</ele>
        <time>2020-01-09T06:27:09Z</time>
      </trkpt>
      <trkpt lat="59.301336" lon="18.080763">
        <ele>41</ele>
        <time>2020-01-09T06:27:10Z</time>
      </trkpt>
      <trkpt lat="59.301357" lon="18.080741">
        <ele>41</ele>
        <time>2020-01-09T06:27:11Z</time>
      </trkpt>
      <trkpt lat="59.30138" lon="18.080717">
        <ele>0</ele>
        <time>2020-01-09T06:27:11Z</time>
      </trkpt>
      <trkpt lat="59.301404" lon="18.080697">
        <ele>41</ele>
        <time>2020-01-09T06:27:12Z</time>
      </trkpt>
      <trkpt lat="59.301428" lon="18.080679">
        <ele>40</ele>
        <time>2020-01-09T06:27:14Z</time>
      </trkpt>
      <trkpt lat="59.301451" lon="18.080656">
        <ele>40</ele>
        <time>2020-01-09T06:27:15Z</time>
      </trkpt>
      <trkpt lat="59.301471" lon="18.080627">
        <ele>40</ele>
        <time>2020-01-09T06:27:16Z</time>
      </trkpt>
      <trkpt lat="59.301492" lon="18.080609">
        <ele>40</ele>
        <time>2020-01-09T06:27:17Z</time>
      </trkpt>
      <trkpt lat="59.301512" lon="18.08059">
        <ele>40</ele>
        <time>2020-01-09T06:27:18Z</time>
      </trkpt>
      <trkpt lat="59.301532" lon="18.080571">
        <ele>40</ele>
        <time>2020-01-09T06:27:19Z</time>
      </trkpt>
      <trkpt lat="59.301555" lon="18.080556">
        <ele>40</ele>
        <time>2020-01-09T06:27:20Z</time>
      </trkpt>
      <trkpt lat="59.301577" lon="18.080536">
        <ele>40</ele>
        <time>2020-01-09T06:27:21Z</time>
      </trkpt>
      <trkpt lat="59.3016" lon="18.080517">
        <ele>0</ele>
        <time>2020-01-09T06:27:21Z</time>
      </trkpt>
      <trkpt lat="59.301623" lon="18.0805">
        <ele>40</ele>
        <time>2020-01-09T06:27:22Z</time>
      </trkpt>
      <trkpt lat="59.301644" lon="18.080484">
        <ele>39</ele>
        <time>2020-01-09T06:27:24Z</time>
      </trkpt>
      <trkpt lat="59.301668" lon="18.080469">
        <ele>39</ele>
        <time>2020-01-09T06:27:25Z</time>
      </trkpt>
      <trkpt lat="59.301691" lon="18.08045">
        <ele>39</ele>
        <time>2020-01-09T06:27:26Z</time>
      </trkpt>
      <trkpt lat="59.301713" lon="18.080433">
        <ele>39</ele>
        <time>2020-01-09T06:27:27Z</time>
      </trkpt>
      <trkpt lat="59.301736" lon="18.080417">
        <ele>39</ele>
        <time>2020-01-09T06:27:28Z</time>
      </trkpt>
      <trkpt lat="59.301759" lon="18.080403">
        <ele>39</ele>
        <time>2020-01-09T06:27:29Z</time>
      </trkpt>
      <trkpt lat="59.301781" lon="18.080389">
        <ele>39</ele>
        <time>2020-01-09T06:27:30Z</time>
      </trkpt>
      <trkpt lat="59.301804" lon="18.080374">
        <ele>38</ele>
        <time>2020-01-09T06:27:31Z</time>
      </trkpt>
      <trkpt lat="59.301827" lon="18.080353">
        <ele>0</ele>
        <time>2020-01-09T06:27:31Z</time>
      </trkpt>
      <trkpt lat="59.30185" lon="18.080333">
        <ele>38</ele>
        <time>2020-01-09T06:27:32Z</time>
      </trkpt>
      <trkpt lat="59.301872" lon="18.080319">
        <ele>38</ele>
        <time>2020-01-09T06:27:34Z</time>
      </trkpt>
      <trkpt lat="59.301894" lon="18.080303">
        <ele>38</ele>
        <time>2020-01-09T06:27:35Z</time>
      </trkpt>
      <trkpt lat="59.301917" lon="18.080291">
        <ele>38</ele>
        <time>2020-01-09T06:27:36Z</time>
      </trkpt>
      <trkpt lat="59.301943" lon="18.080279">
        <ele>38</ele>
        <time>2020-01-09T06:27:37Z</time>
      </trkpt>
      <trkpt lat="59.301968" lon="18.080271">
        <ele>38</ele>
        <time>2020-01-09T06:27:38Z</time>
      </trkpt>
      <trkpt lat="59.30199" lon="18.080252">
        <ele>38</ele>
        <time>2020-01-09T06:27:39Z</time>
      </trkpt>
      <trkpt lat="59.302015" lon="18.080235">
        <ele>38</ele>
        <time>2020-01-09T06:27:40Z</time>
      </trkpt>
      <trkpt lat="59.302038" lon="18.080224">
        <ele>0</ele>
        <time>2020-01-09T06:27:40Z</time>
      </trkpt>
      <trkpt lat="59.302063" lon="18.080212">
        <ele>38</ele>
        <time>2020-01-09T06:27:41Z</time>
      </trkpt>
      <trkpt lat="59.302088" lon="18.080199">
        <ele>38</ele>
        <time>2020-01-09T06:27:43Z</time>
      </trkpt>
      <trkpt lat="59.302112" lon="18.080185">
        <ele>38</ele>
        <time>2020-01-09T06:27:44Z</time>
      </trkpt>
      <trkpt lat="59.302136" lon="18.080177">
        <ele>38</ele>
        <time>2020-01-09T06:27:45Z</time>
      </trkpt>
      <trkpt lat="59.30216" lon="18.080163">
        <ele>38</ele>
        <time>2020-01-09T06:27:46Z</time>
      </trkpt>
      <trkpt lat="59.302184" lon="18.080147">
        <ele>38</ele>
        <time>2020-01-09T06:27:47Z</time>
      </trkpt>
      <trkpt lat="59.30221" lon="18.080133">
        <ele>38</ele>
        <time>2020-01-09T06:27:48Z</time>
      </trkpt>
      <trkpt lat="59.302233" lon="18.080118">
        <ele>38</ele>
        <time>2020-01-09T06:27:49Z</time>
      </trkpt>
      <trkpt lat="59.302256" lon="18.080101">
        <ele>38</ele>
        <time>2020-01-09T06:27:50Z</time>
      </trkpt>
      <trkpt lat="59.302279" lon="18.080087">
        <ele>38</ele>
        <time>2020-01-09T06:27:51Z</time>
      </trkpt>
      <trkpt lat="59.3023" lon="18.080073">
        <ele>0</ele>
        <time>2020-01-09T06:27:51Z</time>
      </trkpt>
      <trkpt lat="59.302324" lon="18.080056">
        <ele>38</ele>
        <time>2020-01-09T06:27:52Z</time>
      </trkpt>
      <trkpt lat="59.302349" lon="18.080044">
        <ele>38</ele>
        <time>2020-01-09T06:27:54Z</time>
      </trkpt>
      <trkpt lat="59.302372" lon="18.080028">
        <ele>38</ele>
        <time>2020-01-09T06:27:55Z</time>
      </trkpt>
      <trkpt lat="59.302394" lon="18.080013">
        <ele>38</ele>
        <time>2020-01-09T06:27:56Z</time>
      </trkpt>
      <trkpt lat="59.302416" lon="18.079998">
        <ele>38</ele>
        <time>2020-01-09T06:27:57Z</time>
      </trkpt>
      <trkpt lat="59.302439" lon="18.079985">
        <ele>38</ele>
        <time>2020-01-09T06:27:58Z</time>
      </trkpt>
      <trkpt lat="59.302462" lon="18.079972">
        <ele>37</ele>
        <time>2020-01-09T06:27:59Z</time>
      </trkpt>
      <trkpt lat="59.302485" lon="18.079958">
        <ele>0</ele>
        <time>2020-01-09T06:27:59Z</time>
      </trkpt>
      <trkpt lat="59.302508" lon="18.079948">
        <ele>37</ele>
        <time>2020-01-09T06:28:00Z</time>
      </trkpt>
      <trkpt lat="59.30253" lon="18.079936">
        <ele>37</ele>
        <time>2020-01-09T06:28:02Z</time>
      </trkpt>
      <trkpt lat="59.302554" lon="18.079922">
        <ele>37</ele>
        <time>2020-01-09T06:28:03Z</time>
      </trkpt>
      <trkpt lat="59.302578" lon="18.079909">
        <ele>37</ele>
        <time>2020-01-09T06:28:04Z</time>
      </trkpt>
      <trkpt lat="59.302601" lon="18.079896">
        <ele>37</ele>
        <time>2020-01-09T06:28:05Z</time>
      </trkpt>
      <trkpt lat="59.302624" lon="18.079878">
        <ele>37</ele>
        <time>2020-01-09T06:28:06Z</time>
      </trkpt>
      <trkpt lat="59.302648" lon="18.079864">
        <ele>37</ele>
        <time>2020-01-09T06:28:07Z</time>
      </trkpt>
      <trkpt lat="59.302672" lon="18.079852">
        <ele>37</ele>
        <time>2020-01-09T06:28:08Z</time>
      </trkpt>
      <trkpt lat="59.302696" lon="18.079836">
        <ele>37</ele>
        <time>2020-01-09T06:28:09Z</time>
      </trkpt>
      <trkpt lat="59.302719" lon="18.079824">
        <ele>37</ele>
        <time>2020-01-09T06:28:10Z</time>
      </trkpt>
      <trkpt lat="59.302744" lon="18.079811">
        <ele>37</ele>
        <time>2020-01-09T06:28:11Z</time>
      </trkpt>
      <trkpt lat="59.302768" lon="18.0798">
        <ele>37</ele>
        <time>2020-01-09T06:28:12Z</time>
      </trkpt>
      <trkpt lat="59.302791" lon="18.079783">
        <ele>0</ele>
        <time>2020-01-09T06:28:12Z</time>
      </trkpt>
      <trkpt lat="59.302814" lon="18.079771">
        <ele>37</ele>
        <time>2020-01-09T06:28:13Z</time>
      </trkpt>
      <trkpt lat="59.302837" lon="18.07976">
        <ele>37</ele>
        <time>2020-01-09T06:28:15Z</time>
      </trkpt>
      <trkpt lat="59.302861" lon="18.079748">
        <ele>37</ele>
        <time>2020-01-09T06:28:16Z</time>
      </trkpt>
      <trkpt lat="59.302884" lon="18.079734">
        <ele>37</ele>
        <time>2020-01-09T06:28:17Z</time>
      </trkpt>
      <trkpt lat="59.302907" lon="18.079719">
        <ele>37</ele>
        <time>2020-01-09T06:28:18Z</time>
      </trkpt>
      <trkpt lat="59.302931" lon="18.0797">
        <ele>0</ele>
        <time>2020-01-09T06:28:18Z</time>
      </trkpt>
      <trkpt lat="59.302953" lon="18.079683">
        <ele>37</ele>
        <time>2020-01-09T06:28:19Z</time>
      </trkpt>
      <trkpt lat="59.302975" lon="18.079663">
        <ele>37</ele>
        <time>2020-01-09T06:28:21Z</time>
      </trkpt>
      <trkpt lat="59.303" lon="18.079648">
        <ele>37</ele>
        <time>2020-01-09T06:28:22Z</time>
      </trkpt>
      <trkpt lat="59.303021" lon="18.079634">
        <ele>37</ele>
        <time>2020-01-09T06:28:23Z</time>
      </trkpt>
      <trkpt lat="59.303044" lon="18.07962">
        <ele>37</ele>
        <time>2020-01-09T06:28:24Z</time>
      </trkpt>
      <trkpt lat="59.303067" lon="18.079603">
        <ele>37</ele>
        <time>2020-01-09T06:28:25Z</time>
      </trkpt>
      <trkpt lat="59.303093" lon="18.079589">
        <ele>37</ele>
        <time>2020-01-09T06:28:26Z</time>
      </trkpt>
      <trkpt lat="59.303119" lon="18.079576">
        <ele>37</ele>
        <time>2020-01-09T06:28:27Z</time>
      </trkpt>
      <trkpt lat="59.303143" lon="18.07956">
        <ele>37</ele>
        <time>2020-01-09T06:28:28Z</time>
      </trkpt>
      <trkpt lat="59.303168" lon="18.079548">
        <ele>37</ele>
        <time>2020-01-09T06:28:29Z</time>
      </trkpt>
      <trkpt lat="59.303192" lon="18.07954">
        <ele>37</ele>
        <time>2020-01-09T06:28:30Z</time>
      </trkpt>
      <trkpt lat="59.303216" lon="18.079525">
        <ele>36</ele>
        <time>2020-01-09T06:28:31Z</time>
      </trkpt>
      <trkpt lat="59.303239" lon="18.079509">
        <ele>37</ele>
        <time>2020-01-09T06:28:32Z</time>
      </trkpt>
      <trkpt lat="59.303263" lon="18.079498">
        <ele>0</ele>
        <time>2020-01-09T06:28:32Z</time>
      </trkpt>
      <trkpt lat="59.303287" lon="18.079483">
        <ele>37</ele>
        <time>2020-01-09T06:28:33Z</time>
      </trkpt>
      <trkpt lat="59.303309" lon="18.079468">
        <ele>37</ele>
        <time>2020-01-09T06:28:35Z</time>
      </trkpt>
      <trkpt lat="59.303333" lon="18.079454">
        <ele>36</ele>
        <time>2020-01-09T06:28:36Z</time>
      </trkpt>
      <trkpt lat="59.303355" lon="18.079437">
        <ele>36</ele>
        <time>2020-01-09T06:28:37Z</time>
      </trkpt>
      <trkpt lat="59.303379" lon="18.079421">
        <ele>0</ele>
        <time>2020-01-09T06:28:37Z</time>
      </trkpt>
      <trkpt lat="59.303404" lon="18.079409">
        <ele>36</ele>
        <time>2020-01-09T06:28:38Z</time>
      </trkpt>
      <trkpt lat="59.303428" lon="18.079397">
        <ele>36</ele>
        <time>2020-01-09T06:28:40Z</time>
      </trkpt>
      <trkpt lat="59.303451" lon="18.079381">
        <ele>36</ele>
        <time>2020-01-09T06:28:41Z</time>
      </trkpt>
      <trkpt lat="59.303474" lon="18.079365">
        <ele>36</ele>
        <time>2020-01-09T06:28:42Z</time>
      </trkpt>
      <trkpt lat="59.303496" lon="18.079345">
        <ele>36</ele>
        <time>2020-01-09T06:28:43Z</time>
      </trkpt>
      <trkpt lat="59.303519" lon="18.07933">
        <ele>36</ele>
        <time>2020-01-09T06:28:44Z</time>
      </trkpt>
      <trkpt lat="59.303542" lon="18.079317">
        <ele>36</ele>
        <time>2020-01-09T06:28:45Z</time>
      </trkpt>
      <trkpt lat="59.303566" lon="18.079301">
        <ele>36</ele>
        <time>2020-01-09T06:28:46Z</time>
      </trkpt>
      <trkpt lat="59.303591" lon="18.079286">
        <ele>36</ele>
        <time>2020-01-09T06:28:47Z</time>
      </trkpt>
      <trkpt lat="59.303615" lon="18.079271">
        <ele>36</ele>
        <time>2020-01-09T06:28:48Z</time>
      </trkpt>
      <trkpt lat="59.303641" lon="18.079256">
        <ele>36</ele>
        <time>2020-01-09T06:28:49Z</time>
      </trkpt>
      <trkpt lat="59.303666" lon="18.079238">
        <ele>36</ele>
        <time>2020-01-09T06:28:50Z</time>
      </trkpt>
      <trkpt lat="59.303692" lon="18.079222">
        <ele>36</ele>
        <time>2020-01-09T06:28:51Z</time>
      </trkpt>
      <trkpt lat="59.303717" lon="18.079204">
        <ele>0</ele>
        <time>2020-01-09T06:28:51Z</time>
      </trkpt>
      <trkpt lat="59.303744" lon="18.079193">
        <ele>36</ele>
        <time>2020-01-09T06:28:52Z</time>
      </trkpt>
      <trkpt lat="59.30377" lon="18.07918">
        <ele>36</ele>
        <time>2020-01-09T06:28:54Z</time>
      </trkpt>
      <trkpt lat="59.303794" lon="18.079165">
        <ele>36</ele>
        <time>2020-01-09T06:28:55Z</time>
      </trkpt>
      <trkpt lat="59.303819" lon="18.079149">
        <ele>36</ele>
        <time>2020-01-09T06:28:56Z</time>
      </trkpt>
      <trkpt lat="59.303844" lon="18.07913">
        <ele>0</ele>
        <time>2020-01-09T06:28:56Z</time>
      </trkpt>
      <trkpt lat="59.303869" lon="18.079108">
        <ele>36</ele>
        <time>2020-01-09T06:28:57Z</time>
      </trkpt>
      <trkpt lat="59.303895" lon="18.079085">
        <ele>36</ele>
        <time>2020-01-09T06:28:59Z</time>
      </trkpt>
      <trkpt lat="59.303921" lon="18.079062">
        <ele>36</ele>
        <time>2020-01-09T06:29:00Z</time>
      </trkpt>
      <trkpt lat="59.303948" lon="18.079043">
        <ele>36</ele>
        <time>2020-01-09T06:29:01Z</time>
      </trkpt>
      <trkpt lat="59.303974" lon="18.079024">
        <ele>36</ele>
        <time>2020-01-09T06:29:02Z</time>
      </trkpt>
      <trkpt lat="59.304" lon="18.079007">
        <ele>36</ele>
        <time>2020-01-09T06:29:03Z</time>
      </trkpt>
      <trkpt lat="59.304025" lon="18.078991">
        <ele>36</ele>
        <time>2020-01-09T06:29:04Z</time>
      </trkpt>
      <trkpt lat="59.30405" lon="18.078972">
        <ele>36</ele>
        <time>2020-01-09T06:29:05Z</time>
      </trkpt>
      <trkpt lat="59.304075" lon="18.078956">
        <ele>36</ele>
        <time>2020-01-09T06:29:06Z</time>
      </trkpt>
      <trkpt lat="59.3041" lon="18.078938">
        <ele>36</ele>
        <time>2020-01-09T06:29:07Z</time>
      </trkpt>
      <trkpt lat="59.304128" lon="18.078927">
        <ele>36</ele>
        <time>2020-01-09T06:29:08Z</time>
      </trkpt>
      <trkpt lat="59.304154" lon="18.078913">
        <ele>36</ele>
        <time>2020-01-09T06:29:09Z</time>
      </trkpt>
      <trkpt lat="59.304181" lon="18.078904">
        <ele>36</ele>
        <time>2020-01-09T06:29:10Z</time>
      </trkpt>
      <trkpt lat="59.304208" lon="18.078893">
        <ele>0</ele>
        <time>2020-01-09T06:29:10Z</time>
      </trkpt>
      <trkpt lat="59.304235" lon="18.07888">
        <ele>35</ele>
        <time>2020-01-09T06:29:11Z</time>
      </trkpt>
      <trkpt lat="59.304262" lon="18.078865">
        <ele>35</ele>
        <time>2020-01-09T06:29:13Z</time>
      </trkpt>
      <trkpt lat="59.304287" lon="18.078848">
        <ele>35</ele>
        <time>2020-01-09T06:29:14Z</time>
      </trkpt>
      <trkpt lat="59.304314" lon="18.078836">
        <ele>35</ele>
        <time>2020-01-09T06:29:15Z</time>
      </trkpt>
      <trkpt lat="59.304341" lon="18.078821">
        <ele>0</ele>
        <time>2020-01-09T06:29:15Z</time>
      </trkpt>
      <trkpt lat="59.304368" lon="18.078808">
        <ele>34</ele>
        <time>2020-01-09T06:29:16Z</time>
      </trkpt>
      <trkpt lat="59.304396" lon="18.078796">
        <ele>34</ele>
        <time>2020-01-09T06:29:18Z</time>
      </trkpt>
      <trkpt lat="59.304423" lon="18.078788">
        <ele>34</ele>
        <time>2020-01-09T06:29:19Z</time>
      </trkpt>
      <trkpt lat="59.304447" lon="18.078777">
        <ele>34</ele>
        <time>2020-01-09T06:29:20Z</time>
      </trkpt>
      <trkpt lat="59.304473" lon="18.078765">
        <ele>34</ele>
        <time>2020-01-09T06:29:21Z</time>
      </trkpt>
      <trkpt lat="59.304499" lon="18.078753">
        <ele>34</ele>
        <time>2020-01-09T06:29:22Z</time>
      </trkpt>
      <trkpt lat="59.304524" lon="18.078741">
        <ele>33</ele>
        <time>2020-01-09T06:29:23Z</time>
      </trkpt>
      <trkpt lat="59.30455" lon="18.078728">
        <ele>33</ele>
        <time>2020-01-09T06:29:24Z</time>
      </trkpt>
      <trkpt lat="59.304573" lon="18.078712">
        <ele>33</ele>
        <time>2020-01-09T06:29:25Z</time>
      </trkpt>
      <trkpt lat="59.304598" lon="18.078695">
        <ele>33</ele>
        <time>2020-01-09T06:29:26Z</time>
      </trkpt>
      <trkpt lat="59.304624" lon="18.078681">
        <ele>33</ele>
        <time>2020-01-09T06:29:27Z</time>
      </trkpt>
      <trkpt lat="59.304649" lon="18.078669">
        <ele>33</ele>
        <time>2020-01-09T06:29:28Z</time>
      </trkpt>
      <trkpt lat="59.304673" lon="18.078656">
        <ele>33</ele>
        <time>2020-01-09T06:29:29Z</time>
      </trkpt>
      <trkpt lat="59.304696" lon="18.078641">
        <ele>0</ele>
        <time>2020-01-09T06:29:29Z</time>
      </trkpt>
      <trkpt lat="59.30472" lon="18.078628">
        <ele>32</ele>
        <time>2020-01-09T06:29:30Z</time>
      </trkpt>
      <trkpt lat="59.304744" lon="18.078615">
        <ele>32</ele>
        <time>2020-01-09T06:29:32Z</time>
      </trkpt>
      <trkpt lat="59.304769" lon="18.078603">
        <ele>32</ele>
        <time>2020-01-09T06:29:33Z</time>
      </trkpt>
      <trkpt lat="59.304793" lon="18.078588">
        <ele>32</ele>
        <time>2020-01-09T06:29:34Z</time>
      </trkpt>
      <trkpt lat="59.304817" lon="18.07857">
        <ele>0</ele>
        <time>2020-01-09T06:29:34Z</time>
      </trkpt>
      <trkpt lat="59.304841" lon="18.078554">
        <ele>32</ele>
        <time>2020-01-09T06:29:35Z</time>
      </trkpt>
      <trkpt lat="59.304866" lon="18.078538">
        <ele>32</ele>
        <time>2020-01-09T06:29:37Z</time>
      </trkpt>
      <trkpt lat="59.304891" lon="18.078522">
        <ele>31</ele>
        <time>2020-01-09T06:29:38Z</time>
      </trkpt>
      <trkpt lat="59.304916" lon="18.078504">
        <ele>31</ele>
        <time>2020-01-09T06:29:39Z</time>
      </trkpt>
      <trkpt lat="59.304941" lon="18.07849">
        <ele>31</ele>
        <time>2020-01-09T06:29:40Z</time>
      </trkpt>
      <trkpt lat="59.304965" lon="18.078472">
        <ele>31</ele>
        <time>2020-01-09T06:29:41Z</time>
      </trkpt>
      <trkpt lat="59.30499" lon="18.078455">
        <ele>31</ele>
        <time>2020-01-09T06:29:42Z</time>
      </trkpt>
      <trkpt lat="59.305016" lon="18.078438">
        <ele>31</ele>
        <time>2020-01-09T06:29:43Z</time>
      </trkpt>
      <trkpt lat="59.305043" lon="18.078421">
        <ele>31</ele>
        <time>2020-01-09T06:29:44Z</time>
      </trkpt>
      <trkpt lat="59.305068" lon="18.078404">
        <ele>31</ele>
        <time>2020-01-09T06:29:45Z</time>
      </trkpt>
      <trkpt lat="59.305093" lon="18.078392">
        <ele>31</ele>
        <time>2020-01-09T06:29:46Z</time>
      </trkpt>
      <trkpt lat="59.305117" lon="18.078376">
        <ele>30</ele>
        <time>2020-01-09T06:29:47Z</time>
      </trkpt>
      <trkpt lat="59.30514" lon="18.07836">
        <ele>30</ele>
        <time>2020-01-09T06:29:48Z</time>
      </trkpt>
      <trkpt lat="59.305166" lon="18.078345">
        <ele>30</ele>
        <time>2020-01-09T06:29:49Z</time>
      </trkpt>
      <trkpt lat="59.305192" lon="18.078329">
        <ele>30</ele>
        <time>2020-01-09T06:29:50Z</time>
      </trkpt>
      <trkpt lat="59.305218" lon="18.078311">
        <ele>30</ele>
        <time>2020-01-09T06:29:51Z</time>
      </trkpt>
      <trkpt lat="59.305242" lon="18.078296">
        <ele>30</ele>
        <time>2020-01-09T06:29:52Z</time>
      </trkpt>
      <trkpt lat="59.305267" lon="18.07828">
        <ele>30</ele>
        <time>2020-01-09T06:29:53Z</time>
      </trkpt>
      <trkpt lat="59.305292" lon="18.078264">
        <ele>0</ele>
        <time>2020-01-09T06:29:53Z</time>
      </trkpt>
      <trkpt lat="59.305317" lon="18.07825">
        <ele>29</ele>
        <time>2020-01-09T06:29:54Z</time>
      </trkpt>
      <trkpt lat="59.305344" lon="18.078238">
        <ele>29</ele>
        <time>2020-01-09T06:29:56Z</time>
      </trkpt>
      <trkpt lat="59.305367" lon="18.078218">
        <ele>29</ele>
        <time>2020-01-09T06:29:57Z</time>
      </trkpt>
      <trkpt lat="59.30539" lon="18.078196">
        <ele>29</ele>
        <time>2020-01-09T06:29:58Z</time>
      </trkpt>
      <trkpt lat="59.305414" lon="18.078179">
        <ele>29</ele>
        <time>2020-01-09T06:29:59Z</time>
      </trkpt>
      <trkpt lat="59.305439" lon="18.078164">
        <ele>29</ele>
        <time>2020-01-09T06:30:00Z</time>
      </trkpt>
      <trkpt lat="59.305463" lon="18.078149">
        <ele>29</ele>
        <time>2020-01-09T06:30:01Z</time>
      </trkpt>
      <trkpt lat="59.305489" lon="18.078135">
        <ele>29</ele>
        <time>2020-01-09T06:30:02Z</time>
      </trkpt>
      <trkpt lat="59.305514" lon="18.078122">
        <ele>29</ele>
        <time>2020-01-09T06:30:03Z</time>
      </trkpt>
      <trkpt lat="59.305538" lon="18.078106">
        <ele>28</ele>
        <time>2020-01-09T06:30:04Z</time>
      </trkpt>
      <trkpt lat="59.305562" lon="18.078093">
        <ele>28</ele>
        <time>2020-01-09T06:30:05Z</time>
      </trkpt>
      <trkpt lat="59.305586" lon="18.078081">
        <ele>28</ele>
        <time>2020-01-09T06:30:06Z</time>
      </trkpt>
      <trkpt lat="59.305609" lon="18.078066">
        <ele>28</ele>
        <time>2020-01-09T06:30:07Z</time>
      </trkpt>
      <trkpt lat="59.305633" lon="18.078051">
        <ele>0</ele>
        <time>2020-01-09T06:30:07Z</time>
      </trkpt>
      <trkpt lat="59.305655" lon="18.078036">
        <ele>28</ele>
        <time>2020-01-09T06:30:08Z</time>
      </trkpt>
      <trkpt lat="59.305679" lon="18.078019">
        <ele>28</ele>
        <time>2020-01-09T06:30:10Z</time>
      </trkpt>
      <trkpt lat="59.305701" lon="18.078002">
        <ele>28</ele>
        <time>2020-01-09T06:30:11Z</time>
      </trkpt>
      <trkpt lat="59.305725" lon="18.077984">
        <ele>28</ele>
        <time>2020-01-09T06:30:12Z</time>
      </trkpt>
      <trkpt lat="59.30575" lon="18.077968">
        <ele>0</ele>
        <time>2020-01-09T06:30:12Z</time>
      </trkpt>
      <trkpt lat="59.305775" lon="18.077953">
        <ele>28</ele>
        <time>2020-01-09T06:30:13Z</time>
      </trkpt>
      <trkpt lat="59.305799" lon="18.077936">
        <ele>28</ele>
        <time>2020-01-09T06:30:15Z</time>
      </trkpt>
      <trkpt lat="59.305823" lon="18.077917">
        <ele>28</ele>
        <time>2020-01-09T06:30:16Z</time>
      </trkpt>
      <trkpt lat="59.305847" lon="18.0779">
        <ele>28</ele>
        <time>2020-01-09T06:30:17Z</time>
      </trkpt>
      <trkpt lat="59.305872" lon="18.077885">
        <ele>28</ele>
        <time>2020-01-09T06:30:18Z</time>
      </trkpt>
      <trkpt lat="59.305897" lon="18.077869">
        <ele>28</ele>
        <time>2020-01-09T06:30:19Z</time>
      </trkpt>
      <trkpt lat="59.305921" lon="18.077853">
        <ele>28</ele>
        <time>2020-01-09T06:30:20Z</time>
      </trkpt>
      <trkpt lat="59.305942" lon="18.07783">
        <ele>28</ele>
        <time>2020-01-09T06:30:21Z</time>
      </trkpt>
      <trkpt lat="59.305966" lon="18.07781">
        <ele>28</ele>
        <time>2020-01-09T06:30:22Z</time>
      </trkpt>
      <trkpt lat="59.305991" lon="18.077797">
        <ele>28</ele>
        <time>2020-01-09T06:30:23Z</time>
      </trkpt>
      <trkpt lat="59.306014" lon="18.07778">
        <ele>28</ele>
        <time>2020-01-09T06:30:24Z</time>
      </trkpt>
      <trkpt lat="59.306039" lon="18.077759">
        <ele>29</ele>
        <time>2020-01-09T06:30:25Z</time>
      </trkpt>
      <trkpt lat="59.306064" lon="18.077738">
        <ele>29</ele>
        <time>2020-01-09T06:30:26Z</time>
      </trkpt>
      <trkpt lat="59.30609" lon="18.07772">
        <ele>29</ele>
        <time>2020-01-09T06:30:27Z</time>
      </trkpt>
      <trkpt lat="59.306112" lon="18.077701">
        <ele>0</ele>
        <time>2020-01-09T06:30:27Z</time>
      </trkpt>
      <trkpt lat="59.306136" lon="18.077682">
        <ele>29</ele>
        <time>2020-01-09T06:30:28Z</time>
      </trkpt>
      <trkpt lat="59.30616" lon="18.077664">
        <ele>29</ele>
        <time>2020-01-09T06:30:30Z</time>
      </trkpt>
      <trkpt lat="59.306183" lon="18.077647">
        <ele>29</ele>
        <time>2020-01-09T06:30:31Z</time>
      </trkpt>
      <trkpt lat="59.306205" lon="18.07763">
        <ele>0</ele>
        <time>2020-01-09T06:30:31Z</time>
      </trkpt>
      <trkpt lat="59.306228" lon="18.077614">
        <ele>29</ele>
        <time>2020-01-09T06:30:32Z</time>
      </trkpt>
      <trkpt lat="59.306252" lon="18.077599">
        <ele>29</ele>
        <time>2020-01-09T06:30:34Z</time>
      </trkpt>
      <trkpt lat="59.306275" lon="18.077582">
        <ele>0</ele>
        <time>2020-01-09T06:30:34Z</time>
      </trkpt>
      <trkpt lat="59.306297" lon="18.077562">
        <ele>29</ele>
        <time>2020-01-09T06:30:35Z</time>
      </trkpt>
      <trkpt lat="59.306318" lon="18.077539">
        <ele>30</ele>
        <time>2020-01-09T06:30:37Z</time>
      </trkpt>
      <trkpt lat="59.306337" lon="18.077511">
        <ele>30</ele>
        <time>2020-01-09T06:30:38Z</time>
      </trkpt>
      <trkpt lat="59.306361" lon="18.07749">
        <ele>30</ele>
        <time>2020-01-09T06:30:39Z</time>
      </trkpt>
      <trkpt lat="59.306385" lon="18.077468">
        <ele>30</ele>
        <time>2020-01-09T06:30:40Z</time>
      </trkpt>
      <trkpt lat="59.306409" lon="18.077446">
        <ele>30</ele>
        <time>2020-01-09T06:30:41Z</time>
      </trkpt>
      <trkpt lat="59.306432" lon="18.077427">
        <ele>30</ele>
        <time>2020-01-09T06:30:42Z</time>
      </trkpt>
      <trkpt lat="59.306455" lon="18.077409">
        <ele>31</ele>
        <time>2020-01-09T06:30:43Z</time>
      </trkpt>
      <trkpt lat="59.30648" lon="18.077394">
        <ele>31</ele>
        <time>2020-01-09T06:30:44Z</time>
      </trkpt>
      <trkpt lat="59.306502" lon="18.077377">
        <ele>32</ele>
        <time>2020-01-09T06:30:45Z</time>
      </trkpt>
      <trkpt lat="59.306522" lon="18.077352">
        <ele>32</ele>
        <time>2020-01-09T06:30:46Z</time>
      </trkpt>
      <trkpt lat="59.306538" lon="18.077312">
        <ele>32</ele>
        <time>2020-01-09T06:30:47Z</time>
      </trkpt>
      <trkpt lat="59.306562" lon="18.077289">
        <ele>0</ele>
        <time>2020-01-09T06:30:47Z</time>
      </trkpt>
      <trkpt lat="59.306587" lon="18.077275">
        <ele>32</ele>
        <time>2020-01-09T06:30:48Z</time>
      </trkpt>
      <trkpt lat="59.306611" lon="18.077262">
        <ele>32</ele>
        <time>2020-01-09T06:30:50Z</time>
      </trkpt>
      <trkpt lat="59.306636" lon="18.077248">
        <ele>0</ele>
        <time>2020-01-09T06:30:50Z</time>
      </trkpt>
      <trkpt lat="59.306659" lon="18.077231">
        <ele>32</ele>
        <time>2020-01-09T06:30:51Z</time>
      </trkpt>
      <trkpt lat="59.306683" lon="18.077214">
        <ele>32</ele>
        <time>2020-01-09T06:30:53Z</time>
      </trkpt>
      <trkpt lat="59.306706" lon="18.077196">
        <ele>32</ele>
        <time>2020-01-09T06:30:54Z</time>
      </trkpt>
      <trkpt lat="59.30673" lon="18.077182">
        <ele>32</ele>
        <time>2020-01-09T06:30:55Z</time>
      </trkpt>
      <trkpt lat="59.306753" lon="18.077163">
        <ele>32</ele>
        <time>2020-01-09T06:30:56Z</time>
      </trkpt>
      <trkpt lat="59.306777" lon="18.077148">
        <ele>32</ele>
        <time>2020-01-09T06:30:57Z</time>
      </trkpt>
      <trkpt lat="59.306804" lon="18.077136">
        <ele>32</ele>
        <time>2020-01-09T06:30:58Z</time>
      </trkpt>
      <trkpt lat="59.306828" lon="18.077118">
        <ele>32</ele>
        <time>2020-01-09T06:30:59Z</time>
      </trkpt>
      <trkpt lat="59.30685" lon="18.077097">
        <ele>32</ele>
        <time>2020-01-09T06:31:00Z</time>
      </trkpt>
      <trkpt lat="59.306871" lon="18.077077">
        <ele>32</ele>
        <time>2020-01-09T06:31:01Z</time>
      </trkpt>
      <trkpt lat="59.306893" lon="18.077059">
        <ele>32</ele>
        <time>2020-01-09T06:31:02Z</time>
      </trkpt>
      <trkpt lat="59.306913" lon="18.077032">
        <ele>32</ele>
        <time>2020-01-09T06:31:03Z</time>
      </trkpt>
      <trkpt lat="59.306936" lon="18.077015">
        <ele>33</ele>
        <time>2020-01-09T06:31:04Z</time>
      </trkpt>
      <trkpt lat="59.306961" lon="18.076997">
        <ele>33</ele>
        <time>2020-01-09T06:31:05Z</time>
      </trkpt>
      <trkpt lat="59.306985" lon="18.076978">
        <ele>33</ele>
        <time>2020-01-09T06:31:06Z</time>
      </trkpt>
      <trkpt lat="59.307011" lon="18.076963">
        <ele>0</ele>
        <time>2020-01-09T06:31:06Z</time>
      </trkpt>
      <trkpt lat="59.307038" lon="18.076952">
        <ele>33</ele>
        <time>2020-01-09T06:31:07Z</time>
      </trkpt>
      <trkpt lat="59.307063" lon="18.076939">
        <ele>33</ele>
        <time>2020-01-09T06:31:09Z</time>
      </trkpt>
      <trkpt lat="59.307087" lon="18.076924">
        <ele>0</ele>
        <time>2020-01-09T06:31:09Z</time>
      </trkpt>
      <trkpt lat="59.30711" lon="18.076909">
        <ele>33</ele>
        <time>2020-01-09T06:31:10Z</time>
      </trkpt>
      <trkpt lat="59.307132" lon="18.076896">
        <ele>33</ele>
        <time>2020-01-09T06:31:12Z</time>
      </trkpt>
      <trkpt lat="59.307154" lon="18.076886">
        <ele>33</ele>
        <time>2020-01-09T06:31:13Z</time>
      </trkpt>
      <trkpt lat="59.307179" lon="18.076875">
        <ele>33</ele>
        <time>2020-01-09T06:31:14Z</time>
      </trkpt>
      <trkpt lat="59.307205" lon="18.076867">
        <ele>33</ele>
        <time>2020-01-09T06:31:15Z</time>
      </trkpt>
      <trkpt lat="59.307228" lon="18.07686">
        <ele>33</ele>
        <time>2020-01-09T06:31:16Z</time>
      </trkpt>
      <trkpt lat="59.307252" lon="18.07685">
        <ele>34</ele>
        <time>2020-01-09T06:31:17Z</time>
      </trkpt>
      <trkpt lat="59.307269" lon="18.07682">
        <ele>34</ele>
        <time>2020-01-09T06:31:18Z</time>
      </trkpt>
      <trkpt lat="59.307292" lon="18.076806">
        <ele>34</ele>
        <time>2020-01-09T06:31:19Z</time>
      </trkpt>
      <trkpt lat="59.307313" lon="18.076792">
        <ele>34</ele>
        <time>2020-01-09T06:31:20Z</time>
      </trkpt>
      <trkpt lat="59.307335" lon="18.076778">
        <ele>34</ele>
        <time>2020-01-09T06:31:21Z</time>
      </trkpt>
      <trkpt lat="59.307361" lon="18.076769">
        <ele>34</ele>
        <time>2020-01-09T06:31:22Z</time>
      </trkpt>
      <trkpt lat="59.307387" lon="18.076758">
        <ele>34</ele>
        <time>2020-01-09T06:31:23Z</time>
      </trkpt>
      <trkpt lat="59.307413" lon="18.076746">
        <ele>34</ele>
        <time>2020-01-09T06:31:24Z</time>
      </trkpt>
      <trkpt lat="59.307437" lon="18.076725">
        <ele>34</ele>
        <time>2020-01-09T06:31:25Z</time>
      </trkpt>
      <trkpt lat="59.307466" lon="18.076706">
        <ele>34</ele>
        <time>2020-01-09T06:31:26Z</time>
      </trkpt>
      <trkpt lat="59.307494" lon="18.076686">
        <ele>0</ele>
        <time>2020-01-09T06:31:26Z</time>
      </trkpt>
      <trkpt lat="59.307525" lon="18.076672">
        <ele>34</ele>
        <time>2020-01-09T06:31:27Z</time>
      </trkpt>
      <trkpt lat="59.307554" lon="18.076659">
        <ele>0</ele>
        <time>2020-01-09T06:31:28Z</time>
      </trkpt>
      <trkpt lat="59.307582" lon="18.076657">
        <ele>34</ele>
        <time>2020-01-09T06:31:29Z</time>
      </trkpt>
      <trkpt lat="59.307615" lon="18.076676">
        <ele>33</ele>
        <time>2020-01-09T06:31:31Z</time>
      </trkpt>
      <trkpt lat="59.307647" lon="18.076699">
        <ele>34</ele>
        <time>2020-01-09T06:31:32Z</time>
      </trkpt>
      <trkpt lat="59.307674" lon="18.076709">
        <ele>34</ele>
        <time>2020-01-09T06:31:33Z</time>
      </trkpt>
      <trkpt lat="59.307703" lon="18.076712">
        <ele>34</ele>
        <time>2020-01-09T06:31:34Z</time>
      </trkpt>
      <trkpt lat="59.307731" lon="18.076709">
        <ele>34</ele>
        <time>2020-01-09T06:31:35Z</time>
      </trkpt>
      <trkpt lat="59.307761" lon="18.076709">
        <ele>34</ele>
        <time>2020-01-09T06:31:36Z</time>
      </trkpt>
      <trkpt lat="59.30779" lon="18.076705">
        <ele>34</ele>
        <time>2020-01-09T06:31:37Z</time>
      </trkpt>
      <trkpt lat="59.307818" lon="18.076702">
        <ele>34</ele>
        <time>2020-01-09T06:31:38Z</time>
      </trkpt>
      <trkpt lat="59.307847" lon="18.076697">
        <ele>34</ele>
        <time>2020-01-09T06:31:39Z</time>
      </trkpt>
      <trkpt lat="59.307873" lon="18.076694">
        <ele>34</ele>
        <time>2020-01-09T06:31:40Z</time>
      </trkpt>
      <trkpt lat="59.307896" lon="18.076691">
        <ele>35</ele>
        <time>2020-01-09T06:31:41Z</time>
      </trkpt>
      <trkpt lat="59.307916" lon="18.076688">
        <ele>35</ele>
        <time>2020-01-09T06:31:42Z</time>
      </trkpt>
      <trkpt lat="59.307941" lon="18.076637">
        <ele>35</ele>
        <time>2020-01-09T06:31:44Z</time>
      </trkpt>
      <trkpt lat="59.307956" lon="18.076598">
        <ele>35</ele>
        <time>2020-01-09T06:31:45Z</time>
      </trkpt>
      <trkpt lat="59.307975" lon="18.076563">
        <ele>0</ele>
        <time>2020-01-09T06:31:45Z</time>
      </trkpt>
      <trkpt lat="59.307999" lon="18.076541">
        <ele>35</ele>
        <time>2020-01-09T06:31:46Z</time>
      </trkpt>
      <trkpt lat="59.30802" lon="18.076504">
        <ele>0</ele>
        <time>2020-01-09T06:31:47Z</time>
      </trkpt>
      <trkpt lat="59.308042" lon="18.07649">
        <ele>35</ele>
        <time>2020-01-09T06:31:48Z</time>
      </trkpt>
      <trkpt lat="59.308064" lon="18.07648">
        <ele>35</ele>
        <time>2020-01-09T06:31:50Z</time>
      </trkpt>
      <trkpt lat="59.308088" lon="18.076467">
        <ele>34</ele>
        <time>2020-01-09T06:31:51Z</time>
      </trkpt>
      <trkpt lat="59.308114" lon="18.076455">
        <ele>34</ele>
        <time>2020-01-09T06:31:52Z</time>
      </trkpt>
      <trkpt lat="59.308141" lon="18.076444">
        <ele>34</ele>
        <time>2020-01-09T06:31:53Z</time>
      </trkpt>
      <trkpt lat="59.30817" lon="18.07643">
        <ele>35</ele>
        <time>2020-01-09T06:31:54Z</time>
      </trkpt>
      <trkpt lat="59.308191" lon="18.0764">
        <ele>35</ele>
        <time>2020-01-09T06:31:55Z</time>
      </trkpt>
      <trkpt lat="59.308215" lon="18.076374">
        <ele>35</ele>
        <time>2020-01-09T06:31:56Z</time>
      </trkpt>
      <trkpt lat="59.308239" lon="18.076348">
        <ele>36</ele>
        <time>2020-01-09T06:31:57Z</time>
      </trkpt>
      <trkpt lat="59.308264" lon="18.076329">
        <ele>36</ele>
        <time>2020-01-09T06:31:58Z</time>
      </trkpt>
      <trkpt lat="59.308285" lon="18.076295">
        <ele>36</ele>
        <time>2020-01-09T06:31:59Z</time>
      </trkpt>
      <trkpt lat="59.308309" lon="18.076274">
        <ele>36</ele>
        <time>2020-01-09T06:32:00Z</time>
      </trkpt>
      <trkpt lat="59.308332" lon="18.076248">
        <ele>36</ele>
        <time>2020-01-09T06:32:01Z</time>
      </trkpt>
      <trkpt lat="59.308358" lon="18.076231">
        <ele>36</ele>
        <time>2020-01-09T06:32:02Z</time>
      </trkpt>
      <trkpt lat="59.308381" lon="18.07621">
        <ele>36</ele>
        <time>2020-01-09T06:32:03Z</time>
      </trkpt>
      <trkpt lat="59.308405" lon="18.076193">
        <ele>36</ele>
        <time>2020-01-09T06:32:04Z</time>
      </trkpt>
      <trkpt lat="59.30843" lon="18.07618">
        <ele>36</ele>
        <time>2020-01-09T06:32:05Z</time>
      </trkpt>
      <trkpt lat="59.308456" lon="18.076165">
        <ele>36</ele>
        <time>2020-01-09T06:32:06Z</time>
      </trkpt>
      <trkpt lat="59.308481" lon="18.076146">
        <ele>0</ele>
        <time>2020-01-09T06:32:06Z</time>
      </trkpt>
      <trkpt lat="59.308506" lon="18.076129">
        <ele>36</ele>
        <time>2020-01-09T06:32:07Z</time>
      </trkpt>
      <trkpt lat="59.308533" lon="18.076117">
        <ele>37</ele>
        <time>2020-01-09T06:32:09Z</time>
      </trkpt>
      <trkpt lat="59.308558" lon="18.0761">
        <ele>37</ele>
        <time>2020-01-09T06:32:10Z</time>
      </trkpt>
      <trkpt lat="59.308584" lon="18.07608">
        <ele>37</ele>
        <time>2020-01-09T06:32:11Z</time>
      </trkpt>
      <trkpt lat="59.30861" lon="18.076061">
        <ele>37</ele>
        <time>2020-01-09T06:32:12Z</time>
      </trkpt>
      <trkpt lat="59.308633" lon="18.076031">
        <ele>37</ele>
        <time>2020-01-09T06:32:13Z</time>
      </trkpt>
      <trkpt lat="59.308656" lon="18.076013">
        <ele>38</ele>
        <time>2020-01-09T06:32:14Z</time>
      </trkpt>
      <trkpt lat="59.308678" lon="18.075993">
        <ele>38</ele>
        <time>2020-01-09T06:32:15Z</time>
      </trkpt>
      <trkpt lat="59.308699" lon="18.07597">
        <ele>38</ele>
        <time>2020-01-09T06:32:16Z</time>
      </trkpt>
      <trkpt lat="59.308724" lon="18.075959">
        <ele>38</ele>
        <time>2020-01-09T06:32:17Z</time>
      </trkpt>
      <trkpt lat="59.308746" lon="18.075943">
        <ele>38</ele>
        <time>2020-01-09T06:32:18Z</time>
      </trkpt>
      <trkpt lat="59.308769" lon="18.075928">
        <ele>38</ele>
        <time>2020-01-09T06:32:19Z</time>
      </trkpt>
      <trkpt lat="59.308788" lon="18.075903">
        <ele>38</ele>
        <time>2020-01-09T06:32:20Z</time>
      </trkpt>
      <trkpt lat="59.308808" lon="18.075881">
        <ele>39</ele>
        <time>2020-01-09T06:32:21Z</time>
      </trkpt>
      <trkpt lat="59.308831" lon="18.075859">
        <ele>39</ele>
        <time>2020-01-09T06:32:22Z</time>
      </trkpt>
      <trkpt lat="59.308854" lon="18.075842">
        <ele>39</ele>
        <time>2020-01-09T06:32:23Z</time>
      </trkpt>
      <trkpt lat="59.308875" lon="18.075819">
        <ele>39</ele>
        <time>2020-01-09T06:32:24Z</time>
      </trkpt>
      <trkpt lat="59.3089" lon="18.075797">
        <ele>0</ele>
        <time>2020-01-09T06:32:24Z</time>
      </trkpt>
      <trkpt lat="59.308922" lon="18.075774">
        <ele>39</ele>
        <time>2020-01-09T06:32:25Z</time>
      </trkpt>
      <trkpt lat="59.308944" lon="18.075759">
        <ele>39</ele>
        <time>2020-01-09T06:32:26Z</time>
      </trkpt>
      <trkpt lat="59.308967" lon="18.075746">
        <ele>40</ele>
        <time>2020-01-09T06:32:28Z</time>
      </trkpt>
      <trkpt lat="59.308989" lon="18.075726">
        <ele>40</ele>
        <time>2020-01-09T06:32:29Z</time>
      </trkpt>
      <trkpt lat="59.309013" lon="18.07571">
        <ele>40</ele>
        <time>2020-01-09T06:32:30Z</time>
      </trkpt>
      <trkpt lat="59.309033" lon="18.075687">
        <ele>40</ele>
        <time>2020-01-09T06:32:31Z</time>
      </trkpt>
      <trkpt lat="59.309058" lon="18.075676">
        <ele>40</ele>
        <time>2020-01-09T06:32:32Z</time>
      </trkpt>
      <trkpt lat="59.309083" lon="18.075658">
        <ele>40</ele>
        <time>2020-01-09T06:32:33Z</time>
      </trkpt>
      <trkpt lat="59.309109" lon="18.075647">
        <ele>40</ele>
        <time>2020-01-09T06:32:34Z</time>
      </trkpt>
      <trkpt lat="59.309132" lon="18.075642">
        <ele>40</ele>
        <time>2020-01-09T06:32:35Z</time>
      </trkpt>
      <trkpt lat="59.309155" lon="18.075631">
        <ele>40</ele>
        <time>2020-01-09T06:32:36Z</time>
      </trkpt>
      <trkpt lat="59.30918" lon="18.075617">
        <ele>41</ele>
        <time>2020-01-09T06:32:37Z</time>
      </trkpt>
      <trkpt lat="59.309204" lon="18.075601">
        <ele>41</ele>
        <time>2020-01-09T06:32:38Z</time>
      </trkpt>
      <trkpt lat="59.309233" lon="18.075589">
        <ele>41</ele>
        <time>2020-01-09T06:32:39Z</time>
      </trkpt>
      <trkpt lat="59.309258" lon="18.075575">
        <ele>41</ele>
        <time>2020-01-09T06:32:40Z</time>
      </trkpt>
      <trkpt lat="59.309285" lon="18.075558">
        <ele>42</ele>
        <time>2020-01-09T06:32:41Z</time>
      </trkpt>
      <trkpt lat="59.30931" lon="18.075543">
        <ele>42</ele>
        <time>2020-01-09T06:32:42Z</time>
      </trkpt>
      <trkpt lat="59.309333" lon="18.07553">
        <ele>0</ele>
        <time>2020-01-09T06:32:42Z</time>
      </trkpt>
      <trkpt lat="59.30936" lon="18.075529">
        <ele>42</ele>
        <time>2020-01-09T06:32:43Z</time>
      </trkpt>
      <trkpt lat="59.309382" lon="18.075522">
        <ele>0</ele>
        <time>2020-01-09T06:32:44Z</time>
      </trkpt>
      <trkpt lat="59.309406" lon="18.075517">
        <ele>42</ele>
        <time>2020-01-09T06:32:45Z</time>
      </trkpt>
      <trkpt lat="59.309433" lon="18.075508">
        <ele>43</ele>
        <time>2020-01-09T06:32:47Z</time>
      </trkpt>
      <trkpt lat="59.30946" lon="18.0755">
        <ele>43</ele>
        <time>2020-01-09T06:32:48Z</time>
      </trkpt>
      <trkpt lat="59.309486" lon="18.075485">
        <ele>43</ele>
        <time>2020-01-09T06:32:49Z</time>
      </trkpt>
      <trkpt lat="59.309512" lon="18.07547">
        <ele>43</ele>
        <time>2020-01-09T06:32:50Z</time>
      </trkpt>
      <trkpt lat="59.309538" lon="18.075454">
        <ele>43</ele>
        <time>2020-01-09T06:32:51Z</time>
      </trkpt>
      <trkpt lat="59.309561" lon="18.075437">
        <ele>43</ele>
        <time>2020-01-09T06:32:52Z</time>
      </trkpt>
      <trkpt lat="59.309583" lon="18.075424">
        <ele>43</ele>
        <time>2020-01-09T06:32:53Z</time>
      </trkpt>
      <trkpt lat="59.309605" lon="18.075408">
        <ele>43</ele>
        <time>2020-01-09T06:32:54Z</time>
      </trkpt>
      <trkpt lat="59.30963" lon="18.075395">
        <ele>43</ele>
        <time>2020-01-09T06:32:55Z</time>
      </trkpt>
      <trkpt lat="59.309657" lon="18.075384">
        <ele>43</ele>
        <time>2020-01-09T06:32:56Z</time>
      </trkpt>
      <trkpt lat="59.309684" lon="18.075374">
        <ele>43</ele>
        <time>2020-01-09T06:32:57Z</time>
      </trkpt>
      <trkpt lat="59.309709" lon="18.075362">
        <ele>43</ele>
        <time>2020-01-09T06:32:58Z</time>
      </trkpt>
      <trkpt lat="59.309734" lon="18.075349">
        <ele>43</ele>
        <time>2020-01-09T06:32:59Z</time>
      </trkpt>
      <trkpt lat="59.30976" lon="18.075337">
        <ele>43</ele>
        <time>2020-01-09T06:33:00Z</time>
      </trkpt>
      <trkpt lat="59.309785" lon="18.075325">
        <ele>43</ele>
        <time>2020-01-09T06:33:01Z</time>
      </trkpt>
      <trkpt lat="59.309808" lon="18.075307">
        <ele>42</ele>
        <time>2020-01-09T06:33:02Z</time>
      </trkpt>
      <trkpt lat="59.309833" lon="18.075288">
        <ele>0</ele>
        <time>2020-01-09T06:33:02Z</time>
      </trkpt>
      <trkpt lat="59.309858" lon="18.07527">
        <ele>42</ele>
        <time>2020-01-09T06:33:03Z</time>
      </trkpt>
      <trkpt lat="59.309882" lon="18.07526">
        <ele>42</ele>
        <time>2020-01-09T06:33:04Z</time>
      </trkpt>
      <trkpt lat="59.309909" lon="18.075256">
        <ele>42</ele>
        <time>2020-01-09T06:33:06Z</time>
      </trkpt>
      <trkpt lat="59.309934" lon="18.075246">
        <ele>42</ele>
        <time>2020-01-09T06:33:07Z</time>
      </trkpt>
      <trkpt lat="59.309959" lon="18.075236">
        <ele>42</ele>
        <time>2020-01-09T06:33:08Z</time>
      </trkpt>
      <trkpt lat="59.309985" lon="18.075234">
        <ele>42</ele>
        <time>2020-01-09T06:33:09Z</time>
      </trkpt>
      <trkpt lat="59.31001" lon="18.075218">
        <ele>42</ele>
        <time>2020-01-09T06:33:10Z</time>
      </trkpt>
      <trkpt lat="59.310035" lon="18.075204">
        <ele>42</ele>
        <time>2020-01-09T06:33:11Z</time>
      </trkpt>
      <trkpt lat="59.310059" lon="18.075188">
        <ele>42</ele>
        <time>2020-01-09T06:33:12Z</time>
      </trkpt>
      <trkpt lat="59.310083" lon="18.075172">
        <ele>42</ele>
        <time>2020-01-09T06:33:13Z</time>
      </trkpt>
      <trkpt lat="59.310107" lon="18.075154">
        <ele>42</ele>
        <time>2020-01-09T06:33:14Z</time>
      </trkpt>
      <trkpt lat="59.31013" lon="18.075142">
        <ele>42</ele>
        <time>2020-01-09T06:33:15Z</time>
      </trkpt>
      <trkpt lat="59.310153" lon="18.075128">
        <ele>42</ele>
        <time>2020-01-09T06:33:16Z</time>
      </trkpt>
      <trkpt lat="59.310175" lon="18.075116">
        <ele>42</ele>
        <time>2020-01-09T06:33:17Z</time>
      </trkpt>
      <trkpt lat="59.310198" lon="18.0751">
        <ele>42</ele>
        <time>2020-01-09T06:33:18Z</time>
      </trkpt>
      <trkpt lat="59.310222" lon="18.075084">
        <ele>42</ele>
        <time>2020-01-09T06:33:19Z</time>
      </trkpt>
      <trkpt lat="59.310244" lon="18.075078">
        <ele>42</ele>
        <time>2020-01-09T06:33:20Z</time>
      </trkpt>
      <trkpt lat="59.310267" lon="18.075072">
        <ele>42</ele>
        <time>2020-01-09T06:33:21Z</time>
      </trkpt>
      <trkpt lat="59.310291" lon="18.075064">
        <ele>42</ele>
        <time>2020-01-09T06:33:22Z</time>
      </trkpt>
      <trkpt lat="59.310311" lon="18.075044">
        <ele>0</ele>
        <time>2020-01-09T06:33:22Z</time>
      </trkpt>
      <trkpt lat="59.310335" lon="18.075024">
        <ele>42</ele>
        <time>2020-01-09T06:33:23Z</time>
      </trkpt>
      <trkpt lat="59.310357" lon="18.075003">
        <ele>42</ele>
        <time>2020-01-09T06:33:24Z</time>
      </trkpt>
      <trkpt lat="59.310381" lon="18.074984">
        <ele>42</ele>
        <time>2020-01-09T06:33:26Z</time>
      </trkpt>
      <trkpt lat="59.310407" lon="18.07497">
        <ele>42</ele>
        <time>2020-01-09T06:33:27Z</time>
      </trkpt>
      <trkpt lat="59.310433" lon="18.074965">
        <ele>42</ele>
        <time>2020-01-09T06:33:28Z</time>
      </trkpt>
      <trkpt lat="59.310462" lon="18.074964">
        <ele>42</ele>
        <time>2020-01-09T06:33:29Z</time>
      </trkpt>
      <trkpt lat="59.310491" lon="18.074968">
        <ele>42</ele>
        <time>2020-01-09T06:33:30Z</time>
      </trkpt>
      <trkpt lat="59.310519" lon="18.074965">
        <ele>42</ele>
        <time>2020-01-09T06:33:31Z</time>
      </trkpt>
      <trkpt lat="59.310547" lon="18.074964">
        <ele>42</ele>
        <time>2020-01-09T06:33:32Z</time>
      </trkpt>
      <trkpt lat="59.310572" lon="18.07496">
        <ele>42</ele>
        <time>2020-01-09T06:33:33Z</time>
      </trkpt>
      <trkpt lat="59.310597" lon="18.074952">
        <ele>42</ele>
        <time>2020-01-09T06:33:34Z</time>
      </trkpt>
      <trkpt lat="59.310622" lon="18.074944">
        <ele>42</ele>
        <time>2020-01-09T06:33:35Z</time>
      </trkpt>
      <trkpt lat="59.310646" lon="18.074938">
        <ele>42</ele>
        <time>2020-01-09T06:33:36Z</time>
      </trkpt>
      <trkpt lat="59.31067" lon="18.074932">
        <ele>42</ele>
        <time>2020-01-09T06:33:37Z</time>
      </trkpt>
      <trkpt lat="59.310693" lon="18.07492">
        <ele>42</ele>
        <time>2020-01-09T06:33:38Z</time>
      </trkpt>
      <trkpt lat="59.310715" lon="18.074908">
        <ele>41</ele>
        <time>2020-01-09T06:33:39Z</time>
      </trkpt>
      <trkpt lat="59.310737" lon="18.074892">
        <ele>42</ele>
        <time>2020-01-09T06:33:40Z</time>
      </trkpt>
      <trkpt lat="59.310759" lon="18.074872">
        <ele>42</ele>
        <time>2020-01-09T06:33:41Z</time>
      </trkpt>
      <trkpt lat="59.310783" lon="18.07485">
        <ele>0</ele>
        <time>2020-01-09T06:33:41Z</time>
      </trkpt>
      <trkpt lat="59.310807" lon="18.07483">
        <ele>41</ele>
        <time>2020-01-09T06:33:42Z</time>
      </trkpt>
      <trkpt lat="59.310833" lon="18.074811">
        <ele>42</ele>
        <time>2020-01-09T06:33:43Z</time>
      </trkpt>
      <trkpt lat="59.310856" lon="18.074796">
        <ele>41</ele>
        <time>2020-01-09T06:33:45Z</time>
      </trkpt>
      <trkpt lat="59.310881" lon="18.074782">
        <ele>41</ele>
        <time>2020-01-09T06:33:46Z</time>
      </trkpt>
      <trkpt lat="59.310905" lon="18.074772">
        <ele>41</ele>
        <time>2020-01-09T06:33:47Z</time>
      </trkpt>
      <trkpt lat="59.310926" lon="18.07476">
        <ele>41</ele>
        <time>2020-01-09T06:33:48Z</time>
      </trkpt>
      <trkpt lat="59.310949" lon="18.074746">
        <ele>41</ele>
        <time>2020-01-09T06:33:49Z</time>
      </trkpt>
      <trkpt lat="59.310971" lon="18.074732">
        <ele>41</ele>
        <time>2020-01-09T06:33:50Z</time>
      </trkpt>
      <trkpt lat="59.310993" lon="18.074716">
        <ele>41</ele>
        <time>2020-01-09T06:33:51Z</time>
      </trkpt>
      <trkpt lat="59.311015" lon="18.074702">
        <ele>41</ele>
        <time>2020-01-09T06:33:52Z</time>
      </trkpt>
      <trkpt lat="59.311035" lon="18.074685">
        <ele>41</ele>
        <time>2020-01-09T06:33:53Z</time>
      </trkpt>
      <trkpt lat="59.311059" lon="18.074674">
        <ele>41</ele>
        <time>2020-01-09T06:33:54Z</time>
      </trkpt>
      <trkpt lat="59.311081" lon="18.07466">
        <ele>41</ele>
        <time>2020-01-09T06:33:55Z</time>
      </trkpt>
      <trkpt lat="59.311099" lon="18.074638">
        <ele>42</ele>
        <time>2020-01-09T06:33:56Z</time>
      </trkpt>
      <trkpt lat="59.311119" lon="18.074619">
        <ele>42</ele>
        <time>2020-01-09T06:33:57Z</time>
      </trkpt>
      <trkpt lat="59.311138" lon="18.0746">
        <ele>42</ele>
        <time>2020-01-09T06:33:58Z</time>
      </trkpt>
      <trkpt lat="59.311159" lon="18.074588">
        <ele>42</ele>
        <time>2020-01-09T06:33:59Z</time>
      </trkpt>
      <trkpt lat="59.31118" lon="18.074571">
        <ele>42</ele>
        <time>2020-01-09T06:34:00Z</time>
      </trkpt>
      <trkpt lat="59.311205" lon="18.074556">
        <ele>0</ele>
        <time>2020-01-09T06:34:00Z</time>
      </trkpt>
      <trkpt lat="59.311227" lon="18.074539">
        <ele>42</ele>
        <time>2020-01-09T06:34:01Z</time>
      </trkpt>
      <trkpt lat="59.311246" lon="18.074532">
        <ele>42</ele>
        <time>2020-01-09T06:34:03Z</time>
      </trkpt>
      <trkpt lat="59.311265" lon="18.074524">
        <ele>42</ele>
        <time>2020-01-09T06:34:04Z</time>
      </trkpt>
      <trkpt lat="59.311285" lon="18.074517">
        <ele>0</ele>
        <time>2020-01-09T06:34:04Z</time>
      </trkpt>
      <trkpt lat="59.311308" lon="18.074513">
        <ele>42</ele>
        <time>2020-01-09T06:34:05Z</time>
      </trkpt>
      <trkpt lat="59.31133" lon="18.0745">
        <ele>42</ele>
        <time>2020-01-09T06:34:07Z</time>
      </trkpt>
      <trkpt lat="59.311354" lon="18.074497">
        <ele>42</ele>
        <time>2020-01-09T06:34:08Z</time>
      </trkpt>
      <trkpt lat="59.31138" lon="18.074497">
        <ele>42</ele>
        <time>2020-01-09T06:34:09Z</time>
      </trkpt>
      <trkpt lat="59.311405" lon="18.074497">
        <ele>42</ele>
        <time>2020-01-09T06:34:10Z</time>
      </trkpt>
      <trkpt lat="59.311426" lon="18.074483">
        <ele>42</ele>
        <time>2020-01-09T06:34:11Z</time>
      </trkpt>
      <trkpt lat="59.311449" lon="18.074477">
        <ele>43</ele>
        <time>2020-01-09T06:34:12Z</time>
      </trkpt>
      <trkpt lat="59.311475" lon="18.074477">
        <ele>43</ele>
        <time>2020-01-09T06:34:13Z</time>
      </trkpt>
      <trkpt lat="59.311501" lon="18.074479">
        <ele>43</ele>
        <time>2020-01-09T06:34:14Z</time>
      </trkpt>
      <trkpt lat="59.311527" lon="18.07448">
        <ele>43</ele>
        <time>2020-01-09T06:34:15Z</time>
      </trkpt>
      <trkpt lat="59.31155" lon="18.07447">
        <ele>45</ele>
        <time>2020-01-09T06:34:16Z</time>
      </trkpt>
      <trkpt lat="59.311572" lon="18.074457">
        <ele>45</ele>
        <time>2020-01-09T06:34:17Z</time>
      </trkpt>
      <trkpt lat="59.311593" lon="18.074452">
        <ele>45</ele>
        <time>2020-01-09T06:34:18Z</time>
      </trkpt>
      <trkpt lat="59.311614" lon="18.074443">
        <ele>45</ele>
        <time>2020-01-09T06:34:19Z</time>
      </trkpt>
      <trkpt lat="59.311637" lon="18.074436">
        <ele>0</ele>
        <time>2020-01-09T06:34:19Z</time>
      </trkpt>
      <trkpt lat="59.311657" lon="18.074419">
        <ele>46</ele>
        <time>2020-01-09T06:34:20Z</time>
      </trkpt>
      <trkpt lat="59.311683" lon="18.074413">
        <ele>46</ele>
        <time>2020-01-09T06:34:22Z</time>
      </trkpt>
      <trkpt lat="59.311707" lon="18.074407">
        <ele>46</ele>
        <time>2020-01-09T06:34:23Z</time>
      </trkpt>
      <trkpt lat="59.31173" lon="18.074407">
        <ele>46</ele>
        <time>2020-01-09T06:34:24Z</time>
      </trkpt>
      <trkpt lat="59.31175" lon="18.074394">
        <ele>46</ele>
        <time>2020-01-09T06:34:25Z</time>
      </trkpt>
      <trkpt lat="59.311778" lon="18.074375">
        <ele>0</ele>
        <time>2020-01-09T06:34:25Z</time>
      </trkpt>
      <trkpt lat="59.311805" lon="18.074359">
        <ele>46</ele>
        <time>2020-01-09T06:34:26Z</time>
      </trkpt>
      <trkpt lat="59.311831" lon="18.074348">
        <ele>46</ele>
        <time>2020-01-09T06:34:28Z</time>
      </trkpt>
      <trkpt lat="59.31186" lon="18.074335">
        <ele>46</ele>
        <time>2020-01-09T06:34:29Z</time>
      </trkpt>
      <trkpt lat="59.311888" lon="18.074322">
        <ele>46</ele>
        <time>2020-01-09T06:34:30Z</time>
      </trkpt>
      <trkpt lat="59.311916" lon="18.074308">
        <ele>46</ele>
        <time>2020-01-09T06:34:31Z</time>
      </trkpt>
      <trkpt lat="59.311942" lon="18.074295">
        <ele>46</ele>
        <time>2020-01-09T06:34:32Z</time>
      </trkpt>
      <trkpt lat="59.311971" lon="18.074281">
        <ele>47</ele>
        <time>2020-01-09T06:34:33Z</time>
      </trkpt>
      <trkpt lat="59.311996" lon="18.074265">
        <ele>47</ele>
        <time>2020-01-09T06:34:34Z</time>
      </trkpt>
      <trkpt lat="59.312019" lon="18.074245">
        <ele>47</ele>
        <time>2020-01-09T06:34:35Z</time>
      </trkpt>
      <trkpt lat="59.312044" lon="18.074235">
        <ele>47</ele>
        <time>2020-01-09T06:34:36Z</time>
      </trkpt>
      <trkpt lat="59.312071" lon="18.074226">
        <ele>47</ele>
        <time>2020-01-09T06:34:37Z</time>
      </trkpt>
      <trkpt lat="59.312097" lon="18.074212">
        <ele>48</ele>
        <time>2020-01-09T06:34:38Z</time>
      </trkpt>
      <trkpt lat="59.312122" lon="18.0742">
        <ele>0</ele>
        <time>2020-01-09T06:34:38Z</time>
      </trkpt>
      <trkpt lat="59.31215" lon="18.07419">
        <ele>48</ele>
        <time>2020-01-09T06:34:39Z</time>
      </trkpt>
      <trkpt lat="59.312176" lon="18.07418">
        <ele>48</ele>
        <time>2020-01-09T06:34:41Z</time>
      </trkpt>
      <trkpt lat="59.312199" lon="18.074166">
        <ele>48</ele>
        <time>2020-01-09T06:34:42Z</time>
      </trkpt>
      <trkpt lat="59.312221" lon="18.074152">
        <ele>48</ele>
        <time>2020-01-09T06:34:43Z</time>
      </trkpt>
      <trkpt lat="59.312242" lon="18.074143">
        <ele>49</ele>
        <time>2020-01-09T06:34:44Z</time>
      </trkpt>
      <trkpt lat="59.312266" lon="18.074131">
        <ele>0</ele>
        <time>2020-01-09T06:34:44Z</time>
      </trkpt>
      <trkpt lat="59.312289" lon="18.074113">
        <ele>49</ele>
        <time>2020-01-09T06:34:45Z</time>
      </trkpt>
      <trkpt lat="59.31231" lon="18.074085">
        <ele>49</ele>
        <time>2020-01-09T06:34:47Z</time>
      </trkpt>
      <trkpt lat="59.31233" lon="18.074063">
        <ele>49</ele>
        <time>2020-01-09T06:34:48Z</time>
      </trkpt>
      <trkpt lat="59.312353" lon="18.07404">
        <ele>49</ele>
        <time>2020-01-09T06:34:49Z</time>
      </trkpt>
      <trkpt lat="59.312377" lon="18.074027">
        <ele>49</ele>
        <time>2020-01-09T06:34:50Z</time>
      </trkpt>
      <trkpt lat="59.312395" lon="18.074003">
        <ele>49</ele>
        <time>2020-01-09T06:34:51Z</time>
      </trkpt>
      <trkpt lat="59.312415" lon="18.073976">
        <ele>49</ele>
        <time>2020-01-09T06:34:52Z</time>
      </trkpt>
      <trkpt lat="59.312435" lon="18.073953">
        <ele>49</ele>
        <time>2020-01-09T06:34:53Z</time>
      </trkpt>
      <trkpt lat="59.312454" lon="18.073928">
        <ele>49</ele>
        <time>2020-01-09T06:34:54Z</time>
      </trkpt>
      <trkpt lat="59.312471" lon="18.073907">
        <ele>49</ele>
        <time>2020-01-09T06:34:55Z</time>
      </trkpt>
      <trkpt lat="59.312489" lon="18.073887">
        <ele>49</ele>
        <time>2020-01-09T06:34:56Z</time>
      </trkpt>
      <trkpt lat="59.312508" lon="18.073867">
        <ele>49</ele>
        <time>2020-01-09T06:34:57Z</time>
      </trkpt>
      <trkpt lat="59.31253" lon="18.073849">
        <ele>0</ele>
        <time>2020-01-09T06:34:57Z</time>
      </trkpt>
      <trkpt lat="59.312551" lon="18.073834">
        <ele>49</ele>
        <time>2020-01-09T06:34:58Z</time>
      </trkpt>
      <trkpt lat="59.312574" lon="18.073818">
        <ele>49</ele>
        <time>2020-01-09T06:35:00Z</time>
      </trkpt>
      <trkpt lat="59.312601" lon="18.07381">
        <ele>48</ele>
        <time>2020-01-09T06:35:01Z</time>
      </trkpt>
      <trkpt lat="59.312631" lon="18.073808">
        <ele>48</ele>
        <time>2020-01-09T06:35:02Z</time>
      </trkpt>
      <trkpt lat="59.31266" lon="18.073801">
        <ele>48</ele>
        <time>2020-01-09T06:35:03Z</time>
      </trkpt>
      <trkpt lat="59.31269" lon="18.073788">
        <ele>48</ele>
        <time>2020-01-09T06:35:04Z</time>
      </trkpt>
      <trkpt lat="59.312718" lon="18.073777">
        <ele>0</ele>
        <time>2020-01-09T06:35:04Z</time>
      </trkpt>
      <trkpt lat="59.312747" lon="18.073766">
        <ele>47</ele>
        <time>2020-01-09T06:35:05Z</time>
      </trkpt>
      <trkpt lat="59.312775" lon="18.073761">
        <ele>47</ele>
        <time>2020-01-09T06:35:07Z</time>
      </trkpt>
      <trkpt lat="59.312803" lon="18.073767">
        <ele>47</ele>
        <time>2020-01-09T06:35:08Z</time>
      </trkpt>
      <trkpt lat="59.312835" lon="18.073782">
        <ele>47</ele>
        <time>2020-01-09T06:35:09Z</time>
      </trkpt>
      <trkpt lat="59.312862" lon="18.073785">
        <ele>47</ele>
        <time>2020-01-09T06:35:10Z</time>
      </trkpt>
      <trkpt lat="59.312891" lon="18.073785">
        <ele>46</ele>
        <time>2020-01-09T06:35:11Z</time>
      </trkpt>
      <trkpt lat="59.312918" lon="18.073778">
        <ele>46</ele>
        <time>2020-01-09T06:35:12Z</time>
      </trkpt>
      <trkpt lat="59.312944" lon="18.073766">
        <ele>46</ele>
        <time>2020-01-09T06:35:13Z</time>
      </trkpt>
      <trkpt lat="59.312971" lon="18.073761">
        <ele>45</ele>
        <time>2020-01-09T06:35:14Z</time>
      </trkpt>
      <trkpt lat="59.313" lon="18.073757">
        <ele>45</ele>
        <time>2020-01-09T06:35:15Z</time>
      </trkpt>
      <trkpt lat="59.31303" lon="18.073754">
        <ele>45</ele>
        <time>2020-01-09T06:35:16Z</time>
      </trkpt>
      <trkpt lat="59.31306" lon="18.073748">
        <ele>0</ele>
        <time>2020-01-09T06:35:16Z</time>
      </trkpt>
      <trkpt lat="59.31309" lon="18.073745">
        <ele>45</ele>
        <time>2020-01-09T06:35:17Z</time>
      </trkpt>
      <trkpt lat="59.31312" lon="18.073742">
        <ele>44</ele>
        <time>2020-01-09T06:35:19Z</time>
      </trkpt>
      <trkpt lat="59.313149" lon="18.073736">
        <ele>44</ele>
        <time>2020-01-09T06:35:20Z</time>
      </trkpt>
      <trkpt lat="59.313176" lon="18.073732">
        <ele>0</ele>
        <time>2020-01-09T06:35:20Z</time>
      </trkpt>
      <trkpt lat="59.313203" lon="18.073725">
        <ele>43</ele>
        <time>2020-01-09T06:35:21Z</time>
      </trkpt>
      <trkpt lat="59.313231" lon="18.073717">
        <ele>43</ele>
        <time>2020-01-09T06:35:23Z</time>
      </trkpt>
      <trkpt lat="59.313255" lon="18.073708">
        <ele>43</ele>
        <time>2020-01-09T06:35:24Z</time>
      </trkpt>
      <trkpt lat="59.313282" lon="18.073706">
        <ele>43</ele>
        <time>2020-01-09T06:35:25Z</time>
      </trkpt>
      <trkpt lat="59.313307" lon="18.0737">
        <ele>42</ele>
        <time>2020-01-09T06:35:26Z</time>
      </trkpt>
      <trkpt lat="59.313335" lon="18.073694">
        <ele>42</ele>
        <time>2020-01-09T06:35:27Z</time>
      </trkpt>
      <trkpt lat="59.31336" lon="18.073675">
        <ele>42</ele>
        <time>2020-01-09T06:35:28Z</time>
      </trkpt>
      <trkpt lat="59.313385" lon="18.073661">
        <ele>42</ele>
        <time>2020-01-09T06:35:29Z</time>
      </trkpt>
      <trkpt lat="59.313412" lon="18.073659">
        <ele>42</ele>
        <time>2020-01-09T06:35:30Z</time>
      </trkpt>
      <trkpt lat="59.313438" lon="18.073657">
        <ele>42</ele>
        <time>2020-01-09T06:35:31Z</time>
      </trkpt>
      <trkpt lat="59.313466" lon="18.073651">
        <ele>42</ele>
        <time>2020-01-09T06:35:32Z</time>
      </trkpt>
      <trkpt lat="59.313492" lon="18.073641">
        <ele>42</ele>
        <time>2020-01-09T06:35:33Z</time>
      </trkpt>
      <trkpt lat="59.313516" lon="18.073634">
        <ele>42</ele>
        <time>2020-01-09T06:35:34Z</time>
      </trkpt>
      <trkpt lat="59.31354" lon="18.073624">
        <ele>41</ele>
        <time>2020-01-09T06:35:35Z</time>
      </trkpt>
      <trkpt lat="59.313564" lon="18.07361">
        <ele>0</ele>
        <time>2020-01-09T06:35:35Z</time>
      </trkpt>
      <trkpt lat="59.313588" lon="18.073594">
        <ele>41</ele>
        <time>2020-01-09T06:35:36Z</time>
      </trkpt>
      <trkpt lat="59.313612" lon="18.073575">
        <ele>40</ele>
        <time>2020-01-09T06:35:38Z</time>
      </trkpt>
      <trkpt lat="59.31364" lon="18.073561">
        <ele>40</ele>
        <time>2020-01-09T06:35:39Z</time>
      </trkpt>
      <trkpt lat="59.313666" lon="18.073544">
        <ele>41</ele>
        <time>2020-01-09T06:35:40Z</time>
      </trkpt>
      <trkpt lat="59.313688" lon="18.07353">
        <ele>41</ele>
        <time>2020-01-09T06:35:41Z</time>
      </trkpt>
      <trkpt lat="59.31371" lon="18.073514">
        <ele>0</ele>
        <time>2020-01-09T06:35:41Z</time>
      </trkpt>
      <trkpt lat="59.313728" lon="18.073492">
        <ele>41</ele>
        <time>2020-01-09T06:35:42Z</time>
      </trkpt>
      <trkpt lat="59.31375" lon="18.073472">
        <ele>40</ele>
        <time>2020-01-09T06:35:44Z</time>
      </trkpt>
      <trkpt lat="59.313772" lon="18.073462">
        <ele>40</ele>
        <time>2020-01-09T06:35:45Z</time>
      </trkpt>
      <trkpt lat="59.313798" lon="18.073447">
        <ele>40</ele>
        <time>2020-01-09T06:35:46Z</time>
      </trkpt>
      <trkpt lat="59.313825" lon="18.073433">
        <ele>40</ele>
        <time>2020-01-09T06:35:47Z</time>
      </trkpt>
      <trkpt lat="59.313851" lon="18.073415">
        <ele>40</ele>
        <time>2020-01-09T06:35:48Z</time>
      </trkpt>
      <trkpt lat="59.313878" lon="18.0734">
        <ele>40</ele>
        <time>2020-01-09T06:35:49Z</time>
      </trkpt>
      <trkpt lat="59.313903" lon="18.073385">
        <ele>40</ele>
        <time>2020-01-09T06:35:50Z</time>
      </trkpt>
      <trkpt lat="59.313928" lon="18.07337">
        <ele>40</ele>
        <time>2020-01-09T06:35:51Z</time>
      </trkpt>
      <trkpt lat="59.313953" lon="18.073355">
        <ele>40</ele>
        <time>2020-01-09T06:35:52Z</time>
      </trkpt>
      <trkpt lat="59.313975" lon="18.073338">
        <ele>40</ele>
        <time>2020-01-09T06:35:53Z</time>
      </trkpt>
      <trkpt lat="59.313997" lon="18.073324">
        <ele>40</ele>
        <time>2020-01-09T06:35:54Z</time>
      </trkpt>
      <trkpt lat="59.314016" lon="18.073312">
        <ele>0</ele>
        <time>2020-01-09T06:35:54Z</time>
      </trkpt>
      <trkpt lat="59.314037" lon="18.073303">
        <ele>40</ele>
        <time>2020-01-09T06:35:55Z</time>
      </trkpt>
      <trkpt lat="59.31406" lon="18.073298">
        <ele>41</ele>
        <time>2020-01-09T06:35:57Z</time>
      </trkpt>
      <trkpt lat="59.314088" lon="18.073297">
        <ele>41</ele>
        <time>2020-01-09T06:35:58Z</time>
      </trkpt>
      <trkpt lat="59.31412" lon="18.073296">
        <ele>41</ele>
        <time>2020-01-09T06:35:59Z</time>
      </trkpt>
      <trkpt lat="59.314153" lon="18.073301">
        <ele>41</ele>
        <time>2020-01-09T06:36:00Z</time>
      </trkpt>
      <trkpt lat="59.314182" lon="18.073296">
        <ele>0</ele>
        <time>2020-01-09T06:36:00Z</time>
      </trkpt>
      <trkpt lat="59.314211" lon="18.073289">
        <ele>41</ele>
        <time>2020-01-09T06:36:01Z</time>
      </trkpt>
      <trkpt lat="59.314236" lon="18.073285">
        <ele>42</ele>
        <time>2020-01-09T06:36:03Z</time>
      </trkpt>
      <trkpt lat="59.314259" lon="18.073273">
        <ele>42</ele>
        <time>2020-01-09T06:36:04Z</time>
      </trkpt>
      <trkpt lat="59.314282" lon="18.073257">
        <ele>42</ele>
        <time>2020-01-09T06:36:05Z</time>
      </trkpt>
      <trkpt lat="59.314305" lon="18.07324">
        <ele>42</ele>
        <time>2020-01-09T06:36:06Z</time>
      </trkpt>
      <trkpt lat="59.314324" lon="18.073217">
        <ele>42</ele>
        <time>2020-01-09T06:36:07Z</time>
      </trkpt>
      <trkpt lat="59.314345" lon="18.073199">
        <ele>42</ele>
        <time>2020-01-09T06:36:08Z</time>
      </trkpt>
      <trkpt lat="59.314369" lon="18.073182">
        <ele>42</ele>
        <time>2020-01-09T06:36:09Z</time>
      </trkpt>
      <trkpt lat="59.314392" lon="18.073161">
        <ele>42</ele>
        <time>2020-01-09T06:36:10Z</time>
      </trkpt>
      <trkpt lat="59.314414" lon="18.073142">
        <ele>42</ele>
        <time>2020-01-09T06:36:11Z</time>
      </trkpt>
      <trkpt lat="59.314436" lon="18.073123">
        <ele>42</ele>
        <time>2020-01-09T06:36:12Z</time>
      </trkpt>
      <trkpt lat="59.31446" lon="18.073104">
        <ele>41</ele>
        <time>2020-01-09T06:36:13Z</time>
      </trkpt>
      <trkpt lat="59.314483" lon="18.073078">
        <ele>0</ele>
        <time>2020-01-09T06:36:13Z</time>
      </trkpt>
      <trkpt lat="59.314503" lon="18.073065">
        <ele>41</ele>
        <time>2020-01-09T06:36:14Z</time>
      </trkpt>
      <trkpt lat="59.314528" lon="18.073053">
        <ele>40</ele>
        <time>2020-01-09T06:36:16Z</time>
      </trkpt>
      <trkpt lat="59.314554" lon="18.073042">
        <ele>39</ele>
        <time>2020-01-09T06:36:17Z</time>
      </trkpt>
      <trkpt lat="59.314576" lon="18.073021">
        <ele>39</ele>
        <time>2020-01-09T06:36:18Z</time>
      </trkpt>
      <trkpt lat="59.3146" lon="18.073002">
        <ele>39</ele>
        <time>2020-01-09T06:36:19Z</time>
      </trkpt>
      <trkpt lat="59.314623" lon="18.072984">
        <ele>39</ele>
        <time>2020-01-09T06:36:20Z</time>
      </trkpt>
      <trkpt lat="59.314645" lon="18.072968">
        <ele>0</ele>
        <time>2020-01-09T06:36:20Z</time>
      </trkpt>
      <trkpt lat="59.31467" lon="18.072953">
        <ele>39</ele>
        <time>2020-01-09T06:36:21Z</time>
      </trkpt>
      <trkpt lat="59.314696" lon="18.072941">
        <ele>39</ele>
        <time>2020-01-09T06:36:23Z</time>
      </trkpt>
      <trkpt lat="59.31472" lon="18.072929">
        <ele>39</ele>
        <time>2020-01-09T06:36:24Z</time>
      </trkpt>
      <trkpt lat="59.31474" lon="18.072911">
        <ele>40</ele>
        <time>2020-01-09T06:36:25Z</time>
      </trkpt>
      <trkpt lat="59.31476" lon="18.07289">
        <ele>40</ele>
        <time>2020-01-09T06:36:26Z</time>
      </trkpt>
      <trkpt lat="59.314782" lon="18.072867">
        <ele>40</ele>
        <time>2020-01-09T06:36:27Z</time>
      </trkpt>
      <trkpt lat="59.314805" lon="18.07285">
        <ele>39</ele>
        <time>2020-01-09T06:36:28Z</time>
      </trkpt>
      <trkpt lat="59.314829" lon="18.072833">
        <ele>39</ele>
        <time>2020-01-09T06:36:29Z</time>
      </trkpt>
      <trkpt lat="59.314854" lon="18.072813">
        <ele>40</ele>
        <time>2020-01-09T06:36:30Z</time>
      </trkpt>
      <trkpt lat="59.314878" lon="18.072802">
        <ele>40</ele>
        <time>2020-01-09T06:36:31Z</time>
      </trkpt>
      <trkpt lat="59.314903" lon="18.072797">
        <ele>40</ele>
        <time>2020-01-09T06:36:32Z</time>
      </trkpt>
      <trkpt lat="59.314932" lon="18.072805">
        <ele>0</ele>
        <time>2020-01-09T06:36:32Z</time>
      </trkpt>
      <trkpt lat="59.314968" lon="18.072827">
        <ele>39</ele>
        <time>2020-01-09T06:36:33Z</time>
      </trkpt>
      <trkpt lat="59.315027" lon="18.072849">
        <ele>40</ele>
        <time>2020-01-09T06:36:36Z</time>
      </trkpt>
      <trkpt lat="59.315054" lon="18.072849">
        <ele>40</ele>
        <time>2020-01-09T06:36:37Z</time>
      </trkpt>
      <trkpt lat="59.315082" lon="18.072851">
        <ele>40</ele>
        <time>2020-01-09T06:36:38Z</time>
      </trkpt>
      <trkpt lat="59.315109" lon="18.072849">
        <ele>0</ele>
        <time>2020-01-09T06:36:38Z</time>
      </trkpt>
      <trkpt lat="59.315136" lon="18.072848">
        <ele>40</ele>
        <time>2020-01-09T06:36:39Z</time>
      </trkpt>
      <trkpt lat="59.315166" lon="18.072851">
        <ele>40</ele>
        <time>2020-01-09T06:36:41Z</time>
      </trkpt>
      <trkpt lat="59.315193" lon="18.072847">
        <ele>40</ele>
        <time>2020-01-09T06:36:42Z</time>
      </trkpt>
      <trkpt lat="59.31522" lon="18.072844">
        <ele>40</ele>
        <time>2020-01-09T06:36:43Z</time>
      </trkpt>
      <trkpt lat="59.31525" lon="18.072845">
        <ele>40</ele>
        <time>2020-01-09T06:36:44Z</time>
      </trkpt>
      <trkpt lat="59.315278" lon="18.072838">
        <ele>40</ele>
        <time>2020-01-09T06:36:45Z</time>
      </trkpt>
      <trkpt lat="59.315307" lon="18.072828">
        <ele>40</ele>
        <time>2020-01-09T06:36:46Z</time>
      </trkpt>
      <trkpt lat="59.315334" lon="18.072815">
        <ele>40</ele>
        <time>2020-01-09T06:36:47Z</time>
      </trkpt>
      <trkpt lat="59.315362" lon="18.072803">
        <ele>40</ele>
        <time>2020-01-09T06:36:48Z</time>
      </trkpt>
      <trkpt lat="59.315389" lon="18.072791">
        <ele>40</ele>
        <time>2020-01-09T06:36:49Z</time>
      </trkpt>
      <trkpt lat="59.315417" lon="18.072782">
        <ele>40</ele>
        <time>2020-01-09T06:36:50Z</time>
      </trkpt>
      <trkpt lat="59.315447" lon="18.072775">
        <ele>40</ele>
        <time>2020-01-09T06:36:51Z</time>
      </trkpt>
      <trkpt lat="59.315474" lon="18.072767">
        <ele>0</ele>
        <time>2020-01-09T06:36:51Z</time>
      </trkpt>
      <trkpt lat="59.315497" lon="18.072746">
        <ele>40</ele>
        <time>2020-01-09T06:36:52Z</time>
      </trkpt>
      <trkpt lat="59.315518" lon="18.072719">
        <ele>40</ele>
        <time>2020-01-09T06:36:54Z</time>
      </trkpt>
      <trkpt lat="59.315543" lon="18.072697">
        <ele>40</ele>
        <time>2020-01-09T06:36:55Z</time>
      </trkpt>
      <trkpt lat="59.31557" lon="18.072674">
        <ele>40</ele>
        <time>2020-01-09T06:36:56Z</time>
      </trkpt>
      <trkpt lat="59.315594" lon="18.072653">
        <ele>40</ele>
        <time>2020-01-09T06:36:57Z</time>
      </trkpt>
      <trkpt lat="59.315616" lon="18.07263">
        <ele>0</ele>
        <time>2020-01-09T06:36:57Z</time>
      </trkpt>
      <trkpt lat="59.315636" lon="18.072605">
        <ele>40</ele>
        <time>2020-01-09T06:36:58Z</time>
      </trkpt>
      <trkpt lat="59.315653" lon="18.072573">
        <ele>40</ele>
        <time>2020-01-09T06:37:00Z</time>
      </trkpt>
      <trkpt lat="59.31567" lon="18.07254">
        <ele>40</ele>
        <time>2020-01-09T06:37:01Z</time>
      </trkpt>
      <trkpt lat="59.315692" lon="18.072513">
        <ele>39</ele>
        <time>2020-01-09T06:37:02Z</time>
      </trkpt>
      <trkpt lat="59.315716" lon="18.07249">
        <ele>39</ele>
        <time>2020-01-09T06:37:03Z</time>
      </trkpt>
      <trkpt lat="59.315739" lon="18.072472">
        <ele>39</ele>
        <time>2020-01-09T06:37:04Z</time>
      </trkpt>
      <trkpt lat="59.315762" lon="18.07246">
        <ele>39</ele>
        <time>2020-01-09T06:37:05Z</time>
      </trkpt>
      <trkpt lat="59.315785" lon="18.072445">
        <ele>39</ele>
        <time>2020-01-09T06:37:06Z</time>
      </trkpt>
      <trkpt lat="59.315814" lon="18.072439">
        <ele>39</ele>
        <time>2020-01-09T06:37:07Z</time>
      </trkpt>
      <trkpt lat="59.31584" lon="18.072428">
        <ele>39</ele>
        <time>2020-01-09T06:37:08Z</time>
      </trkpt>
      <trkpt lat="59.315864" lon="18.07241">
        <ele>39</ele>
        <time>2020-01-09T06:37:09Z</time>
      </trkpt>
      <trkpt lat="59.315887" lon="18.072397">
        <ele>38</ele>
        <time>2020-01-09T06:37:10Z</time>
      </trkpt>
      <trkpt lat="59.315911" lon="18.072389">
        <ele>0</ele>
        <time>2020-01-09T06:37:10Z</time>
      </trkpt>
      <trkpt lat="59.315936" lon="18.072379">
        <ele>38</ele>
        <time>2020-01-09T06:37:11Z</time>
      </trkpt>
      <trkpt lat="59.315959" lon="18.072368">
        <ele>38</ele>
        <time>2020-01-09T06:37:13Z</time>
      </trkpt>
      <trkpt lat="59.315983" lon="18.07236">
        <ele>38</ele>
        <time>2020-01-09T06:37:14Z</time>
      </trkpt>
      <trkpt lat="59.316005" lon="18.072358">
        <ele>38</ele>
        <time>2020-01-09T06:37:15Z</time>
      </trkpt>
      <trkpt lat="59.316026" lon="18.072354">
        <ele>38</ele>
        <time>2020-01-09T06:37:16Z</time>
      </trkpt>
      <trkpt lat="59.316049" lon="18.07235">
        <ele>0</ele>
        <time>2020-01-09T06:37:16Z</time>
      </trkpt>
      <trkpt lat="59.316072" lon="18.072344">
        <ele>37</ele>
        <time>2020-01-09T06:37:17Z</time>
      </trkpt>
      <trkpt lat="59.316094" lon="18.072342">
        <ele>37</ele>
        <time>2020-01-09T06:37:19Z</time>
      </trkpt>
      <trkpt lat="59.316122" lon="18.072339">
        <ele>37</ele>
        <time>2020-01-09T06:37:20Z</time>
      </trkpt>
      <trkpt lat="59.316143" lon="18.07233">
        <ele>36</ele>
        <time>2020-01-09T06:37:21Z</time>
      </trkpt>
      <trkpt lat="59.316166" lon="18.072314">
        <ele>36</ele>
        <time>2020-01-09T06:37:22Z</time>
      </trkpt>
      <trkpt lat="59.31619" lon="18.0723">
        <ele>36</ele>
        <time>2020-01-09T06:37:23Z</time>
      </trkpt>
      <trkpt lat="59.316215" lon="18.072296">
        <ele>36</ele>
        <time>2020-01-09T06:37:24Z</time>
      </trkpt>
      <trkpt lat="59.316236" lon="18.07229">
        <ele>36</ele>
        <time>2020-01-09T06:37:25Z</time>
      </trkpt>
      <trkpt lat="59.316257" lon="18.07228">
        <ele>36</ele>
        <time>2020-01-09T06:37:26Z</time>
      </trkpt>
      <trkpt lat="59.316278" lon="18.07227">
        <ele>36</ele>
        <time>2020-01-09T06:37:27Z</time>
      </trkpt>
      <trkpt lat="59.316298" lon="18.072266">
        <ele>36</ele>
        <time>2020-01-09T06:37:28Z</time>
      </trkpt>
      <trkpt lat="59.316318" lon="18.072259">
        <ele>36</ele>
        <time>2020-01-09T06:37:29Z</time>
      </trkpt>
      <trkpt lat="59.316341" lon="18.072255">
        <ele>0</ele>
        <time>2020-01-09T06:37:29Z</time>
      </trkpt>
      <trkpt lat="59.316365" lon="18.072255">
        <ele>36</ele>
        <time>2020-01-09T06:37:30Z</time>
      </trkpt>
      <trkpt lat="59.316389" lon="18.072236">
        <ele>36</ele>
        <time>2020-01-09T06:37:32Z</time>
      </trkpt>
      <trkpt lat="59.316412" lon="18.072206">
        <ele>36</ele>
        <time>2020-01-09T06:37:33Z</time>
      </trkpt>
      <trkpt lat="59.316436" lon="18.072197">
        <ele>36</ele>
        <time>2020-01-09T06:37:34Z</time>
      </trkpt>
      <trkpt lat="59.31646" lon="18.072189">
        <ele>36</ele>
        <time>2020-01-09T06:37:35Z</time>
      </trkpt>
      <trkpt lat="59.316485" lon="18.072182">
        <ele>36</ele>
        <time>2020-01-09T06:37:36Z</time>
      </trkpt>
      <trkpt lat="59.316507" lon="18.072172">
        <ele>36</ele>
        <time>2020-01-09T06:37:37Z</time>
      </trkpt>
      <trkpt lat="59.316529" lon="18.072156">
        <ele>36</ele>
        <time>2020-01-09T06:37:38Z</time>
      </trkpt>
      <trkpt lat="59.31655" lon="18.072154">
        <ele>36</ele>
        <time>2020-01-09T06:37:39Z</time>
      </trkpt>
      <trkpt lat="59.316585" lon="18.072162">
        <ele>36</ele>
        <time>2020-01-09T06:37:41Z</time>
      </trkpt>
      <trkpt lat="59.316607" lon="18.07216">
        <ele>37</ele>
        <time>2020-01-09T06:37:42Z</time>
      </trkpt>
      <trkpt lat="59.316626" lon="18.072156">
        <ele>37</ele>
        <time>2020-01-09T06:37:43Z</time>
      </trkpt>
      <trkpt lat="59.316646" lon="18.072144">
        <ele>37</ele>
        <time>2020-01-09T06:37:44Z</time>
      </trkpt>
      <trkpt lat="59.316668" lon="18.072136">
        <ele>37</ele>
        <time>2020-01-09T06:37:45Z</time>
      </trkpt>
      <trkpt lat="59.316685" lon="18.072126">
        <ele>37</ele>
        <time>2020-01-09T06:37:46Z</time>
      </trkpt>
      <trkpt lat="59.316704" lon="18.072116">
        <ele>37</ele>
        <time>2020-01-09T06:37:47Z</time>
      </trkpt>
      <trkpt lat="59.316727" lon="18.072104">
        <ele>37</ele>
        <time>2020-01-09T06:37:48Z</time>
      </trkpt>
      <trkpt lat="59.316751" lon="18.07209">
        <ele>0</ele>
        <time>2020-01-09T06:37:48Z</time>
      </trkpt>
      <trkpt lat="59.316784" lon="18.072086">
        <ele>37</ele>
        <time>2020-01-09T06:37:49Z</time>
      </trkpt>
      <trkpt lat="59.316814" lon="18.072076">
        <ele>37</ele>
        <time>2020-01-09T06:37:51Z</time>
      </trkpt>
      <trkpt lat="59.316845" lon="18.072062">
        <ele>37</ele>
        <time>2020-01-09T06:37:52Z</time>
      </trkpt>
      <trkpt lat="59.316874" lon="18.072041">
        <ele>37</ele>
        <time>2020-01-09T06:37:53Z</time>
      </trkpt>
      <trkpt lat="59.316904" lon="18.072016">
        <ele>37</ele>
        <time>2020-01-09T06:37:54Z</time>
      </trkpt>
      <trkpt lat="59.31693" lon="18.07199">
        <ele>37</ele>
        <time>2020-01-09T06:37:55Z</time>
      </trkpt>
      <trkpt lat="59.316956" lon="18.071965">
        <ele>37</ele>
        <time>2020-01-09T06:37:56Z</time>
      </trkpt>
      <trkpt lat="59.316984" lon="18.071948">
        <ele>37</ele>
        <time>2020-01-09T06:37:57Z</time>
      </trkpt>
      <trkpt lat="59.317011" lon="18.071924">
        <ele>0</ele>
        <time>2020-01-09T06:37:57Z</time>
      </trkpt>
      <trkpt lat="59.317035" lon="18.0719">
        <ele>37</ele>
        <time>2020-01-09T06:37:58Z</time>
      </trkpt>
      <trkpt lat="59.317063" lon="18.071884">
        <ele>37</ele>
        <time>2020-01-09T06:38:00Z</time>
      </trkpt>
      <trkpt lat="59.317091" lon="18.07187">
        <ele>37</ele>
        <time>2020-01-09T06:38:01Z</time>
      </trkpt>
      <trkpt lat="59.317119" lon="18.071858">
        <ele>37</ele>
        <time>2020-01-09T06:38:02Z</time>
      </trkpt>
      <trkpt lat="59.317143" lon="18.071844">
        <ele>37</ele>
        <time>2020-01-09T06:38:03Z</time>
      </trkpt>
      <trkpt lat="59.317167" lon="18.071832">
        <ele>37</ele>
        <time>2020-01-09T06:38:04Z</time>
      </trkpt>
      <trkpt lat="59.317192" lon="18.071817">
        <ele>0</ele>
        <time>2020-01-09T06:38:04Z</time>
      </trkpt>
      <trkpt lat="59.317216" lon="18.0718">
        <ele>37</ele>
        <time>2020-01-09T06:38:05Z</time>
      </trkpt>
      <trkpt lat="59.317238" lon="18.071779">
        <ele>37</ele>
        <time>2020-01-09T06:38:07Z</time>
      </trkpt>
      <trkpt lat="59.317263" lon="18.071764">
        <ele>0</ele>
        <time>2020-01-09T06:38:07Z</time>
      </trkpt>
      <trkpt lat="59.317285" lon="18.071745">
        <ele>37</ele>
        <time>2020-01-09T06:38:08Z</time>
      </trkpt>
      <trkpt lat="59.317312" lon="18.071733">
        <ele>37</ele>
        <time>2020-01-09T06:38:10Z</time>
      </trkpt>
      <trkpt lat="59.317337" lon="18.071727">
        <ele>37</ele>
        <time>2020-01-09T06:38:11Z</time>
      </trkpt>
      <trkpt lat="59.317362" lon="18.071725">
        <ele>37</ele>
        <time>2020-01-09T06:38:12Z</time>
      </trkpt>
      <trkpt lat="59.317386" lon="18.071716">
        <ele>37</ele>
        <time>2020-01-09T06:38:13Z</time>
      </trkpt>
      <trkpt lat="59.317408" lon="18.071713">
        <ele>37</ele>
        <time>2020-01-09T06:38:14Z</time>
      </trkpt>
      <trkpt lat="59.317431" lon="18.071699">
        <ele>37</ele>
        <time>2020-01-09T06:38:15Z</time>
      </trkpt>
      <trkpt lat="59.317455" lon="18.071696">
        <ele>37</ele>
        <time>2020-01-09T06:38:16Z</time>
      </trkpt>
      <trkpt lat="59.317481" lon="18.071689">
        <ele>37</ele>
        <time>2020-01-09T06:38:17Z</time>
      </trkpt>
      <trkpt lat="59.317506" lon="18.071683">
        <ele>0</ele>
        <time>2020-01-09T06:38:17Z</time>
      </trkpt>
      <trkpt lat="59.317529" lon="18.071672">
        <ele>37</ele>
        <time>2020-01-09T06:38:18Z</time>
      </trkpt>
      <trkpt lat="59.317555" lon="18.071666">
        <ele>37</ele>
        <time>2020-01-09T06:38:20Z</time>
      </trkpt>
      <trkpt lat="59.31758" lon="18.071651">
        <ele>36</ele>
        <time>2020-01-09T06:38:21Z</time>
      </trkpt>
      <trkpt lat="59.317605" lon="18.071643">
        <ele>36</ele>
        <time>2020-01-09T06:38:22Z</time>
      </trkpt>
      <trkpt lat="59.317632" lon="18.071638">
        <ele>36</ele>
        <time>2020-01-09T06:38:23Z</time>
      </trkpt>
      <trkpt lat="59.31766" lon="18.071636">
        <ele>36</ele>
        <time>2020-01-09T06:38:24Z</time>
      </trkpt>
      <trkpt lat="59.317688" lon="18.071633">
        <ele>36</ele>
        <time>2020-01-09T06:38:25Z</time>
      </trkpt>
      <trkpt lat="59.317716" lon="18.071623">
        <ele>36</ele>
        <time>2020-01-09T06:38:26Z</time>
      </trkpt>
      <trkpt lat="59.317743" lon="18.071614">
        <ele>0</ele>
        <time>2020-01-09T06:38:26Z</time>
      </trkpt>
      <trkpt lat="59.317769" lon="18.071608">
        <ele>36</ele>
        <time>2020-01-09T06:38:27Z</time>
      </trkpt>
      <trkpt lat="59.317794" lon="18.071598">
        <ele>37</ele>
        <time>2020-01-09T06:38:29Z</time>
      </trkpt>
      <trkpt lat="59.317818" lon="18.07159">
        <ele>37</ele>
        <time>2020-01-09T06:38:30Z</time>
      </trkpt>
      <trkpt lat="59.317845" lon="18.071584">
        <ele>37</ele>
        <time>2020-01-09T06:38:31Z</time>
      </trkpt>
      <trkpt lat="59.317871" lon="18.071581">
        <ele>37</ele>
        <time>2020-01-09T06:38:32Z</time>
      </trkpt>
      <trkpt lat="59.317899" lon="18.071576">
        <ele>37</ele>
        <time>2020-01-09T06:38:33Z</time>
      </trkpt>
      <trkpt lat="59.317924" lon="18.071558">
        <ele>37</ele>
        <time>2020-01-09T06:38:34Z</time>
      </trkpt>
      <trkpt lat="59.317948" lon="18.071547">
        <ele>37</ele>
        <time>2020-01-09T06:38:35Z</time>
      </trkpt>
      <trkpt lat="59.317974" lon="18.071521">
        <ele>0</ele>
        <time>2020-01-09T06:38:35Z</time>
      </trkpt>
      <trkpt lat="59.318002" lon="18.071507">
        <ele>37</ele>
        <time>2020-01-09T06:38:36Z</time>
      </trkpt>
      <trkpt lat="59.31803" lon="18.0715">
        <ele>37</ele>
        <time>2020-01-09T06:38:38Z</time>
      </trkpt>
      <trkpt lat="59.318059" lon="18.071504">
        <ele>37</ele>
        <time>2020-01-09T06:38:39Z</time>
      </trkpt>
      <trkpt lat="59.318088" lon="18.071506">
        <ele>37</ele>
        <time>2020-01-09T06:38:40Z</time>
      </trkpt>
      <trkpt lat="59.318117" lon="18.071509">
        <ele>38</ele>
        <time>2020-01-09T06:38:41Z</time>
      </trkpt>
      <trkpt lat="59.318144" lon="18.071512">
        <ele>38</ele>
        <time>2020-01-09T06:38:42Z</time>
      </trkpt>
      <trkpt lat="59.318175" lon="18.071511">
        <ele>38</ele>
        <time>2020-01-09T06:38:43Z</time>
      </trkpt>
      <trkpt lat="59.318201" lon="18.071498">
        <ele>38</ele>
        <time>2020-01-09T06:38:44Z</time>
      </trkpt>
      <trkpt lat="59.318227" lon="18.07148">
        <ele>38</ele>
        <time>2020-01-09T06:38:45Z</time>
      </trkpt>
      <trkpt lat="59.318251" lon="18.071466">
        <ele>0</ele>
        <time>2020-01-09T06:38:45Z</time>
      </trkpt>
      <trkpt lat="59.318272" lon="18.071451">
        <ele>38</ele>
        <time>2020-01-09T06:38:46Z</time>
      </trkpt>
      <trkpt lat="59.318294" lon="18.071441">
        <ele>38</ele>
        <time>2020-01-09T06:38:48Z</time>
      </trkpt>
      <trkpt lat="59.318322" lon="18.071431">
        <ele>38</ele>
        <time>2020-01-09T06:38:49Z</time>
      </trkpt>
      <trkpt lat="59.318349" lon="18.07142">
        <ele>38</ele>
        <time>2020-01-09T06:38:50Z</time>
      </trkpt>
      <trkpt lat="59.318374" lon="18.071408">
        <ele>38</ele>
        <time>2020-01-09T06:38:51Z</time>
      </trkpt>
      <trkpt lat="59.318395" lon="18.071391">
        <ele>38</ele>
        <time>2020-01-09T06:38:52Z</time>
      </trkpt>
      <trkpt lat="59.318417" lon="18.071374">
        <ele>38</ele>
        <time>2020-01-09T06:38:53Z</time>
      </trkpt>
      <trkpt lat="59.31844" lon="18.071357">
        <ele>38</ele>
        <time>2020-01-09T06:38:54Z</time>
      </trkpt>
      <trkpt lat="59.318466" lon="18.071345">
        <ele>0</ele>
        <time>2020-01-09T06:38:54Z</time>
      </trkpt>
      <trkpt lat="59.318495" lon="18.071318">
        <ele>39</ele>
        <time>2020-01-09T06:38:55Z</time>
      </trkpt>
      <trkpt lat="59.318524" lon="18.071291">
        <ele>39</ele>
        <time>2020-01-09T06:38:57Z</time>
      </trkpt>
      <trkpt lat="59.318554" lon="18.071249">
        <ele>39</ele>
        <time>2020-01-09T06:38:58Z</time>
      </trkpt>
      <trkpt lat="59.318584" lon="18.07122">
        <ele>39</ele>
        <time>2020-01-09T06:38:59Z</time>
      </trkpt>
      <trkpt lat="59.318609" lon="18.071187">
        <ele>39</ele>
        <time>2020-01-09T06:39:00Z</time>
      </trkpt>
      <trkpt lat="59.318637" lon="18.071144">
        <ele>39</ele>
        <time>2020-01-09T06:39:01Z</time>
      </trkpt>
      <trkpt lat="59.31866" lon="18.071104">
        <ele>39</ele>
        <time>2020-01-09T06:39:02Z</time>
      </trkpt>
      <trkpt lat="59.318679" lon="18.071067">
        <ele>39</ele>
        <time>2020-01-09T06:39:03Z</time>
      </trkpt>
      <trkpt lat="59.318705" lon="18.071062">
        <ele>39</ele>
        <time>2020-01-09T06:39:04Z</time>
      </trkpt>
      <trkpt lat="59.31873" lon="18.071058">
        <ele>0</ele>
        <time>2020-01-09T06:39:04Z</time>
      </trkpt>
      <trkpt lat="59.318752" lon="18.071047">
        <ele>39</ele>
        <time>2020-01-09T06:39:05Z</time>
      </trkpt>
      <trkpt lat="59.31877" lon="18.071029">
        <ele>39</ele>
        <time>2020-01-09T06:39:07Z</time>
      </trkpt>
      <trkpt lat="59.31879" lon="18.071013">
        <ele>39</ele>
        <time>2020-01-09T06:39:08Z</time>
      </trkpt>
      <trkpt lat="59.318811" lon="18.070997">
        <ele>38</ele>
        <time>2020-01-09T06:39:09Z</time>
      </trkpt>
      <trkpt lat="59.318831" lon="18.070983">
        <ele>38</ele>
        <time>2020-01-09T06:39:10Z</time>
      </trkpt>
      <trkpt lat="59.31885" lon="18.070971">
        <ele>38</ele>
        <time>2020-01-09T06:39:11Z</time>
      </trkpt>
      <trkpt lat="59.318872" lon="18.070958">
        <ele>38</ele>
        <time>2020-01-09T06:39:12Z</time>
      </trkpt>
      <trkpt lat="59.318895" lon="18.070947">
        <ele>38</ele>
        <time>2020-01-09T06:39:13Z</time>
      </trkpt>
      <trkpt lat="59.318916" lon="18.070935">
        <ele>38</ele>
        <time>2020-01-09T06:39:14Z</time>
      </trkpt>
      <trkpt lat="59.318938" lon="18.07092">
        <ele>0</ele>
        <time>2020-01-09T06:39:14Z</time>
      </trkpt>
      <trkpt lat="59.318962" lon="18.070907">
        <ele>39</ele>
        <time>2020-01-09T06:39:15Z</time>
      </trkpt>
      <trkpt lat="59.318985" lon="18.070894">
        <ele>38</ele>
        <time>2020-01-09T06:39:17Z</time>
      </trkpt>
      <trkpt lat="59.319007" lon="18.070882">
        <ele>38</ele>
        <time>2020-01-09T06:39:18Z</time>
      </trkpt>
      <trkpt lat="59.319033" lon="18.070874">
        <ele>38</ele>
        <time>2020-01-09T06:39:19Z</time>
      </trkpt>
      <trkpt lat="59.319063" lon="18.070871">
        <ele>37</ele>
        <time>2020-01-09T06:39:20Z</time>
      </trkpt>
      <trkpt lat="59.319088" lon="18.070853">
        <ele>37</ele>
        <time>2020-01-09T06:39:21Z</time>
      </trkpt>
      <trkpt lat="59.319114" lon="18.070844">
        <ele>37</ele>
        <time>2020-01-09T06:39:22Z</time>
      </trkpt>
      <trkpt lat="59.319149" lon="18.07084">
        <ele>37</ele>
        <time>2020-01-09T06:39:23Z</time>
      </trkpt>
      <trkpt lat="59.319186" lon="18.070831">
        <ele>0</ele>
        <time>2020-01-09T06:39:23Z</time>
      </trkpt>
      <trkpt lat="59.319222" lon="18.070825">
        <ele>37</ele>
        <time>2020-01-09T06:39:24Z</time>
      </trkpt>
      <trkpt lat="59.319301" lon="18.070802">
        <ele>36</ele>
        <time>2020-01-09T06:39:27Z</time>
      </trkpt>
      <trkpt lat="59.319342" lon="18.070783">
        <ele>36</ele>
        <time>2020-01-09T06:39:28Z</time>
      </trkpt>
      <trkpt lat="59.319376" lon="18.070766">
        <ele>35</ele>
        <time>2020-01-09T06:39:29Z</time>
      </trkpt>
      <trkpt lat="59.319407" lon="18.070761">
        <ele>35</ele>
        <time>2020-01-09T06:39:30Z</time>
      </trkpt>
      <trkpt lat="59.319437" lon="18.07076">
        <ele>0</ele>
        <time>2020-01-09T06:39:30Z</time>
      </trkpt>
      <trkpt lat="59.319469" lon="18.070749">
        <ele>35</ele>
        <time>2020-01-09T06:39:31Z</time>
      </trkpt>
      <trkpt lat="59.319496" lon="18.070735">
        <ele>35</ele>
        <time>2020-01-09T06:39:33Z</time>
      </trkpt>
      <trkpt lat="59.319522" lon="18.070721">
        <ele>35</ele>
        <time>2020-01-09T06:39:34Z</time>
      </trkpt>
      <trkpt lat="59.319548" lon="18.070706">
        <ele>35</ele>
        <time>2020-01-09T06:39:35Z</time>
      </trkpt>
      <trkpt lat="59.319572" lon="18.070694">
        <ele>35</ele>
        <time>2020-01-09T06:39:36Z</time>
      </trkpt>
      <trkpt lat="59.319596" lon="18.070682">
        <ele>34</ele>
        <time>2020-01-09T06:39:37Z</time>
      </trkpt>
      <trkpt lat="59.31962" lon="18.070671">
        <ele>34</ele>
        <time>2020-01-09T06:39:38Z</time>
      </trkpt>
      <trkpt lat="59.319648" lon="18.070654">
        <ele>34</ele>
        <time>2020-01-09T06:39:39Z</time>
      </trkpt>
      <trkpt lat="59.319675" lon="18.070638">
        <ele>34</ele>
        <time>2020-01-09T06:39:40Z</time>
      </trkpt>
      <trkpt lat="59.319704" lon="18.070614">
        <ele>34</ele>
        <time>2020-01-09T06:39:41Z</time>
      </trkpt>
      <trkpt lat="59.319734" lon="18.070581">
        <ele>33</ele>
        <time>2020-01-09T06:39:42Z</time>
      </trkpt>
      <trkpt lat="59.31976" lon="18.070554">
        <ele>0</ele>
        <time>2020-01-09T06:39:42Z</time>
      </trkpt>
      <trkpt lat="59.319787" lon="18.070514">
        <ele>33</ele>
        <time>2020-01-09T06:39:43Z</time>
      </trkpt>
      <trkpt lat="59.319815" lon="18.070493">
        <ele>33</ele>
        <time>2020-01-09T06:39:45Z</time>
      </trkpt>
      <trkpt lat="59.319841" lon="18.070492">
        <ele>33</ele>
        <time>2020-01-09T06:39:46Z</time>
      </trkpt>
      <trkpt lat="59.319868" lon="18.070492">
        <ele>33</ele>
        <time>2020-01-09T06:39:47Z</time>
      </trkpt>
      <trkpt lat="59.319894" lon="18.070486">
        <ele>0</ele>
        <time>2020-01-09T06:39:47Z</time>
      </trkpt>
      <trkpt lat="59.31992" lon="18.070493">
        <ele>33</ele>
        <time>2020-01-09T06:39:48Z</time>
      </trkpt>
      <trkpt lat="59.319946" lon="18.070518">
        <ele>32</ele>
        <time>2020-01-09T06:39:50Z</time>
      </trkpt>
      <trkpt lat="59.319968" lon="18.070569">
        <ele>32</ele>
        <time>2020-01-09T06:39:51Z</time>
      </trkpt>
      <trkpt lat="59.31999" lon="18.070615">
        <ele>32</ele>
        <time>2020-01-09T06:39:52Z</time>
      </trkpt>
      <trkpt lat="59.320011" lon="18.070668">
        <ele>32</ele>
        <time>2020-01-09T06:39:53Z</time>
      </trkpt>
      <trkpt lat="59.320035" lon="18.070707">
        <ele>31</ele>
        <time>2020-01-09T06:39:54Z</time>
      </trkpt>
      <trkpt lat="59.320059" lon="18.070743">
        <ele>31</ele>
        <time>2020-01-09T06:39:55Z</time>
      </trkpt>
      <trkpt lat="59.320085" lon="18.070779">
        <ele>31</ele>
        <time>2020-01-09T06:39:56Z</time>
      </trkpt>
      <trkpt lat="59.320109" lon="18.070816">
        <ele>30</ele>
        <time>2020-01-09T06:39:57Z</time>
      </trkpt>
      <trkpt lat="59.32013" lon="18.070855">
        <ele>30</ele>
        <time>2020-01-09T06:39:58Z</time>
      </trkpt>
      <trkpt lat="59.320151" lon="18.070896">
        <ele>30</ele>
        <time>2020-01-09T06:39:59Z</time>
      </trkpt>
      <trkpt lat="59.320172" lon="18.070931">
        <ele>30</ele>
        <time>2020-01-09T06:40:00Z</time>
      </trkpt>
      <trkpt lat="59.320194" lon="18.070961">
        <ele>29</ele>
        <time>2020-01-09T06:40:01Z</time>
      </trkpt>
      <trkpt lat="59.320218" lon="18.070988">
        <ele>29</ele>
        <time>2020-01-09T06:40:01Z</time>
      </trkpt>
      <trkpt lat="59.320241" lon="18.071011">
        <ele>29</ele>
        <time>2020-01-09T06:40:02Z</time>
      </trkpt>
      <trkpt lat="59.320266" lon="18.071034">
        <ele>28</ele>
        <time>2020-01-09T06:40:04Z</time>
      </trkpt>
      <trkpt lat="59.320288" lon="18.07106">
        <ele>0</ele>
        <time>2020-01-09T06:40:04Z</time>
      </trkpt>
      <trkpt lat="59.320302" lon="18.0711">
        <ele>28</ele>
        <time>2020-01-09T06:40:05Z</time>
      </trkpt>
      <trkpt lat="59.320306" lon="18.071153">
        <ele>27</ele>
        <time>2020-01-09T06:40:07Z</time>
      </trkpt>
      <trkpt lat="59.320305" lon="18.071205">
        <ele>26</ele>
        <time>2020-01-09T06:40:08Z</time>
      </trkpt>
      <trkpt lat="59.32031" lon="18.071251">
        <ele>26</ele>
        <time>2020-01-09T06:40:09Z</time>
      </trkpt>
      <trkpt lat="59.320324" lon="18.071298">
        <ele>26</ele>
        <time>2020-01-09T06:40:10Z</time>
      </trkpt>
      <trkpt lat="59.320343" lon="18.071343">
        <ele>25</ele>
        <time>2020-01-09T06:40:11Z</time>
      </trkpt>
      <trkpt lat="59.320361" lon="18.071381">
        <ele>25</ele>
        <time>2020-01-09T06:40:12Z</time>
      </trkpt>
      <trkpt lat="59.320382" lon="18.071413">
        <ele>24</ele>
        <time>2020-01-09T06:40:13Z</time>
      </trkpt>
      <trkpt lat="59.320404" lon="18.071437">
        <ele>24</ele>
        <time>2020-01-09T06:40:14Z</time>
      </trkpt>
      <trkpt lat="59.320428" lon="18.071457">
        <ele>24</ele>
        <time>2020-01-09T06:40:15Z</time>
      </trkpt>
      <trkpt lat="59.320454" lon="18.071471">
        <ele>23</ele>
        <time>2020-01-09T06:40:16Z</time>
      </trkpt>
      <trkpt lat="59.32048" lon="18.071483">
        <ele>23</ele>
        <time>2020-01-09T06:40:17Z</time>
      </trkpt>
      <trkpt lat="59.320507" lon="18.071495">
        <ele>23</ele>
        <time>2020-01-09T06:40:18Z</time>
      </trkpt>
      <trkpt lat="59.320533" lon="18.071501">
        <ele>22</ele>
        <time>2020-01-09T06:40:19Z</time>
      </trkpt>
      <trkpt lat="59.320558" lon="18.071502">
        <ele>22</ele>
        <time>2020-01-09T06:40:20Z</time>
      </trkpt>
      <trkpt lat="59.320584" lon="18.071504">
        <ele>0</ele>
        <time>2020-01-09T06:40:20Z</time>
      </trkpt>
      <trkpt lat="59.320612" lon="18.071505">
        <ele>22</ele>
        <time>2020-01-09T06:40:21Z</time>
      </trkpt>
      <trkpt lat="59.320638" lon="18.071509">
        <ele>21</ele>
        <time>2020-01-09T06:40:23Z</time>
      </trkpt>
      <trkpt lat="59.320665" lon="18.071518">
        <ele>0</ele>
        <time>2020-01-09T06:40:23Z</time>
      </trkpt>
      <trkpt lat="59.32069" lon="18.071528">
        <ele>21</ele>
        <time>2020-01-09T06:40:24Z</time>
      </trkpt>
      <trkpt lat="59.320718" lon="18.071539">
        <ele>20</ele>
        <time>2020-01-09T06:40:26Z</time>
      </trkpt>
      <trkpt lat="59.320742" lon="18.071557">
        <ele>20</ele>
        <time>2020-01-09T06:40:27Z</time>
      </trkpt>
      <trkpt lat="59.320766" lon="18.071585">
        <ele>20</ele>
        <time>2020-01-09T06:40:28Z</time>
      </trkpt>
      <trkpt lat="59.320788" lon="18.071622">
        <ele>19</ele>
        <time>2020-01-09T06:40:29Z</time>
      </trkpt>
      <trkpt lat="59.320806" lon="18.071664">
        <ele>19</ele>
        <time>2020-01-09T06:40:30Z</time>
      </trkpt>
      <trkpt lat="59.320822" lon="18.071713">
        <ele>19</ele>
        <time>2020-01-09T06:40:31Z</time>
      </trkpt>
      <trkpt lat="59.320835" lon="18.071761">
        <ele>19</ele>
        <time>2020-01-09T06:40:32Z</time>
      </trkpt>
      <trkpt lat="59.320848" lon="18.071812">
        <ele>19</ele>
        <time>2020-01-09T06:40:33Z</time>
      </trkpt>
      <trkpt lat="59.32086" lon="18.071864">
        <ele>19</ele>
        <time>2020-01-09T06:40:34Z</time>
      </trkpt>
      <trkpt lat="59.320871" lon="18.071917">
        <ele>18</ele>
        <time>2020-01-09T06:40:35Z</time>
      </trkpt>
      <trkpt lat="59.320882" lon="18.07197">
        <ele>18</ele>
        <time>2020-01-09T06:40:36Z</time>
      </trkpt>
      <trkpt lat="59.320894" lon="18.072021">
        <ele>18</ele>
        <time>2020-01-09T06:40:37Z</time>
      </trkpt>
      <trkpt lat="59.320909" lon="18.072068">
        <ele>18</ele>
        <time>2020-01-09T06:40:38Z</time>
      </trkpt>
      <trkpt lat="59.320924" lon="18.072107">
        <ele>18</ele>
        <time>2020-01-09T06:40:39Z</time>
      </trkpt>
      <trkpt lat="59.320943" lon="18.072144">
        <ele>0</ele>
        <time>2020-01-09T06:40:39Z</time>
      </trkpt>
      <trkpt lat="59.320966" lon="18.072173">
        <ele>18</ele>
        <time>2020-01-09T06:40:40Z</time>
      </trkpt>
      <trkpt lat="59.320989" lon="18.072196">
        <ele>0</ele>
        <time>2020-01-09T06:40:41Z</time>
      </trkpt>
      <trkpt lat="59.321014" lon="18.072215">
        <ele>18</ele>
        <time>2020-01-09T06:40:42Z</time>
      </trkpt>
      <trkpt lat="59.32104" lon="18.072234">
        <ele>17</ele>
        <time>2020-01-09T06:40:44Z</time>
      </trkpt>
      <trkpt lat="59.321064" lon="18.072253">
        <ele>17</ele>
        <time>2020-01-09T06:40:45Z</time>
      </trkpt>
      <trkpt lat="59.32109" lon="18.07227">
        <ele>17</ele>
        <time>2020-01-09T06:40:46Z</time>
      </trkpt>
      <trkpt lat="59.321113" lon="18.072289">
        <ele>17</ele>
        <time>2020-01-09T06:40:47Z</time>
      </trkpt>
      <trkpt lat="59.32114" lon="18.072308">
        <ele>16</ele>
        <time>2020-01-09T06:40:48Z</time>
      </trkpt>
      <trkpt lat="59.321167" lon="18.072326">
        <ele>16</ele>
        <time>2020-01-09T06:40:49Z</time>
      </trkpt>
      <trkpt lat="59.321195" lon="18.072343">
        <ele>16</ele>
        <time>2020-01-09T06:40:50Z</time>
      </trkpt>
      <trkpt lat="59.321221" lon="18.072363">
        <ele>16</ele>
        <time>2020-01-09T06:40:51Z</time>
      </trkpt>
      <trkpt lat="59.321248" lon="18.072382">
        <ele>15</ele>
        <time>2020-01-09T06:40:52Z</time>
      </trkpt>
      <trkpt lat="59.321275" lon="18.072399">
        <ele>15</ele>
        <time>2020-01-09T06:40:53Z</time>
      </trkpt>
      <trkpt lat="59.321304" lon="18.072415">
        <ele>15</ele>
        <time>2020-01-09T06:40:54Z</time>
      </trkpt>
      <trkpt lat="59.32133" lon="18.072435">
        <ele>15</ele>
        <time>2020-01-09T06:40:55Z</time>
      </trkpt>
      <trkpt lat="59.321356" lon="18.072457">
        <ele>15</ele>
        <time>2020-01-09T06:40:56Z</time>
      </trkpt>
      <trkpt lat="59.321382" lon="18.072479">
        <ele>14</ele>
        <time>2020-01-09T06:40:57Z</time>
      </trkpt>
      <trkpt lat="59.321407" lon="18.072498">
        <ele>14</ele>
        <time>2020-01-09T06:40:58Z</time>
      </trkpt>
      <trkpt lat="59.321434" lon="18.072515">
        <ele>0</ele>
        <time>2020-01-09T06:40:58Z</time>
      </trkpt>
      <trkpt lat="59.321459" lon="18.072533">
        <ele>14</ele>
        <time>2020-01-09T06:40:59Z</time>
      </trkpt>
      <trkpt lat="59.321485" lon="18.072549">
        <ele>14</ele>
        <time>2020-01-09T06:41:00Z</time>
      </trkpt>
      <trkpt lat="59.321512" lon="18.072566">
        <ele>13</ele>
        <time>2020-01-09T06:41:02Z</time>
      </trkpt>
      <trkpt lat="59.321537" lon="18.07258">
        <ele>13</ele>
        <time>2020-01-09T06:41:03Z</time>
      </trkpt>
      <trkpt lat="59.321564" lon="18.072598">
        <ele>13</ele>
        <time>2020-01-09T06:41:04Z</time>
      </trkpt>
      <trkpt lat="59.321588" lon="18.072618">
        <ele>13</ele>
        <time>2020-01-09T06:41:05Z</time>
      </trkpt>
      <trkpt lat="59.321614" lon="18.072636">
        <ele>13</ele>
        <time>2020-01-09T06:41:06Z</time>
      </trkpt>
      <trkpt lat="59.321637" lon="18.072653">
        <ele>13</ele>
        <time>2020-01-09T06:41:07Z</time>
      </trkpt>
      <trkpt lat="59.321662" lon="18.07267">
        <ele>12</ele>
        <time>2020-01-09T06:41:08Z</time>
      </trkpt>
      <trkpt lat="59.321684" lon="18.072684">
        <ele>12</ele>
        <time>2020-01-09T06:41:09Z</time>
      </trkpt>
      <trkpt lat="59.321708" lon="18.072696">
        <ele>12</ele>
        <time>2020-01-09T06:41:10Z</time>
      </trkpt>
      <trkpt lat="59.321738" lon="18.072711">
        <ele>12</ele>
        <time>2020-01-09T06:41:11Z</time>
      </trkpt>
      <trkpt lat="59.321763" lon="18.072728">
        <ele>12</ele>
        <time>2020-01-09T06:41:12Z</time>
      </trkpt>
      <trkpt lat="59.321788" lon="18.072743">
        <ele>12</ele>
        <time>2020-01-09T06:41:13Z</time>
      </trkpt>
      <trkpt lat="59.321814" lon="18.072756">
        <ele>12</ele>
        <time>2020-01-09T06:41:14Z</time>
      </trkpt>
      <trkpt lat="59.321838" lon="18.072764">
        <ele>11</ele>
        <time>2020-01-09T06:41:15Z</time>
      </trkpt>
      <trkpt lat="59.321865" lon="18.07277">
        <ele>11</ele>
        <time>2020-01-09T06:41:16Z</time>
      </trkpt>
      <trkpt lat="59.32189" lon="18.072786">
        <ele>11</ele>
        <time>2020-01-09T06:41:17Z</time>
      </trkpt>
      <trkpt lat="59.321916" lon="18.07281">
        <ele>0</ele>
        <time>2020-01-09T06:41:17Z</time>
      </trkpt>
      <trkpt lat="59.321941" lon="18.072835">
        <ele>11</ele>
        <time>2020-01-09T06:41:18Z</time>
      </trkpt>
      <trkpt lat="59.32199" lon="18.072882">
        <ele>11</ele>
        <time>2020-01-09T06:41:21Z</time>
      </trkpt>
      <trkpt lat="59.322011" lon="18.072908">
        <ele>11</ele>
        <time>2020-01-09T06:41:22Z</time>
      </trkpt>
      <trkpt lat="59.322028" lon="18.072938">
        <ele>11</ele>
        <time>2020-01-09T06:41:23Z</time>
      </trkpt>
      <trkpt lat="59.322042" lon="18.072972">
        <ele>11</ele>
        <time>2020-01-09T06:41:24Z</time>
      </trkpt>
      <trkpt lat="59.322038" lon="18.073035">
        <ele>11</ele>
        <time>2020-01-09T06:41:26Z</time>
      </trkpt>
      <trkpt lat="59.32203" lon="18.073075">
        <ele>11</ele>
        <time>2020-01-09T06:41:27Z</time>
      </trkpt>
      <trkpt lat="59.322016" lon="18.07311">
        <ele>12</ele>
        <time>2020-01-09T06:41:28Z</time>
      </trkpt>
      <trkpt lat="59.32201" lon="18.073144">
        <ele>12</ele>
        <time>2020-01-09T06:41:29Z</time>
      </trkpt>
      <trkpt lat="59.322" lon="18.073175">
        <ele>12</ele>
        <time>2020-01-09T06:41:30Z</time>
      </trkpt>
      <trkpt lat="59.321988" lon="18.073216">
        <ele>12</ele>
        <time>2020-01-09T06:41:31Z</time>
      </trkpt>
      <trkpt lat="59.321976" lon="18.07326">
        <ele>12</ele>
        <time>2020-01-09T06:41:32Z</time>
      </trkpt>
      <trkpt lat="59.321966" lon="18.07331">
        <ele>12</ele>
        <time>2020-01-09T06:41:33Z</time>
      </trkpt>
      <trkpt lat="59.321954" lon="18.073355">
        <ele>12</ele>
        <time>2020-01-09T06:41:34Z</time>
      </trkpt>
      <trkpt lat="59.321941" lon="18.0734">
        <ele>12</ele>
        <time>2020-01-09T06:41:35Z</time>
      </trkpt>
      <trkpt lat="59.321932" lon="18.073454">
        <ele>12</ele>
        <time>2020-01-09T06:41:36Z</time>
      </trkpt>
      <trkpt lat="59.321926" lon="18.073506">
        <ele>0</ele>
        <time>2020-01-09T06:41:36Z</time>
      </trkpt>
      <trkpt lat="59.321918" lon="18.073562">
        <ele>12</ele>
        <time>2020-01-09T06:41:37Z</time>
      </trkpt>
      <trkpt lat="59.321915" lon="18.073626">
        <ele>0</ele>
        <time>2020-01-09T06:41:38Z</time>
      </trkpt>
      <trkpt lat="59.321912" lon="18.07369">
        <ele>12</ele>
        <time>2020-01-09T06:41:39Z</time>
      </trkpt>
      <trkpt lat="59.321926" lon="18.073752">
        <ele>10</ele>
        <time>2020-01-09T06:41:41Z</time>
      </trkpt>
      <trkpt lat="59.321956" lon="18.073788">
        <ele>10</ele>
        <time>2020-01-09T06:41:42Z</time>
      </trkpt>
      <trkpt lat="59.321986" lon="18.073818">
        <ele>9</ele>
        <time>2020-01-09T06:41:43Z</time>
      </trkpt>
      <trkpt lat="59.322014" lon="18.07385">
        <ele>9</ele>
        <time>2020-01-09T06:41:44Z</time>
      </trkpt>
      <trkpt lat="59.322044" lon="18.073882">
        <ele>9</ele>
        <time>2020-01-09T06:41:45Z</time>
      </trkpt>
      <trkpt lat="59.322073" lon="18.073904">
        <ele>8</ele>
        <time>2020-01-09T06:41:46Z</time>
      </trkpt>
      <trkpt lat="59.322092" lon="18.073963">
        <ele>7</ele>
        <time>2020-01-09T06:41:47Z</time>
      </trkpt>
      <trkpt lat="59.322118" lon="18.073998">
        <ele>7</ele>
        <time>2020-01-09T06:41:48Z</time>
      </trkpt>
      <trkpt lat="59.322142" lon="18.07403">
        <ele>7</ele>
        <time>2020-01-09T06:41:49Z</time>
      </trkpt>
      <trkpt lat="59.322167" lon="18.074052">
        <ele>7</ele>
        <time>2020-01-09T06:41:50Z</time>
      </trkpt>
      <trkpt lat="59.32219" lon="18.074072">
        <ele>7</ele>
        <time>2020-01-09T06:41:51Z</time>
      </trkpt>
      <trkpt lat="59.322219" lon="18.074092">
        <ele>6</ele>
        <time>2020-01-09T06:41:52Z</time>
      </trkpt>
      <trkpt lat="59.322245" lon="18.074114">
        <ele>6</ele>
        <time>2020-01-09T06:41:53Z</time>
      </trkpt>
      <trkpt lat="59.322269" lon="18.07414">
        <ele>6</ele>
        <time>2020-01-09T06:41:54Z</time>
      </trkpt>
      <trkpt lat="59.322288" lon="18.074172">
        <ele>0</ele>
        <time>2020-01-09T06:41:54Z</time>
      </trkpt>
      <trkpt lat="59.32231" lon="18.074202">
        <ele>6</ele>
        <time>2020-01-09T06:41:55Z</time>
      </trkpt>
      <trkpt lat="59.322337" lon="18.074222">
        <ele>5</ele>
        <time>2020-01-09T06:41:56Z</time>
      </trkpt>
      <trkpt lat="59.322362" lon="18.074243">
        <ele>5</ele>
        <time>2020-01-09T06:41:58Z</time>
      </trkpt>
      <trkpt lat="59.322384" lon="18.074268">
        <ele>5</ele>
        <time>2020-01-09T06:41:59Z</time>
      </trkpt>
      <trkpt lat="59.322408" lon="18.074284">
        <ele>5</ele>
        <time>2020-01-09T06:42:00Z</time>
      </trkpt>
      <trkpt lat="59.322434" lon="18.074298">
        <ele>5</ele>
        <time>2020-01-09T06:42:01Z</time>
      </trkpt>
      <trkpt lat="59.322461" lon="18.074311">
        <ele>4</ele>
        <time>2020-01-09T06:42:02Z</time>
      </trkpt>
      <trkpt lat="59.322488" lon="18.074324">
        <ele>4</ele>
        <time>2020-01-09T06:42:03Z</time>
      </trkpt>
      <trkpt lat="59.322513" lon="18.074337">
        <ele>4</ele>
        <time>2020-01-09T06:42:04Z</time>
      </trkpt>
      <trkpt lat="59.322538" lon="18.074354">
        <ele>4</ele>
        <time>2020-01-09T06:42:05Z</time>
      </trkpt>
      <trkpt lat="59.322562" lon="18.074369">
        <ele>4</ele>
        <time>2020-01-09T06:42:06Z</time>
      </trkpt>
      <trkpt lat="59.322589" lon="18.07438">
        <ele>4</ele>
        <time>2020-01-09T06:42:07Z</time>
      </trkpt>
      <trkpt lat="59.322614" lon="18.074393">
        <ele>4</ele>
        <time>2020-01-09T06:42:08Z</time>
      </trkpt>
      <trkpt lat="59.322634" lon="18.074425">
        <ele>3</ele>
        <time>2020-01-09T06:42:09Z</time>
      </trkpt>
      <trkpt lat="59.322657" lon="18.074456">
        <ele>3</ele>
        <time>2020-01-09T06:42:10Z</time>
      </trkpt>
      <trkpt lat="59.322681" lon="18.074482">
        <ele>3</ele>
        <time>2020-01-09T06:42:11Z</time>
      </trkpt>
      <trkpt lat="59.322706" lon="18.074505">
        <ele>3</ele>
        <time>2020-01-09T06:42:12Z</time>
      </trkpt>
      <trkpt lat="59.32273" lon="18.074525">
        <ele>3</ele>
        <time>2020-01-09T06:42:13Z</time>
      </trkpt>
      <trkpt lat="59.32275" lon="18.074556">
        <ele>0</ele>
        <time>2020-01-09T06:42:13Z</time>
      </trkpt>
      <trkpt lat="59.322772" lon="18.074586">
        <ele>2</ele>
        <time>2020-01-09T06:42:14Z</time>
      </trkpt>
      <trkpt lat="59.322792" lon="18.074614">
        <ele>2</ele>
        <time>2020-01-09T06:42:15Z</time>
      </trkpt>
      <trkpt lat="59.322813" lon="18.074647">
        <ele>2</ele>
        <time>2020-01-09T06:42:17Z</time>
      </trkpt>
      <trkpt lat="59.322835" lon="18.074672">
        <ele>2</ele>
        <time>2020-01-09T06:42:18Z</time>
      </trkpt>
      <trkpt lat="59.32286" lon="18.074688">
        <ele>2</ele>
        <time>2020-01-09T06:42:19Z</time>
      </trkpt>
      <trkpt lat="59.322879" lon="18.074724">
        <ele>2</ele>
        <time>2020-01-09T06:42:20Z</time>
      </trkpt>
      <trkpt lat="59.322897" lon="18.074752">
        <ele>2</ele>
        <time>2020-01-09T06:42:21Z</time>
      </trkpt>
      <trkpt lat="59.322919" lon="18.074776">
        <ele>2</ele>
        <time>2020-01-09T06:42:22Z</time>
      </trkpt>
      <trkpt lat="59.322943" lon="18.074798">
        <ele>2</ele>
        <time>2020-01-09T06:42:23Z</time>
      </trkpt>
      <trkpt lat="59.322966" lon="18.074823">
        <ele>1</ele>
        <time>2020-01-09T06:42:24Z</time>
      </trkpt>
      <trkpt lat="59.322987" lon="18.074845">
        <ele>1</ele>
        <time>2020-01-09T06:42:25Z</time>
      </trkpt>
      <trkpt lat="59.32301" lon="18.07486">
        <ele>1</ele>
        <time>2020-01-09T06:42:26Z</time>
      </trkpt>
      <trkpt lat="59.32303" lon="18.074879">
        <ele>1</ele>
        <time>2020-01-09T06:42:27Z</time>
      </trkpt>
      <trkpt lat="59.323051" lon="18.074898">
        <ele>1</ele>
        <time>2020-01-09T06:42:28Z</time>
      </trkpt>
      <trkpt lat="59.32307" lon="18.074926">
        <ele>1</ele>
        <time>2020-01-09T06:42:29Z</time>
      </trkpt>
      <trkpt lat="59.323092" lon="18.074945">
        <ele>1</ele>
        <time>2020-01-09T06:42:30Z</time>
      </trkpt>
      <trkpt lat="59.323114" lon="18.074954">
        <ele>1</ele>
        <time>2020-01-09T06:42:31Z</time>
      </trkpt>
      <trkpt lat="59.323139" lon="18.074966">
        <ele>1</ele>
        <time>2020-01-09T06:42:32Z</time>
      </trkpt>
      <trkpt lat="59.32316" lon="18.074986">
        <ele>1</ele>
        <time>2020-01-09T06:42:33Z</time>
      </trkpt>
      <trkpt lat="59.323178" lon="18.074997">
        <ele>0</ele>
        <time>2020-01-09T06:42:33Z</time>
      </trkpt>
      <trkpt lat="59.323199" lon="18.074998">
        <ele>1</ele>
        <time>2020-01-09T06:42:34Z</time>
      </trkpt>
      <trkpt lat="59.323223" lon="18.075002">
        <ele>1</ele>
        <time>2020-01-09T06:42:35Z</time>
      </trkpt>
      <trkpt lat="59.323247" lon="18.075012">
        <ele>1</ele>
        <time>2020-01-09T06:42:37Z</time>
      </trkpt>
      <trkpt lat="59.323273" lon="18.075027">
        <ele>1</ele>
        <time>2020-01-09T06:42:38Z</time>
      </trkpt>
      <trkpt lat="59.323297" lon="18.075045">
        <ele>0</ele>
        <time>2020-01-09T06:42:39Z</time>
      </trkpt>
      <trkpt lat="59.323324" lon="18.075055">
        <ele>0</ele>
        <time>2020-01-09T06:42:40Z</time>
      </trkpt>
      <trkpt lat="59.323346" lon="18.075072">
        <ele>0</ele>
        <time>2020-01-09T06:42:41Z</time>
      </trkpt>
      <trkpt lat="59.323371" lon="18.075084">
        <ele>0</ele>
        <time>2020-01-09T06:42:42Z</time>
      </trkpt>
      <trkpt lat="59.323398" lon="18.075088">
        <ele>0</ele>
        <time>2020-01-09T06:42:43Z</time>
      </trkpt>
      <trkpt lat="59.323427" lon="18.075094">
        <ele>0</ele>
        <time>2020-01-09T06:42:44Z</time>
      </trkpt>
      <trkpt lat="59.323457" lon="18.075101">
        <ele>0</ele>
        <time>2020-01-09T06:42:45Z</time>
      </trkpt>
      <trkpt lat="59.323486" lon="18.075102">
        <ele>0</ele>
        <time>2020-01-09T06:42:46Z</time>
      </trkpt>
      <trkpt lat="59.323514" lon="18.075104">
        <ele>0</ele>
        <time>2020-01-09T06:42:47Z</time>
      </trkpt>
      <trkpt lat="59.32354" lon="18.075112">
        <ele>0</ele>
        <time>2020-01-09T06:42:48Z</time>
      </trkpt>
      <trkpt lat="59.323568" lon="18.075122">
        <ele>0</ele>
        <time>2020-01-09T06:42:49Z</time>
      </trkpt>
      <trkpt lat="59.323593" lon="18.075138">
        <ele>0</ele>
        <time>2020-01-09T06:42:50Z</time>
      </trkpt>
      <trkpt lat="59.323618" lon="18.075154">
        <ele>0</ele>
        <time>2020-01-09T06:42:51Z</time>
      </trkpt>
      <trkpt lat="59.323645" lon="18.075167">
        <ele>0</ele>
        <time>2020-01-09T06:42:52Z</time>
      </trkpt>
      <trkpt lat="59.323674" lon="18.075163">
        <ele>0</ele>
        <time>2020-01-09T06:42:52Z</time>
      </trkpt>
      <trkpt lat="59.323699" lon="18.075172">
        <ele>1</ele>
        <time>2020-01-09T06:42:53Z</time>
      </trkpt>
      <trkpt lat="59.323723" lon="18.075184">
        <ele>1</ele>
        <time>2020-01-09T06:42:55Z</time>
      </trkpt>
      <trkpt lat="59.323747" lon="18.075195">
        <ele>0</ele>
        <time>2020-01-09T06:42:56Z</time>
      </trkpt>
      <trkpt lat="59.323772" lon="18.075202">
        <ele>0</ele>
        <time>2020-01-09T06:42:57Z</time>
      </trkpt>
      <trkpt lat="59.323795" lon="18.075213">
        <ele>0</ele>
        <time>2020-01-09T06:42:58Z</time>
      </trkpt>
      <trkpt lat="59.323818" lon="18.07523">
        <ele>0</ele>
        <time>2020-01-09T06:42:59Z</time>
      </trkpt>
      <trkpt lat="59.32384" lon="18.075252">
        <ele>0</ele>
        <time>2020-01-09T06:43:00Z</time>
      </trkpt>
      <trkpt lat="59.323862" lon="18.075259">
        <ele>0</ele>
        <time>2020-01-09T06:43:01Z</time>
      </trkpt>
      <trkpt lat="59.323886" lon="18.075263">
        <ele>0</ele>
        <time>2020-01-09T06:43:02Z</time>
      </trkpt>
      <trkpt lat="59.323916" lon="18.075264">
        <ele>0</ele>
        <time>2020-01-09T06:43:03Z</time>
      </trkpt>
      <trkpt lat="59.323944" lon="18.075255">
        <ele>0</ele>
        <time>2020-01-09T06:43:04Z</time>
      </trkpt>
      <trkpt lat="59.323964" lon="18.075267">
        <ele>0</ele>
        <time>2020-01-09T06:43:05Z</time>
      </trkpt>
      <trkpt lat="59.323984" lon="18.075279">
        <ele>0</ele>
        <time>2020-01-09T06:43:06Z</time>
      </trkpt>
      <trkpt lat="59.324008" lon="18.075289">
        <ele>0</ele>
        <time>2020-01-09T06:43:07Z</time>
      </trkpt>
      <trkpt lat="59.324033" lon="18.075298">
        <ele>0</ele>
        <time>2020-01-09T06:43:08Z</time>
      </trkpt>
      <trkpt lat="59.324056" lon="18.075306">
        <ele>0</ele>
        <time>2020-01-09T06:43:09Z</time>
      </trkpt>
      <trkpt lat="59.324079" lon="18.075321">
        <ele>0</ele>
        <time>2020-01-09T06:43:10Z</time>
      </trkpt>
      <trkpt lat="59.324102" lon="18.075329">
        <ele>0</ele>
        <time>2020-01-09T06:43:10Z</time>
      </trkpt>
      <trkpt lat="59.324129" lon="18.075322">
        <ele>0</ele>
        <time>2020-01-09T06:43:11Z</time>
      </trkpt>
      <trkpt lat="59.324158" lon="18.075314">
        <ele>0</ele>
        <time>2020-01-09T06:43:12Z</time>
      </trkpt>
      <trkpt lat="59.324183" lon="18.07532">
        <ele>0</ele>
        <time>2020-01-09T06:43:14Z</time>
      </trkpt>
      <trkpt lat="59.32421" lon="18.075326">
        <ele>0</ele>
        <time>2020-01-09T06:43:15Z</time>
      </trkpt>
      <trkpt lat="59.324235" lon="18.075332">
        <ele>0</ele>
        <time>2020-01-09T06:43:16Z</time>
      </trkpt>
      <trkpt lat="59.324261" lon="18.075338">
        <ele>0</ele>
        <time>2020-01-09T06:43:17Z</time>
      </trkpt>
      <trkpt lat="59.324284" lon="18.075348">
        <ele>0</ele>
        <time>2020-01-09T06:43:18Z</time>
      </trkpt>
      <trkpt lat="59.324309" lon="18.075354">
        <ele>0</ele>
        <time>2020-01-09T06:43:19Z</time>
      </trkpt>
      <trkpt lat="59.324335" lon="18.075353">
        <ele>0</ele>
        <time>2020-01-09T06:43:20Z</time>
      </trkpt>
      <trkpt lat="59.324359" lon="18.075353">
        <ele>0</ele>
        <time>2020-01-09T06:43:21Z</time>
      </trkpt>
      <trkpt lat="59.324382" lon="18.075362">
        <ele>0</ele>
        <time>2020-01-09T06:43:22Z</time>
      </trkpt>
      <trkpt lat="59.324404" lon="18.075375">
        <ele>0</ele>
        <time>2020-01-09T06:43:23Z</time>
      </trkpt>
      <trkpt lat="59.324426" lon="18.075388">
        <ele>0</ele>
        <time>2020-01-09T06:43:24Z</time>
      </trkpt>
      <trkpt lat="59.324448" lon="18.075404">
        <ele>0</ele>
        <time>2020-01-09T06:43:25Z</time>
      </trkpt>
      <trkpt lat="59.324471" lon="18.075415">
        <ele>1</ele>
        <time>2020-01-09T06:43:26Z</time>
      </trkpt>
      <trkpt lat="59.324497" lon="18.075423">
        <ele>1</ele>
        <time>2020-01-09T06:43:27Z</time>
      </trkpt>
      <trkpt lat="59.324523" lon="18.075428">
        <ele>1</ele>
        <time>2020-01-09T06:43:28Z</time>
      </trkpt>
      <trkpt lat="59.324548" lon="18.075437">
        <ele>1</ele>
        <time>2020-01-09T06:43:29Z</time>
      </trkpt>
      <trkpt lat="59.324575" lon="18.075448">
        <ele>1</ele>
        <time>2020-01-09T06:43:30Z</time>
      </trkpt>
      <trkpt lat="59.324603" lon="18.075461">
        <ele>0</ele>
        <time>2020-01-09T06:43:30Z</time>
      </trkpt>
      <trkpt lat="59.32463" lon="18.075469">
        <ele>1</ele>
        <time>2020-01-09T06:43:31Z</time>
      </trkpt>
      <trkpt lat="59.324681" lon="18.075481">
        <ele>1</ele>
        <time>2020-01-09T06:43:34Z</time>
      </trkpt>
      <trkpt lat="59.324709" lon="18.075483">
        <ele>1</ele>
        <time>2020-01-09T06:43:35Z</time>
      </trkpt>
      <trkpt lat="59.324735" lon="18.075494">
        <ele>1</ele>
        <time>2020-01-09T06:43:36Z</time>
      </trkpt>
      <trkpt lat="59.324763" lon="18.075503">
        <ele>1</ele>
        <time>2020-01-09T06:43:37Z</time>
      </trkpt>
      <trkpt lat="59.324784" lon="18.075525">
        <ele>1</ele>
        <time>2020-01-09T06:43:38Z</time>
      </trkpt>
      <trkpt lat="59.324805" lon="18.075548">
        <ele>1</ele>
        <time>2020-01-09T06:43:39Z</time>
      </trkpt>
      <trkpt lat="59.324827" lon="18.075563">
        <ele>1</ele>
        <time>2020-01-09T06:43:40Z</time>
      </trkpt>
      <trkpt lat="59.324851" lon="18.075571">
        <ele>1</ele>
        <time>2020-01-09T06:43:41Z</time>
      </trkpt>
      <trkpt lat="59.324877" lon="18.075568">
        <ele>2</ele>
        <time>2020-01-09T06:43:42Z</time>
      </trkpt>
      <trkpt lat="59.324905" lon="18.075572">
        <ele>1</ele>
        <time>2020-01-09T06:43:43Z</time>
      </trkpt>
      <trkpt lat="59.324935" lon="18.075571">
        <ele>1</ele>
        <time>2020-01-09T06:43:44Z</time>
      </trkpt>
      <trkpt lat="59.324963" lon="18.07558">
        <ele>2</ele>
        <time>2020-01-09T06:43:45Z</time>
      </trkpt>
      <trkpt lat="59.32499" lon="18.075565">
        <ele>2</ele>
        <time>2020-01-09T06:43:46Z</time>
      </trkpt>
      <trkpt lat="59.325016" lon="18.075554">
        <ele>2</ele>
        <time>2020-01-09T06:43:47Z</time>
      </trkpt>
      <trkpt lat="59.325041" lon="18.075551">
        <ele>2</ele>
        <time>2020-01-09T06:43:48Z</time>
      </trkpt>
      <trkpt lat="59.325066" lon="18.075546">
        <ele>2</ele>
        <time>2020-01-09T06:43:49Z</time>
      </trkpt>
      <trkpt lat="59.325092" lon="18.075537">
        <ele>0</ele>
        <time>2020-01-09T06:43:49Z</time>
      </trkpt>
      <trkpt lat="59.325119" lon="18.075533">
        <ele>1</ele>
        <time>2020-01-09T06:43:50Z</time>
      </trkpt>
      <trkpt lat="59.325142" lon="18.075529">
        <ele>1</ele>
        <time>2020-01-09T06:43:51Z</time>
      </trkpt>
      <trkpt lat="59.325166" lon="18.075523">
        <ele>1</ele>
        <time>2020-01-09T06:43:53Z</time>
      </trkpt>
      <trkpt lat="59.325191" lon="18.075507">
        <ele>1</ele>
        <time>2020-01-09T06:43:54Z</time>
      </trkpt>
      <trkpt lat="59.325217" lon="18.075498">
        <ele>2</ele>
        <time>2020-01-09T06:43:55Z</time>
      </trkpt>
      <trkpt lat="59.325241" lon="18.075492">
        <ele>2</ele>
        <time>2020-01-09T06:43:56Z</time>
      </trkpt>
      <trkpt lat="59.325266" lon="18.075478">
        <ele>1</ele>
        <time>2020-01-09T06:43:57Z</time>
      </trkpt>
      <trkpt lat="59.325291" lon="18.07547">
        <ele>1</ele>
        <time>2020-01-09T06:43:58Z</time>
      </trkpt>
      <trkpt lat="59.325318" lon="18.075473">
        <ele>1</ele>
        <time>2020-01-09T06:43:59Z</time>
      </trkpt>
      <trkpt lat="59.325343" lon="18.075471">
        <ele>1</ele>
        <time>2020-01-09T06:44:00Z</time>
      </trkpt>
      <trkpt lat="59.325369" lon="18.075469">
        <ele>1</ele>
        <time>2020-01-09T06:44:01Z</time>
      </trkpt>
      <trkpt lat="59.325396" lon="18.075472">
        <ele>1</ele>
        <time>2020-01-09T06:44:02Z</time>
      </trkpt>
      <trkpt lat="59.325424" lon="18.075474">
        <ele>1</ele>
        <time>2020-01-09T06:44:03Z</time>
      </trkpt>
      <trkpt lat="59.32545" lon="18.075469">
        <ele>1</ele>
        <time>2020-01-09T06:44:04Z</time>
      </trkpt>
      <trkpt lat="59.32548" lon="18.075474">
        <ele>1</ele>
        <time>2020-01-09T06:44:05Z</time>
      </trkpt>
      <trkpt lat="59.325508" lon="18.075477">
        <ele>1</ele>
        <time>2020-01-09T06:44:06Z</time>
      </trkpt>
      <trkpt lat="59.325536" lon="18.075479">
        <ele>1</ele>
        <time>2020-01-09T06:44:07Z</time>
      </trkpt>
      <trkpt lat="59.325566" lon="18.075508">
        <ele>1</ele>
        <time>2020-01-09T06:44:08Z</time>
      </trkpt>
      <trkpt lat="59.325596" lon="18.075526">
        <ele>0</ele>
        <time>2020-01-09T06:44:08Z</time>
      </trkpt>
      <trkpt lat="59.325622" lon="18.075545">
        <ele>1</ele>
        <time>2020-01-09T06:44:09Z</time>
      </trkpt>
      <trkpt lat="59.325646" lon="18.075563">
        <ele>0</ele>
        <time>2020-01-09T06:44:10Z</time>
      </trkpt>
      <trkpt lat="59.32567" lon="18.075579">
        <ele>1</ele>
        <time>2020-01-09T06:44:11Z</time>
      </trkpt>
      <trkpt lat="59.325692" lon="18.07559">
        <ele>1</ele>
        <time>2020-01-09T06:44:13Z</time>
      </trkpt>
      <trkpt lat="59.325714" lon="18.075617">
        <ele>1</ele>
        <time>2020-01-09T06:44:14Z</time>
      </trkpt>
      <trkpt lat="59.325732" lon="18.075642">
        <ele>1</ele>
        <time>2020-01-09T06:44:15Z</time>
      </trkpt>
      <trkpt lat="59.325752" lon="18.075662">
        <ele>2</ele>
        <time>2020-01-09T06:44:16Z</time>
      </trkpt>
      <trkpt lat="59.325772" lon="18.075683">
        <ele>2</ele>
        <time>2020-01-09T06:44:17Z</time>
      </trkpt>
      <trkpt lat="59.325794" lon="18.075694">
        <ele>2</ele>
        <time>2020-01-09T06:44:18Z</time>
      </trkpt>
      <trkpt lat="59.325821" lon="18.075687">
        <ele>2</ele>
        <time>2020-01-09T06:44:19Z</time>
      </trkpt>
      <trkpt lat="59.325844" lon="18.07566">
        <ele>2</ele>
        <time>2020-01-09T06:44:20Z</time>
      </trkpt>
      <trkpt lat="59.325867" lon="18.075626">
        <ele>2</ele>
        <time>2020-01-09T06:44:21Z</time>
      </trkpt>
      <trkpt lat="59.325889" lon="18.075591">
        <ele>2</ele>
        <time>2020-01-09T06:44:22Z</time>
      </trkpt>
      <trkpt lat="59.325912" lon="18.07556">
        <ele>3</ele>
        <time>2020-01-09T06:44:23Z</time>
      </trkpt>
      <trkpt lat="59.325936" lon="18.075536">
        <ele>3</ele>
        <time>2020-01-09T06:44:24Z</time>
      </trkpt>
      <trkpt lat="59.325959" lon="18.075516">
        <ele>3</ele>
        <time>2020-01-09T06:44:25Z</time>
      </trkpt>
      <trkpt lat="59.325985" lon="18.075499">
        <ele>3</ele>
        <time>2020-01-09T06:44:26Z</time>
      </trkpt>
      <trkpt lat="59.326008" lon="18.075484">
        <ele>3</ele>
        <time>2020-01-09T06:44:27Z</time>
      </trkpt>
      <trkpt lat="59.326032" lon="18.075467">
        <ele>0</ele>
        <time>2020-01-09T06:44:27Z</time>
      </trkpt>
      <trkpt lat="59.326052" lon="18.075449">
        <ele>3</ele>
        <time>2020-01-09T06:44:28Z</time>
      </trkpt>
      <trkpt lat="59.326076" lon="18.075429">
        <ele>0</ele>
        <time>2020-01-09T06:44:29Z</time>
      </trkpt>
      <trkpt lat="59.326097" lon="18.075408">
        <ele>3</ele>
        <time>2020-01-09T06:44:30Z</time>
      </trkpt>
      <trkpt lat="59.326118" lon="18.075388">
        <ele>3</ele>
        <time>2020-01-09T06:44:32Z</time>
      </trkpt>
      <trkpt lat="59.32614" lon="18.075368">
        <ele>4</ele>
        <time>2020-01-09T06:44:33Z</time>
      </trkpt>
      <trkpt lat="59.32616" lon="18.075345">
        <ele>4</ele>
        <time>2020-01-09T06:44:34Z</time>
      </trkpt>
      <trkpt lat="59.32618" lon="18.075318">
        <ele>4</ele>
        <time>2020-01-09T06:44:35Z</time>
      </trkpt>
      <trkpt lat="59.326201" lon="18.075294">
        <ele>4</ele>
        <time>2020-01-09T06:44:36Z</time>
      </trkpt>
      <trkpt lat="59.326222" lon="18.075268">
        <ele>4</ele>
        <time>2020-01-09T06:44:37Z</time>
      </trkpt>
      <trkpt lat="59.326244" lon="18.07524">
        <ele>4</ele>
        <time>2020-01-09T06:44:38Z</time>
      </trkpt>
      <trkpt lat="59.326264" lon="18.075214">
        <ele>4</ele>
        <time>2020-01-09T06:44:39Z</time>
      </trkpt>
      <trkpt lat="59.326285" lon="18.075189">
        <ele>4</ele>
        <time>2020-01-09T06:44:40Z</time>
      </trkpt>
      <trkpt lat="59.326306" lon="18.075167">
        <ele>4</ele>
        <time>2020-01-09T06:44:41Z</time>
      </trkpt>
      <trkpt lat="59.326327" lon="18.075147">
        <ele>4</ele>
        <time>2020-01-09T06:44:42Z</time>
      </trkpt>
      <trkpt lat="59.326347" lon="18.075125">
        <ele>4</ele>
        <time>2020-01-09T06:44:43Z</time>
      </trkpt>
      <trkpt lat="59.326366" lon="18.075101">
        <ele>4</ele>
        <time>2020-01-09T06:44:44Z</time>
      </trkpt>
      <trkpt lat="59.326388" lon="18.075075">
        <ele>4</ele>
        <time>2020-01-09T06:44:45Z</time>
      </trkpt>
      <trkpt lat="59.326409" lon="18.07505">
        <ele>4</ele>
        <time>2020-01-09T06:44:46Z</time>
      </trkpt>
      <trkpt lat="59.326428" lon="18.075023">
        <ele>0</ele>
        <time>2020-01-09T06:44:46Z</time>
      </trkpt>
      <trkpt lat="59.326447" lon="18.074997">
        <ele>4</ele>
        <time>2020-01-09T06:44:47Z</time>
      </trkpt>
      <trkpt lat="59.326466" lon="18.074971">
        <ele>5</ele>
        <time>2020-01-09T06:44:49Z</time>
      </trkpt>
      <trkpt lat="59.326487" lon="18.074946">
        <ele>5</ele>
        <time>2020-01-09T06:44:50Z</time>
      </trkpt>
      <trkpt lat="59.326508" lon="18.074922">
        <ele>0</ele>
        <time>2020-01-09T06:44:50Z</time>
      </trkpt>
      <trkpt lat="59.32653" lon="18.074897">
        <ele>4</ele>
        <time>2020-01-09T06:44:51Z</time>
      </trkpt>
      <trkpt lat="59.326552" lon="18.074875">
        <ele>4</ele>
        <time>2020-01-09T06:44:53Z</time>
      </trkpt>
      <trkpt lat="59.326573" lon="18.074851">
        <ele>5</ele>
        <time>2020-01-09T06:44:54Z</time>
      </trkpt>
      <trkpt lat="59.326595" lon="18.074828">
        <ele>5</ele>
        <time>2020-01-09T06:44:55Z</time>
      </trkpt>
      <trkpt lat="59.326618" lon="18.074807">
        <ele>5</ele>
        <time>2020-01-09T06:44:56Z</time>
      </trkpt>
      <trkpt lat="59.32664" lon="18.074788">
        <ele>5</ele>
        <time>2020-01-09T06:44:57Z</time>
      </trkpt>
      <trkpt lat="59.326664" lon="18.074769">
        <ele>5</ele>
        <time>2020-01-09T06:44:58Z</time>
      </trkpt>
      <trkpt lat="59.326686" lon="18.074748">
        <ele>5</ele>
        <time>2020-01-09T06:44:59Z</time>
      </trkpt>
      <trkpt lat="59.326711" lon="18.074728">
        <ele>5</ele>
        <time>2020-01-09T06:45:00Z</time>
      </trkpt>
      <trkpt lat="59.326733" lon="18.074708">
        <ele>5</ele>
        <time>2020-01-09T06:45:01Z</time>
      </trkpt>
      <trkpt lat="59.326755" lon="18.074688">
        <ele>5</ele>
        <time>2020-01-09T06:45:02Z</time>
      </trkpt>
      <trkpt lat="59.326779" lon="18.074666">
        <ele>5</ele>
        <time>2020-01-09T06:45:03Z</time>
      </trkpt>
      <trkpt lat="59.326801" lon="18.074642">
        <ele>5</ele>
        <time>2020-01-09T06:45:04Z</time>
      </trkpt>
      <trkpt lat="59.326823" lon="18.074619">
        <ele>5</ele>
        <time>2020-01-09T06:45:05Z</time>
      </trkpt>
      <trkpt lat="59.326845" lon="18.074598">
        <ele>0</ele>
        <time>2020-01-09T06:45:05Z</time>
      </trkpt>
      <trkpt lat="59.326868" lon="18.074578">
        <ele>6</ele>
        <time>2020-01-09T06:45:06Z</time>
      </trkpt>
      <trkpt lat="59.326888" lon="18.074553">
        <ele>6</ele>
        <time>2020-01-09T06:45:08Z</time>
      </trkpt>
      <trkpt lat="59.32691" lon="18.074526">
        <ele>6</ele>
        <time>2020-01-09T06:45:09Z</time>
      </trkpt>
      <trkpt lat="59.32693" lon="18.074495">
        <ele>6</ele>
        <time>2020-01-09T06:45:10Z</time>
      </trkpt>
      <trkpt lat="59.326951" lon="18.074466">
        <ele>0</ele>
        <time>2020-01-09T06:45:10Z</time>
      </trkpt>
      <trkpt lat="59.326971" lon="18.074434">
        <ele>6</ele>
        <time>2020-01-09T06:45:11Z</time>
      </trkpt>
      <trkpt lat="59.326993" lon="18.074404">
        <ele>6</ele>
        <time>2020-01-09T06:45:13Z</time>
      </trkpt>
      <trkpt lat="59.327015" lon="18.074378">
        <ele>6</ele>
        <time>2020-01-09T06:45:14Z</time>
      </trkpt>
      <trkpt lat="59.327037" lon="18.07435">
        <ele>6</ele>
        <time>2020-01-09T06:45:15Z</time>
      </trkpt>
      <trkpt lat="59.327059" lon="18.074322">
        <ele>6</ele>
        <time>2020-01-09T06:45:16Z</time>
      </trkpt>
      <trkpt lat="59.327081" lon="18.074292">
        <ele>6</ele>
        <time>2020-01-09T06:45:17Z</time>
      </trkpt>
      <trkpt lat="59.327104" lon="18.074266">
        <ele>6</ele>
        <time>2020-01-09T06:45:18Z</time>
      </trkpt>
      <trkpt lat="59.327127" lon="18.07424">
        <ele>6</ele>
        <time>2020-01-09T06:45:19Z</time>
      </trkpt>
      <trkpt lat="59.32715" lon="18.074214">
        <ele>6</ele>
        <time>2020-01-09T06:45:20Z</time>
      </trkpt>
      <trkpt lat="59.327171" lon="18.074184">
        <ele>6</ele>
        <time>2020-01-09T06:45:21Z</time>
      </trkpt>
      <trkpt lat="59.327192" lon="18.074156">
        <ele>6</ele>
        <time>2020-01-09T06:45:22Z</time>
      </trkpt>
      <trkpt lat="59.327214" lon="18.074129">
        <ele>6</ele>
        <time>2020-01-09T06:45:23Z</time>
      </trkpt>
      <trkpt lat="59.327235" lon="18.074106">
        <ele>6</ele>
        <time>2020-01-09T06:45:24Z</time>
      </trkpt>
      <trkpt lat="59.327256" lon="18.074082">
        <ele>0</ele>
        <time>2020-01-09T06:45:24Z</time>
      </trkpt>
      <trkpt lat="59.327278" lon="18.074058">
        <ele>6</ele>
        <time>2020-01-09T06:45:25Z</time>
      </trkpt>
      <trkpt lat="59.32732" lon="18.074008">
        <ele>6</ele>
        <time>2020-01-09T06:45:28Z</time>
      </trkpt>
      <trkpt lat="59.327341" lon="18.073984">
        <ele>6</ele>
        <time>2020-01-09T06:45:29Z</time>
      </trkpt>
      <trkpt lat="59.327362" lon="18.073958">
        <ele>6</ele>
        <time>2020-01-09T06:45:30Z</time>
      </trkpt>
      <trkpt lat="59.327384" lon="18.073932">
        <ele>0</ele>
        <time>2020-01-09T06:45:30Z</time>
      </trkpt>
      <trkpt lat="59.327402" lon="18.073904">
        <ele>6</ele>
        <time>2020-01-09T06:45:31Z</time>
      </trkpt>
      <trkpt lat="59.327421" lon="18.073874">
        <ele>6</ele>
        <time>2020-01-09T06:45:33Z</time>
      </trkpt>
      <trkpt lat="59.327443" lon="18.073849">
        <ele>6</ele>
        <time>2020-01-09T06:45:34Z</time>
      </trkpt>
      <trkpt lat="59.327463" lon="18.073825">
        <ele>0</ele>
        <time>2020-01-09T06:45:34Z</time>
      </trkpt>
      <trkpt lat="59.327483" lon="18.073802">
        <ele>6</ele>
        <time>2020-01-09T06:45:35Z</time>
      </trkpt>
      <trkpt lat="59.327504" lon="18.073776">
        <ele>6</ele>
        <time>2020-01-09T06:45:37Z</time>
      </trkpt>
      <trkpt lat="59.327525" lon="18.073752">
        <ele>6</ele>
        <time>2020-01-09T06:45:38Z</time>
      </trkpt>
      <trkpt lat="59.327546" lon="18.073728">
        <ele>6</ele>
        <time>2020-01-09T06:45:39Z</time>
      </trkpt>
      <trkpt lat="59.327567" lon="18.073704">
        <ele>6</ele>
        <time>2020-01-09T06:45:40Z</time>
      </trkpt>
      <trkpt lat="59.327589" lon="18.073676">
        <ele>6</ele>
        <time>2020-01-09T06:45:41Z</time>
      </trkpt>
      <trkpt lat="59.327611" lon="18.07365">
        <ele>6</ele>
        <time>2020-01-09T06:45:42Z</time>
      </trkpt>
      <trkpt lat="59.327634" lon="18.073624">
        <ele>6</ele>
        <time>2020-01-09T06:45:43Z</time>
      </trkpt>
      <trkpt lat="59.327655" lon="18.073598">
        <ele>0</ele>
        <time>2020-01-09T06:45:43Z</time>
      </trkpt>
      <trkpt lat="59.327676" lon="18.073572">
        <ele>6</ele>
        <time>2020-01-09T06:45:44Z</time>
      </trkpt>
      <trkpt lat="59.327697" lon="18.073544">
        <ele>6</ele>
        <time>2020-01-09T06:45:46Z</time>
      </trkpt>
      <trkpt lat="59.327719" lon="18.073518">
        <ele>6</ele>
        <time>2020-01-09T06:45:47Z</time>
      </trkpt>
      <trkpt lat="59.327741" lon="18.073494">
        <ele>6</ele>
        <time>2020-01-09T06:45:48Z</time>
      </trkpt>
      <trkpt lat="59.327762" lon="18.07347">
        <ele>6</ele>
        <time>2020-01-09T06:45:49Z</time>
      </trkpt>
      <trkpt lat="59.327784" lon="18.073446">
        <ele>6</ele>
        <time>2020-01-09T06:45:50Z</time>
      </trkpt>
      <trkpt lat="59.327806" lon="18.073417">
        <ele>0</ele>
        <time>2020-01-09T06:45:50Z</time>
      </trkpt>
      <trkpt lat="59.327826" lon="18.073392">
        <ele>6</ele>
        <time>2020-01-09T06:45:51Z</time>
      </trkpt>
      <trkpt lat="59.327848" lon="18.073368">
        <ele>6</ele>
        <time>2020-01-09T06:45:53Z</time>
      </trkpt>
      <trkpt lat="59.32787" lon="18.073344">
        <ele>6</ele>
        <time>2020-01-09T06:45:54Z</time>
      </trkpt>
      <trkpt lat="59.327891" lon="18.07332">
        <ele>6</ele>
        <time>2020-01-09T06:45:55Z</time>
      </trkpt>
      <trkpt lat="59.327912" lon="18.073296">
        <ele>6</ele>
        <time>2020-01-09T06:45:56Z</time>
      </trkpt>
      <trkpt lat="59.327934" lon="18.073274">
        <ele>6</ele>
        <time>2020-01-09T06:45:57Z</time>
      </trkpt>
      <trkpt lat="59.327957" lon="18.073252">
        <ele>6</ele>
        <time>2020-01-09T06:45:58Z</time>
      </trkpt>
      <trkpt lat="59.327981" lon="18.073232">
        <ele>6</ele>
        <time>2020-01-09T06:45:59Z</time>
      </trkpt>
      <trkpt lat="59.328005" lon="18.073213">
        <ele>6</ele>
        <time>2020-01-09T06:46:00Z</time>
      </trkpt>
      <trkpt lat="59.328028" lon="18.073198">
        <ele>6</ele>
        <time>2020-01-09T06:46:01Z</time>
      </trkpt>
      <trkpt lat="59.328051" lon="18.073182">
        <ele>6</ele>
        <time>2020-01-09T06:46:02Z</time>
      </trkpt>
      <trkpt lat="59.328075" lon="18.073169">
        <ele>0</ele>
        <time>2020-01-09T06:46:02Z</time>
      </trkpt>
      <trkpt lat="59.328099" lon="18.073157">
        <ele>6</ele>
        <time>2020-01-09T06:46:03Z</time>
      </trkpt>
      <trkpt lat="59.328124" lon="18.073147">
        <ele>6</ele>
        <time>2020-01-09T06:46:05Z</time>
      </trkpt>
      <trkpt lat="59.328148" lon="18.073135">
        <ele>6</ele>
        <time>2020-01-09T06:46:06Z</time>
      </trkpt>
      <trkpt lat="59.328174" lon="18.073126">
        <ele>6</ele>
        <time>2020-01-09T06:46:07Z</time>
      </trkpt>
      <trkpt lat="59.328201" lon="18.07312">
        <ele>6</ele>
        <time>2020-01-09T06:46:08Z</time>
      </trkpt>
      <trkpt lat="59.328226" lon="18.073118">
        <ele>6</ele>
        <time>2020-01-09T06:46:09Z</time>
      </trkpt>
      <trkpt lat="59.328251" lon="18.073119">
        <ele>6</ele>
        <time>2020-01-09T06:46:10Z</time>
      </trkpt>
      <trkpt lat="59.328276" lon="18.073122">
        <ele>0</ele>
        <time>2020-01-09T06:46:10Z</time>
      </trkpt>
      <trkpt lat="59.328301" lon="18.073128">
        <ele>6</ele>
        <time>2020-01-09T06:46:11Z</time>
      </trkpt>
      <trkpt lat="59.328325" lon="18.073133">
        <ele>6</ele>
        <time>2020-01-09T06:46:13Z</time>
      </trkpt>
      <trkpt lat="59.328351" lon="18.073137">
        <ele>6</ele>
        <time>2020-01-09T06:46:14Z</time>
      </trkpt>
      <trkpt lat="59.328376" lon="18.073143">
        <ele>6</ele>
        <time>2020-01-09T06:46:15Z</time>
      </trkpt>
      <trkpt lat="59.328401" lon="18.073147">
        <ele>6</ele>
        <time>2020-01-09T06:46:16Z</time>
      </trkpt>
      <trkpt lat="59.328426" lon="18.073152">
        <ele>5</ele>
        <time>2020-01-09T06:46:17Z</time>
      </trkpt>
      <trkpt lat="59.32845" lon="18.073153">
        <ele>5</ele>
        <time>2020-01-09T06:46:18Z</time>
      </trkpt>
      <trkpt lat="59.328475" lon="18.073157">
        <ele>5</ele>
        <time>2020-01-09T06:46:19Z</time>
      </trkpt>
      <trkpt lat="59.328501" lon="18.07316">
        <ele>5</ele>
        <time>2020-01-09T06:46:20Z</time>
      </trkpt>
      <trkpt lat="59.328528" lon="18.073167">
        <ele>5</ele>
        <time>2020-01-09T06:46:21Z</time>
      </trkpt>
      <trkpt lat="59.328553" lon="18.073175">
        <ele>0</ele>
        <time>2020-01-09T06:46:21Z</time>
      </trkpt>
      <trkpt lat="59.328579" lon="18.073183">
        <ele>5</ele>
        <time>2020-01-09T06:46:22Z</time>
      </trkpt>
      <trkpt lat="59.328605" lon="18.07319">
        <ele>5</ele>
        <time>2020-01-09T06:46:24Z</time>
      </trkpt>
      <trkpt lat="59.328631" lon="18.073196">
        <ele>5</ele>
        <time>2020-01-09T06:46:25Z</time>
      </trkpt>
      <trkpt lat="59.328657" lon="18.073202">
        <ele>5</ele>
        <time>2020-01-09T06:46:26Z</time>
      </trkpt>
      <trkpt lat="59.328682" lon="18.073206">
        <ele>5</ele>
        <time>2020-01-09T06:46:27Z</time>
      </trkpt>
      <trkpt lat="59.328709" lon="18.07321">
        <ele>5</ele>
        <time>2020-01-09T06:46:28Z</time>
      </trkpt>
      <trkpt lat="59.328736" lon="18.073215">
        <ele>5</ele>
        <time>2020-01-09T06:46:29Z</time>
      </trkpt>
      <trkpt lat="59.328761" lon="18.073221">
        <ele>0</ele>
        <time>2020-01-09T06:46:29Z</time>
      </trkpt>
      <trkpt lat="59.328787" lon="18.073228">
        <ele>5</ele>
        <time>2020-01-09T06:46:30Z</time>
      </trkpt>
      <trkpt lat="59.328812" lon="18.073234">
        <ele>5</ele>
        <time>2020-01-09T06:46:32Z</time>
      </trkpt>
      <trkpt lat="59.328837" lon="18.073241">
        <ele>5</ele>
        <time>2020-01-09T06:46:33Z</time>
      </trkpt>
      <trkpt lat="59.328862" lon="18.07325">
        <ele>5</ele>
        <time>2020-01-09T06:46:34Z</time>
      </trkpt>
      <trkpt lat="59.32889" lon="18.073259">
        <ele>5</ele>
        <time>2020-01-09T06:46:35Z</time>
      </trkpt>
      <trkpt lat="59.328916" lon="18.073266">
        <ele>5</ele>
        <time>2020-01-09T06:46:36Z</time>
      </trkpt>
      <trkpt lat="59.328942" lon="18.073273">
        <ele>4</ele>
        <time>2020-01-09T06:46:37Z</time>
      </trkpt>
      <trkpt lat="59.328968" lon="18.073281">
        <ele>4</ele>
        <time>2020-01-09T06:46:38Z</time>
      </trkpt>
      <trkpt lat="59.328994" lon="18.073287">
        <ele>4</ele>
        <time>2020-01-09T06:46:39Z</time>
      </trkpt>
      <trkpt lat="59.32902" lon="18.073292">
        <ele>4</ele>
        <time>2020-01-09T06:46:40Z</time>
      </trkpt>
      <trkpt lat="59.329045" lon="18.073296">
        <ele>0</ele>
        <time>2020-01-09T06:46:40Z</time>
      </trkpt>
      <trkpt lat="59.32907" lon="18.073302">
        <ele>4</ele>
        <time>2020-01-09T06:46:41Z</time>
      </trkpt>
      <trkpt lat="59.329094" lon="18.07331">
        <ele>4</ele>
        <time>2020-01-09T06:46:43Z</time>
      </trkpt>
      <trkpt lat="59.329119" lon="18.073315">
        <ele>4</ele>
        <time>2020-01-09T06:46:44Z</time>
      </trkpt>
      <trkpt lat="59.329145" lon="18.073319">
        <ele>4</ele>
        <time>2020-01-09T06:46:45Z</time>
      </trkpt>
      <trkpt lat="59.32917" lon="18.073324">
        <ele>4</ele>
        <time>2020-01-09T06:46:46Z</time>
      </trkpt>
      <trkpt lat="59.329195" lon="18.07333">
        <ele>4</ele>
        <time>2020-01-09T06:46:47Z</time>
      </trkpt>
      <trkpt lat="59.32922" lon="18.073337">
        <ele>4</ele>
        <time>2020-01-09T06:46:48Z</time>
      </trkpt>
      <trkpt lat="59.329245" lon="18.073343">
        <ele>4</ele>
        <time>2020-01-09T06:46:49Z</time>
      </trkpt>
      <trkpt lat="59.329271" lon="18.073349">
        <ele>0</ele>
        <time>2020-01-09T06:46:49Z</time>
      </trkpt>
      <trkpt lat="59.329297" lon="18.073356">
        <ele>4</ele>
        <time>2020-01-09T06:46:50Z</time>
      </trkpt>
      <trkpt lat="59.329322" lon="18.073365">
        <ele>4</ele>
        <time>2020-01-09T06:46:52Z</time>
      </trkpt>
      <trkpt lat="59.329347" lon="18.073371">
        <ele>4</ele>
        <time>2020-01-09T06:46:53Z</time>
      </trkpt>
      <trkpt lat="59.329373" lon="18.073379">
        <ele>4</ele>
        <time>2020-01-09T06:46:54Z</time>
      </trkpt>
      <trkpt lat="59.329398" lon="18.073384">
        <ele>4</ele>
        <time>2020-01-09T06:46:55Z</time>
      </trkpt>
      <trkpt lat="59.329424" lon="18.073392">
        <ele>4</ele>
        <time>2020-01-09T06:46:56Z</time>
      </trkpt>
      <trkpt lat="59.329448" lon="18.073401">
        <ele>4</ele>
        <time>2020-01-09T06:46:57Z</time>
      </trkpt>
      <trkpt lat="59.329472" lon="18.073419">
        <ele>4</ele>
        <time>2020-01-09T06:46:58Z</time>
      </trkpt>
      <trkpt lat="59.329492" lon="18.073448">
        <ele>5</ele>
        <time>2020-01-09T06:46:59Z</time>
      </trkpt>
      <trkpt lat="59.329506" lon="18.073478">
        <ele>0</ele>
        <time>2020-01-09T06:46:59Z</time>
      </trkpt>
      <trkpt lat="59.329526" lon="18.073507">
        <ele>5</ele>
        <time>2020-01-09T06:47:00Z</time>
      </trkpt>
      <trkpt lat="59.329548" lon="18.073531">
        <ele>5</ele>
        <time>2020-01-09T06:47:02Z</time>
      </trkpt>
      <trkpt lat="59.329572" lon="18.073552">
        <ele>5</ele>
        <time>2020-01-09T06:47:03Z</time>
      </trkpt>
      <trkpt lat="59.329598" lon="18.073569">
        <ele>5</ele>
        <time>2020-01-09T06:47:04Z</time>
      </trkpt>
      <trkpt lat="59.329623" lon="18.073574">
        <ele>5</ele>
        <time>2020-01-09T06:47:05Z</time>
      </trkpt>
      <trkpt lat="59.329651" lon="18.073572">
        <ele>5</ele>
        <time>2020-01-09T06:47:06Z</time>
      </trkpt>
      <trkpt lat="59.329675" lon="18.073567">
        <ele>5</ele>
        <time>2020-01-09T06:47:07Z</time>
      </trkpt>
      <trkpt lat="59.3297" lon="18.073554">
        <ele>5</ele>
        <time>2020-01-09T06:47:08Z</time>
      </trkpt>
      <trkpt lat="59.329727" lon="18.07354">
        <ele>0</ele>
        <time>2020-01-09T06:47:08Z</time>
      </trkpt>
      <trkpt lat="59.329749" lon="18.073528">
        <ele>5</ele>
        <time>2020-01-09T06:47:09Z</time>
      </trkpt>
      <trkpt lat="59.32977" lon="18.073511">
        <ele>5</ele>
        <time>2020-01-09T06:47:11Z</time>
      </trkpt>
      <trkpt lat="59.329793" lon="18.073493">
        <ele>5</ele>
        <time>2020-01-09T06:47:12Z</time>
      </trkpt>
      <trkpt lat="59.329815" lon="18.073474">
        <ele>5</ele>
        <time>2020-01-09T06:47:13Z</time>
      </trkpt>
      <trkpt lat="59.329837" lon="18.073458">
        <ele>5</ele>
        <time>2020-01-09T06:47:14Z</time>
      </trkpt>
      <trkpt lat="59.329862" lon="18.073443">
        <ele>5</ele>
        <time>2020-01-09T06:47:15Z</time>
      </trkpt>
      <trkpt lat="59.329886" lon="18.073429">
        <ele>6</ele>
        <time>2020-01-09T06:47:16Z</time>
      </trkpt>
      <trkpt lat="59.329908" lon="18.073412">
        <ele>5</ele>
        <time>2020-01-09T06:47:17Z</time>
      </trkpt>
      <trkpt lat="59.329931" lon="18.073395">
        <ele>5</ele>
        <time>2020-01-09T06:47:18Z</time>
      </trkpt>
      <trkpt lat="59.329951" lon="18.073374">
        <ele>0</ele>
        <time>2020-01-09T06:47:18Z</time>
      </trkpt>
      <trkpt lat="59.329972" lon="18.073357">
        <ele>5</ele>
        <time>2020-01-09T06:47:19Z</time>
      </trkpt>
      <trkpt lat="59.329996" lon="18.073337">
        <ele>6</ele>
        <time>2020-01-09T06:47:21Z</time>
      </trkpt>
      <trkpt lat="59.330019" lon="18.073315">
        <ele>6</ele>
        <time>2020-01-09T06:47:22Z</time>
      </trkpt>
      <trkpt lat="59.330045" lon="18.073297">
        <ele>6</ele>
        <time>2020-01-09T06:47:23Z</time>
      </trkpt>
      <trkpt lat="59.330068" lon="18.073275">
        <ele>6</ele>
        <time>2020-01-09T06:47:24Z</time>
      </trkpt>
      <trkpt lat="59.330093" lon="18.073257">
        <ele>6</ele>
        <time>2020-01-09T06:47:25Z</time>
      </trkpt>
      <trkpt lat="59.330116" lon="18.073235">
        <ele>6</ele>
        <time>2020-01-09T06:47:26Z</time>
      </trkpt>
      <trkpt lat="59.330141" lon="18.073217">
        <ele>6</ele>
        <time>2020-01-09T06:47:27Z</time>
      </trkpt>
      <trkpt lat="59.330164" lon="18.073195">
        <ele>6</ele>
        <time>2020-01-09T06:47:28Z</time>
      </trkpt>
      <trkpt lat="59.330187" lon="18.073175">
        <ele>0</ele>
        <time>2020-01-09T06:47:28Z</time>
      </trkpt>
      <trkpt lat="59.330211" lon="18.073158">
        <ele>6</ele>
        <time>2020-01-09T06:47:29Z</time>
      </trkpt>
      <trkpt lat="59.330235" lon="18.073142">
        <ele>6</ele>
        <time>2020-01-09T06:47:31Z</time>
      </trkpt>
      <trkpt lat="59.33026" lon="18.073126">
        <ele>6</ele>
        <time>2020-01-09T06:47:32Z</time>
      </trkpt>
      <trkpt lat="59.330285" lon="18.073113">
        <ele>6</ele>
        <time>2020-01-09T06:47:33Z</time>
      </trkpt>
      <trkpt lat="59.33031" lon="18.073099">
        <ele>6</ele>
        <time>2020-01-09T06:47:34Z</time>
      </trkpt>
      <trkpt lat="59.330335" lon="18.073084">
        <ele>6</ele>
        <time>2020-01-09T06:47:35Z</time>
      </trkpt>
      <trkpt lat="59.330358" lon="18.073068">
        <ele>6</ele>
        <time>2020-01-09T06:47:36Z</time>
      </trkpt>
      <trkpt lat="59.330382" lon="18.073053">
        <ele>6</ele>
        <time>2020-01-09T06:47:37Z</time>
      </trkpt>
      <trkpt lat="59.330405" lon="18.073036">
        <ele>0</ele>
        <time>2020-01-09T06:47:37Z</time>
      </trkpt>
      <trkpt lat="59.330429" lon="18.073016">
        <ele>7</ele>
        <time>2020-01-09T06:47:38Z</time>
      </trkpt>
      <trkpt lat="59.330454" lon="18.072998">
        <ele>7</ele>
        <time>2020-01-09T06:47:40Z</time>
      </trkpt>
      <trkpt lat="59.330478" lon="18.072983">
        <ele>7</ele>
        <time>2020-01-09T06:47:41Z</time>
      </trkpt>
      <trkpt lat="59.3305" lon="18.072969">
        <ele>7</ele>
        <time>2020-01-09T06:47:42Z</time>
      </trkpt>
      <trkpt lat="59.330525" lon="18.072975">
        <ele>7</ele>
        <time>2020-01-09T06:47:43Z</time>
      </trkpt>
      <trkpt lat="59.33055" lon="18.073015">
        <ele>7</ele>
        <time>2020-01-09T06:47:44Z</time>
      </trkpt>
      <trkpt lat="59.330568" lon="18.073057">
        <ele>7</ele>
        <time>2020-01-09T06:47:45Z</time>
      </trkpt>
      <trkpt lat="59.330584" lon="18.073109">
        <ele>7</ele>
        <time>2020-01-09T06:47:46Z</time>
      </trkpt>
      <trkpt lat="59.330598" lon="18.073153">
        <ele>7</ele>
        <time>2020-01-09T06:47:47Z</time>
      </trkpt>
      <trkpt lat="59.330611" lon="18.0732">
        <ele>0</ele>
        <time>2020-01-09T06:47:47Z</time>
      </trkpt>
      <trkpt lat="59.330621" lon="18.073255">
        <ele>7</ele>
        <time>2020-01-09T06:47:48Z</time>
      </trkpt>
      <trkpt lat="59.330631" lon="18.073306">
        <ele>7</ele>
        <time>2020-01-09T06:47:50Z</time>
      </trkpt>
      <trkpt lat="59.330644" lon="18.073356">
        <ele>7</ele>
        <time>2020-01-09T06:47:51Z</time>
      </trkpt>
      <trkpt lat="59.330659" lon="18.073406">
        <ele>7</ele>
        <time>2020-01-09T06:47:52Z</time>
      </trkpt>
      <trkpt lat="59.330673" lon="18.073464">
        <ele>7</ele>
        <time>2020-01-09T06:47:53Z</time>
      </trkpt>
      <trkpt lat="59.330699" lon="18.073507">
        <ele>7</ele>
        <time>2020-01-09T06:47:54Z</time>
      </trkpt>
      <trkpt lat="59.330725" lon="18.073557">
        <ele>8</ele>
        <time>2020-01-09T06:47:55Z</time>
      </trkpt>
      <trkpt lat="59.330798" lon="18.073733">
        <ele>8</ele>
        <time>2020-01-09T06:47:57Z</time>
      </trkpt>
      <trkpt lat="59.330816" lon="18.073783">
        <ele>8</ele>
        <time>2020-01-09T06:47:59Z</time>
      </trkpt>
      <trkpt lat="59.330829" lon="18.07382">
        <ele>8</ele>
        <time>2020-01-09T06:48:00Z</time>
      </trkpt>
      <trkpt lat="59.33084" lon="18.073866">
        <ele>9</ele>
        <time>2020-01-09T06:48:01Z</time>
      </trkpt>
      <trkpt lat="59.330852" lon="18.073908">
        <ele>9</ele>
        <time>2020-01-09T06:48:02Z</time>
      </trkpt>
      <trkpt lat="59.330869" lon="18.073942">
        <ele>9</ele>
        <time>2020-01-09T06:48:03Z</time>
      </trkpt>
      <trkpt lat="59.330878" lon="18.073986">
        <ele>9</ele>
        <time>2020-01-09T06:48:04Z</time>
      </trkpt>
      <trkpt lat="59.33089" lon="18.074028">
        <ele>0</ele>
        <time>2020-01-09T06:48:04Z</time>
      </trkpt>
      <trkpt lat="59.3309" lon="18.074068">
        <ele>9</ele>
        <time>2020-01-09T06:48:05Z</time>
      </trkpt>
      <trkpt lat="59.33091" lon="18.074111">
        <ele>10</ele>
        <time>2020-01-09T06:48:07Z</time>
      </trkpt>
      <trkpt lat="59.330918" lon="18.074161">
        <ele>10</ele>
        <time>2020-01-09T06:48:08Z</time>
      </trkpt>
      <trkpt lat="59.33093" lon="18.074207">
        <ele>10</ele>
        <time>2020-01-09T06:48:09Z</time>
      </trkpt>
      <trkpt lat="59.330941" lon="18.074256">
        <ele>10</ele>
        <time>2020-01-09T06:48:10Z</time>
      </trkpt>
      <trkpt lat="59.330949" lon="18.074297">
        <ele>10</ele>
        <time>2020-01-09T06:48:11Z</time>
      </trkpt>
      <trkpt lat="59.330958" lon="18.074341">
        <ele>10</ele>
        <time>2020-01-09T06:48:12Z</time>
      </trkpt>
      <trkpt lat="59.330963" lon="18.074384">
        <ele>11</ele>
        <time>2020-01-09T06:48:13Z</time>
      </trkpt>
      <trkpt lat="59.330969" lon="18.074422">
        <ele>11</ele>
        <time>2020-01-09T06:48:14Z</time>
      </trkpt>
      <trkpt lat="59.330969" lon="18.074458">
        <ele>11</ele>
        <time>2020-01-09T06:48:15Z</time>
      </trkpt>
      <trkpt lat="59.330972" lon="18.074495">
        <ele>0</ele>
        <time>2020-01-09T06:48:15Z</time>
      </trkpt>
      <trkpt lat="59.331023" lon="18.074671">
        <ele>11</ele>
        <time>2020-01-09T06:48:20Z</time>
      </trkpt>
      <trkpt lat="59.331124" lon="18.074763">
        <ele>10</ele>
        <time>2020-01-09T06:48:24Z</time>
      </trkpt>
      <trkpt lat="59.331242" lon="18.074776">
        <ele>9</ele>
        <time>2020-01-09T06:48:27Z</time>
      </trkpt>
      <trkpt lat="59.331335" lon="18.074783">
        <ele>9</ele>
        <time>2020-01-09T06:48:30Z</time>
      </trkpt>
      <trkpt lat="59.331429" lon="18.07478">
        <ele>9</ele>
        <time>2020-01-09T06:48:33Z</time>
      </trkpt>
      <trkpt lat="59.331508" lon="18.074893">
        <ele>9</ele>
        <time>2020-01-09T06:48:37Z</time>
      </trkpt>
      <trkpt lat="59.331577" lon="18.075004">
        <ele>9</ele>
        <time>2020-01-09T06:48:40Z</time>
      </trkpt>
      <trkpt lat="59.331678" lon="18.075049">
        <ele>9</ele>
        <time>2020-01-09T06:48:43Z</time>
      </trkpt>
      <trkpt lat="59.331779" lon="18.075124">
        <ele>10</ele>
        <time>2020-01-09T06:48:48Z</time>
      </trkpt>
      <trkpt lat="59.33181" lon="18.075161">
        <ele>10</ele>
        <time>2020-01-09T06:48:49Z</time>
      </trkpt>
      <trkpt lat="59.331834" lon="18.075208">
        <ele>10</ele>
        <time>2020-01-09T06:48:50Z</time>
      </trkpt>
      <trkpt lat="59.331855" lon="18.075243">
        <ele>10</ele>
        <time>2020-01-09T06:48:51Z</time>
      </trkpt>
      <trkpt lat="59.331881" lon="18.075275">
        <ele>10</ele>
        <time>2020-01-09T06:48:52Z</time>
      </trkpt>
      <trkpt lat="59.331903" lon="18.075307">
        <ele>10</ele>
        <time>2020-01-09T06:48:53Z</time>
      </trkpt>
      <trkpt lat="59.33192" lon="18.075345">
        <ele>0</ele>
        <time>2020-01-09T06:48:53Z</time>
      </trkpt>
      <trkpt lat="59.331937" lon="18.075389">
        <ele>10</ele>
        <time>2020-01-09T06:48:54Z</time>
      </trkpt>
      <trkpt lat="59.331954" lon="18.075438">
        <ele>10</ele>
        <time>2020-01-09T06:48:56Z</time>
      </trkpt>
      <trkpt lat="59.331974" lon="18.075479">
        <ele>10</ele>
        <time>2020-01-09T06:48:57Z</time>
      </trkpt>
      <trkpt lat="59.331993" lon="18.075524">
        <ele>11</ele>
        <time>2020-01-09T06:48:58Z</time>
      </trkpt>
      <trkpt lat="59.332013" lon="18.075569">
        <ele>0</ele>
        <time>2020-01-09T06:48:58Z</time>
      </trkpt>
      <trkpt lat="59.332028" lon="18.075616">
        <ele>11</ele>
        <time>2020-01-09T06:48:59Z</time>
      </trkpt>
      <trkpt lat="59.332047" lon="18.075662">
        <ele>11</ele>
        <time>2020-01-09T06:49:00Z</time>
      </trkpt>
      <trkpt lat="59.332062" lon="18.075704">
        <ele>11</ele>
        <time>2020-01-09T06:49:02Z</time>
      </trkpt>
      <trkpt lat="59.332079" lon="18.075742">
        <ele>11</ele>
        <time>2020-01-09T06:49:03Z</time>
      </trkpt>
      <trkpt lat="59.332095" lon="18.075775">
        <ele>11</ele>
        <time>2020-01-09T06:49:04Z</time>
      </trkpt>
      <trkpt lat="59.332111" lon="18.075808">
        <ele>11</ele>
        <time>2020-01-09T06:49:05Z</time>
      </trkpt>
      <trkpt lat="59.33213" lon="18.075848">
        <ele>11</ele>
        <time>2020-01-09T06:49:06Z</time>
      </trkpt>
      <trkpt lat="59.332151" lon="18.075885">
        <ele>11</ele>
        <time>2020-01-09T06:49:07Z</time>
      </trkpt>
      <trkpt lat="59.332169" lon="18.075925">
        <ele>11</ele>
        <time>2020-01-09T06:49:08Z</time>
      </trkpt>
      <trkpt lat="59.332188" lon="18.075965">
        <ele>12</ele>
        <time>2020-01-09T06:49:09Z</time>
      </trkpt>
      <trkpt lat="59.332208" lon="18.07601">
        <ele>12</ele>
        <time>2020-01-09T06:49:10Z</time>
      </trkpt>
      <trkpt lat="59.332225" lon="18.076057">
        <ele>12</ele>
        <time>2020-01-09T06:49:11Z</time>
      </trkpt>
      <trkpt lat="59.332241" lon="18.076102">
        <ele>12</ele>
        <time>2020-01-09T06:49:12Z</time>
      </trkpt>
      <trkpt lat="59.332257" lon="18.076146">
        <ele>0</ele>
        <time>2020-01-09T06:49:12Z</time>
      </trkpt>
      <trkpt lat="59.332274" lon="18.076192">
        <ele>12</ele>
        <time>2020-01-09T06:49:13Z</time>
      </trkpt>
      <trkpt lat="59.332307" lon="18.076278">
        <ele>12</ele>
        <time>2020-01-09T06:49:16Z</time>
      </trkpt>
      <trkpt lat="59.332323" lon="18.07632">
        <ele>0</ele>
        <time>2020-01-09T06:49:16Z</time>
      </trkpt>
      <trkpt lat="59.332337" lon="18.076359">
        <ele>13</ele>
        <time>2020-01-09T06:49:17Z</time>
      </trkpt>
      <trkpt lat="59.332352" lon="18.076396">
        <ele>13</ele>
        <time>2020-01-09T06:49:19Z</time>
      </trkpt>
      <trkpt lat="59.33237" lon="18.076436">
        <ele>13</ele>
        <time>2020-01-09T06:49:20Z</time>
      </trkpt>
      <trkpt lat="59.332388" lon="18.076471">
        <ele>13</ele>
        <time>2020-01-09T06:49:21Z</time>
      </trkpt>
      <trkpt lat="59.332407" lon="18.0765">
        <ele>13</ele>
        <time>2020-01-09T06:49:22Z</time>
      </trkpt>
      <trkpt lat="59.332423" lon="18.076516">
        <ele>13</ele>
        <time>2020-01-09T06:49:23Z</time>
      </trkpt>
      <trkpt lat="59.332443" lon="18.076532">
        <ele>13</ele>
        <time>2020-01-09T06:49:24Z</time>
      </trkpt>
      <trkpt lat="59.33246" lon="18.076552">
        <ele>13</ele>
        <time>2020-01-09T06:49:25Z</time>
      </trkpt>
      <trkpt lat="59.332474" lon="18.076589">
        <ele>13</ele>
        <time>2020-01-09T06:49:26Z</time>
      </trkpt>
      <trkpt lat="59.332478" lon="18.07664">
        <ele>13</ele>
        <time>2020-01-09T06:49:27Z</time>
      </trkpt>
      <trkpt lat="59.332486" lon="18.076691">
        <ele>13</ele>
        <time>2020-01-09T06:49:28Z</time>
      </trkpt>
      <trkpt lat="59.332495" lon="18.076744">
        <ele>13</ele>
        <time>2020-01-09T06:49:29Z</time>
      </trkpt>
      <trkpt lat="59.332506" lon="18.076795">
        <ele>14</ele>
        <time>2020-01-09T06:49:30Z</time>
      </trkpt>
      <trkpt lat="59.332518" lon="18.076846">
        <ele>14</ele>
        <time>2020-01-09T06:49:31Z</time>
      </trkpt>
      <trkpt lat="59.332527" lon="18.076895">
        <ele>0</ele>
        <time>2020-01-09T06:49:31Z</time>
      </trkpt>
      <trkpt lat="59.332532" lon="18.076941">
        <ele>14</ele>
        <time>2020-01-09T06:49:32Z</time>
      </trkpt>
      <trkpt lat="59.332545" lon="18.076982">
        <ele>14</ele>
        <time>2020-01-09T06:49:34Z</time>
      </trkpt>
      <trkpt lat="59.332561" lon="18.077013">
        <ele>14</ele>
        <time>2020-01-09T06:49:35Z</time>
      </trkpt>
      <trkpt lat="59.332582" lon="18.077043">
        <ele>14</ele>
        <time>2020-01-09T06:49:36Z</time>
      </trkpt>
      <trkpt lat="59.332609" lon="18.077068">
        <ele>0</ele>
        <time>2020-01-09T06:49:36Z</time>
      </trkpt>
      <trkpt lat="59.332636" lon="18.077096">
        <ele>14</ele>
        <time>2020-01-09T06:49:37Z</time>
      </trkpt>
      <trkpt lat="59.332663" lon="18.077114">
        <ele>13</ele>
        <time>2020-01-09T06:49:39Z</time>
      </trkpt>
      <trkpt lat="59.332698" lon="18.077119">
        <ele>13</ele>
        <time>2020-01-09T06:49:40Z</time>
      </trkpt>
      <trkpt lat="59.332739" lon="18.077115">
        <ele>13</ele>
        <time>2020-01-09T06:49:41Z</time>
      </trkpt>
      <trkpt lat="59.332778" lon="18.077113">
        <ele>13</ele>
        <time>2020-01-09T06:49:42Z</time>
      </trkpt>
      <trkpt lat="59.332814" lon="18.077118">
        <ele>12</ele>
        <time>2020-01-09T06:49:43Z</time>
      </trkpt>
      <trkpt lat="59.332843" lon="18.077128">
        <ele>12</ele>
        <time>2020-01-09T06:49:44Z</time>
      </trkpt>
      <trkpt lat="59.332871" lon="18.077142">
        <ele>12</ele>
        <time>2020-01-09T06:49:45Z</time>
      </trkpt>
      <trkpt lat="59.332896" lon="18.077162">
        <ele>12</ele>
        <time>2020-01-09T06:49:46Z</time>
      </trkpt>
      <trkpt lat="59.332922" lon="18.077184">
        <ele>12</ele>
        <time>2020-01-09T06:49:47Z</time>
      </trkpt>
      <trkpt lat="59.332941" lon="18.077209">
        <ele>12</ele>
        <time>2020-01-09T06:49:48Z</time>
      </trkpt>
      <trkpt lat="59.33296" lon="18.077239">
        <ele>12</ele>
        <time>2020-01-09T06:49:49Z</time>
      </trkpt>
      <trkpt lat="59.332981" lon="18.077268">
        <ele>12</ele>
        <time>2020-01-09T06:49:50Z</time>
      </trkpt>
      <trkpt lat="59.332998" lon="18.0773">
        <ele>0</ele>
        <time>2020-01-09T06:49:50Z</time>
      </trkpt>
      <trkpt lat="59.333016" lon="18.077329">
        <ele>12</ele>
        <time>2020-01-09T06:49:51Z</time>
      </trkpt>
      <trkpt lat="59.33306" lon="18.077379">
        <ele>0</ele>
        <time>2020-01-09T06:49:53Z</time>
      </trkpt>
      <trkpt lat="59.333089" lon="18.077409">
        <ele>11</ele>
        <time>2020-01-09T06:49:54Z</time>
      </trkpt>
      <trkpt lat="59.333109" lon="18.077439">
        <ele>11</ele>
        <time>2020-01-09T06:49:56Z</time>
      </trkpt>
      <trkpt lat="59.333131" lon="18.07746">
        <ele>11</ele>
        <time>2020-01-09T06:49:57Z</time>
      </trkpt>
      <trkpt lat="59.33315" lon="18.07747">
        <ele>11</ele>
        <time>2020-01-09T06:49:58Z</time>
      </trkpt>
      <trkpt lat="59.333168" lon="18.077486">
        <ele>11</ele>
        <time>2020-01-09T06:49:59Z</time>
      </trkpt>
      <trkpt lat="59.3332" lon="18.077495">
        <ele>11</ele>
        <time>2020-01-09T06:50:00Z</time>
      </trkpt>
      <trkpt lat="59.333225" lon="18.077504">
        <ele>11</ele>
        <time>2020-01-09T06:50:01Z</time>
      </trkpt>
      <trkpt lat="59.333248" lon="18.077515">
        <ele>11</ele>
        <time>2020-01-09T06:50:02Z</time>
      </trkpt>
      <trkpt lat="59.333283" lon="18.077531">
        <ele>11</ele>
        <time>2020-01-09T06:50:04Z</time>
      </trkpt>
      <trkpt lat="59.333302" lon="18.077536">
        <ele>11</ele>
        <time>2020-01-09T06:50:05Z</time>
      </trkpt>
      <trkpt lat="59.333326" lon="18.077542">
        <ele>11</ele>
        <time>2020-01-09T06:50:06Z</time>
      </trkpt>
      <trkpt lat="59.33335" lon="18.077552">
        <ele>11</ele>
        <time>2020-01-09T06:50:07Z</time>
      </trkpt>
      <trkpt lat="59.333374" lon="18.077568">
        <ele>11</ele>
        <time>2020-01-09T06:50:08Z</time>
      </trkpt>
      <trkpt lat="59.333399" lon="18.077579">
        <ele>10</ele>
        <time>2020-01-09T06:50:09Z</time>
      </trkpt>
      <trkpt lat="59.333421" lon="18.077602">
        <ele>0</ele>
        <time>2020-01-09T06:50:09Z</time>
      </trkpt>
      <trkpt lat="59.333448" lon="18.077624">
        <ele>10</ele>
        <time>2020-01-09T06:50:10Z</time>
      </trkpt>
      <trkpt lat="59.333465" lon="18.077651">
        <ele>10</ele>
        <time>2020-01-09T06:50:12Z</time>
      </trkpt>
      <trkpt lat="59.333479" lon="18.077684">
        <ele>10</ele>
        <time>2020-01-09T06:50:13Z</time>
      </trkpt>
      <trkpt lat="59.333509" lon="18.077733">
        <ele>0</ele>
        <time>2020-01-09T06:50:14Z</time>
      </trkpt>
      <trkpt lat="59.333522" lon="18.07777">
        <ele>10</ele>
        <time>2020-01-09T06:50:15Z</time>
      </trkpt>
      <trkpt lat="59.33354" lon="18.077802">
        <ele>10</ele>
        <time>2020-01-09T06:50:17Z</time>
      </trkpt>
      <trkpt lat="59.333556" lon="18.077829">
        <ele>10</ele>
        <time>2020-01-09T06:50:18Z</time>
      </trkpt>
      <trkpt lat="59.333581" lon="18.077855">
        <ele>10</ele>
        <time>2020-01-09T06:50:19Z</time>
      </trkpt>
      <trkpt lat="59.333605" lon="18.077875">
        <ele>10</ele>
        <time>2020-01-09T06:50:20Z</time>
      </trkpt>
      <trkpt lat="59.333635" lon="18.07789">
        <ele>10</ele>
        <time>2020-01-09T06:50:21Z</time>
      </trkpt>
      <trkpt lat="59.333672" lon="18.077904">
        <ele>10</ele>
        <time>2020-01-09T06:50:22Z</time>
      </trkpt>
      <trkpt lat="59.3337" lon="18.077921">
        <ele>10</ele>
        <time>2020-01-09T06:50:23Z</time>
      </trkpt>
      <trkpt lat="59.333727" lon="18.077936">
        <ele>10</ele>
        <time>2020-01-09T06:50:24Z</time>
      </trkpt>
      <trkpt lat="59.333752" lon="18.07795">
        <ele>10</ele>
        <time>2020-01-09T06:50:25Z</time>
      </trkpt>
      <trkpt lat="59.333775" lon="18.077969">
        <ele>10</ele>
        <time>2020-01-09T06:50:26Z</time>
      </trkpt>
      <trkpt lat="59.333805" lon="18.07798">
        <ele>9</ele>
        <time>2020-01-09T06:50:27Z</time>
      </trkpt>
      <trkpt lat="59.333839" lon="18.077992">
        <ele>9</ele>
        <time>2020-01-09T06:50:28Z</time>
      </trkpt>
      <trkpt lat="59.333868" lon="18.077998">
        <ele>0</ele>
        <time>2020-01-09T06:50:28Z</time>
      </trkpt>
      <trkpt lat="59.333898" lon="18.078006">
        <ele>9</ele>
        <time>2020-01-09T06:50:29Z</time>
      </trkpt>
      <trkpt lat="59.333927" lon="18.07801">
        <ele>9</ele>
        <time>2020-01-09T06:50:31Z</time>
      </trkpt>
      <trkpt lat="59.333956" lon="18.078018">
        <ele>9</ele>
        <time>2020-01-09T06:50:32Z</time>
      </trkpt>
      <trkpt lat="59.333985" lon="18.078021">
        <ele>0</ele>
        <time>2020-01-09T06:50:32Z</time>
      </trkpt>
      <trkpt lat="59.334012" lon="18.07803">
        <ele>9</ele>
        <time>2020-01-09T06:50:33Z</time>
      </trkpt>
      <trkpt lat="59.334039" lon="18.078044">
        <ele>9</ele>
        <time>2020-01-09T06:50:35Z</time>
      </trkpt>
      <trkpt lat="59.334063" lon="18.078057">
        <ele>9</ele>
        <time>2020-01-09T06:50:36Z</time>
      </trkpt>
      <trkpt lat="59.334089" lon="18.078064">
        <ele>9</ele>
        <time>2020-01-09T06:50:37Z</time>
      </trkpt>
      <trkpt lat="59.334116" lon="18.078066">
        <ele>9</ele>
        <time>2020-01-09T06:50:38Z</time>
      </trkpt>
      <trkpt lat="59.334168" lon="18.078183">
        <ele>9</ele>
        <time>2020-01-09T06:50:41Z</time>
      </trkpt>
      <trkpt lat="59.334185" lon="18.078238">
        <ele>10</ele>
        <time>2020-01-09T06:50:42Z</time>
      </trkpt>
      <trkpt lat="59.3342" lon="18.07828">
        <ele>10</ele>
        <time>2020-01-09T06:50:43Z</time>
      </trkpt>
      <trkpt lat="59.334214" lon="18.078327">
        <ele>10</ele>
        <time>2020-01-09T06:50:44Z</time>
      </trkpt>
      <trkpt lat="59.334228" lon="18.078357">
        <ele>10</ele>
        <time>2020-01-09T06:50:45Z</time>
      </trkpt>
      <trkpt lat="59.33424" lon="18.07839">
        <ele>10</ele>
        <time>2020-01-09T06:50:46Z</time>
      </trkpt>
      <trkpt lat="59.334255" lon="18.078426">
        <ele>10</ele>
        <time>2020-01-09T06:50:47Z</time>
      </trkpt>
      <trkpt lat="59.334266" lon="18.07846">
        <ele>0</ele>
        <time>2020-01-09T06:50:47Z</time>
      </trkpt>
      <trkpt lat="59.334284" lon="18.078489">
        <ele>11</ele>
        <time>2020-01-09T06:50:48Z</time>
      </trkpt>
      <trkpt lat="59.334294" lon="18.078518">
        <ele>11</ele>
        <time>2020-01-09T06:50:50Z</time>
      </trkpt>
      <trkpt lat="59.334312" lon="18.078546">
        <ele>11</ele>
        <time>2020-01-09T06:50:51Z</time>
      </trkpt>
      <trkpt lat="59.334332" lon="18.078577">
        <ele>11</ele>
        <time>2020-01-09T06:50:52Z</time>
      </trkpt>
      <trkpt lat="59.334352" lon="18.078597">
        <ele>0</ele>
        <time>2020-01-09T06:50:52Z</time>
      </trkpt>
      <trkpt lat="59.334379" lon="18.078607">
        <ele>11</ele>
        <time>2020-01-09T06:50:53Z</time>
      </trkpt>
      <trkpt lat="59.334491" lon="18.078661">
        <ele>11</ele>
        <time>2020-01-09T06:50:58Z</time>
      </trkpt>
      <trkpt lat="59.334523" lon="18.07867">
        <ele>11</ele>
        <time>2020-01-09T06:50:59Z</time>
      </trkpt>
      <trkpt lat="59.334601" lon="18.078688">
        <ele>12</ele>
        <time>2020-01-09T06:51:02Z</time>
      </trkpt>
      <trkpt lat="59.334632" lon="18.07869">
        <ele>12</ele>
        <time>2020-01-09T06:51:03Z</time>
      </trkpt>
      <trkpt lat="59.334656" lon="18.078699">
        <ele>12</ele>
        <time>2020-01-09T06:51:04Z</time>
      </trkpt>
      <trkpt lat="59.334686" lon="18.078696">
        <ele>12</ele>
        <time>2020-01-09T06:51:05Z</time>
      </trkpt>
      <trkpt lat="59.334711" lon="18.078704">
        <ele>11</ele>
        <time>2020-01-09T06:51:06Z</time>
      </trkpt>
      <trkpt lat="59.334744" lon="18.078705">
        <ele>0</ele>
        <time>2020-01-09T06:51:06Z</time>
      </trkpt>
      <trkpt lat="59.334776" lon="18.078707">
        <ele>11</ele>
        <time>2020-01-09T06:51:07Z</time>
      </trkpt>
      <trkpt lat="59.334803" lon="18.078711">
        <ele>12</ele>
        <time>2020-01-09T06:51:09Z</time>
      </trkpt>
      <trkpt lat="59.334829" lon="18.07872">
        <ele>0</ele>
        <time>2020-01-09T06:51:09Z</time>
      </trkpt>
      <trkpt lat="59.334852" lon="18.078736">
        <ele>12</ele>
        <time>2020-01-09T06:51:10Z</time>
      </trkpt>
      <trkpt lat="59.334872" lon="18.078746">
        <ele>12</ele>
        <time>2020-01-09T06:51:12Z</time>
      </trkpt>
      <trkpt lat="59.334917" lon="18.078779">
        <ele>13</ele>
        <time>2020-01-09T06:51:14Z</time>
      </trkpt>
      <trkpt lat="59.334939" lon="18.078803">
        <ele>13</ele>
        <time>2020-01-09T06:51:15Z</time>
      </trkpt>
      <trkpt lat="59.334964" lon="18.078829">
        <ele>13</ele>
        <time>2020-01-09T06:51:16Z</time>
      </trkpt>
      <trkpt lat="59.334981" lon="18.078854">
        <ele>13</ele>
        <time>2020-01-09T06:51:17Z</time>
      </trkpt>
      <trkpt lat="59.335002" lon="18.078881">
        <ele>13</ele>
        <time>2020-01-09T06:51:18Z</time>
      </trkpt>
      <trkpt lat="59.335018" lon="18.0789">
        <ele>13</ele>
        <time>2020-01-09T06:51:19Z</time>
      </trkpt>
      <trkpt lat="59.33504" lon="18.078921">
        <ele>13</ele>
        <time>2020-01-09T06:51:20Z</time>
      </trkpt>
      <trkpt lat="59.33509" lon="18.078958">
        <ele>13</ele>
        <time>2020-01-09T06:51:22Z</time>
      </trkpt>
      <trkpt lat="59.335113" lon="18.078971">
        <ele>13</ele>
        <time>2020-01-09T06:51:23Z</time>
      </trkpt>
      <trkpt lat="59.335138" lon="18.078987">
        <ele>14</ele>
        <time>2020-01-09T06:51:24Z</time>
      </trkpt>
      <trkpt lat="59.335165" lon="18.079005">
        <ele>14</ele>
        <time>2020-01-09T06:51:25Z</time>
      </trkpt>
      <trkpt lat="59.33519" lon="18.079014">
        <ele>0</ele>
        <time>2020-01-09T06:51:25Z</time>
      </trkpt>
      <trkpt lat="59.335219" lon="18.079024">
        <ele>13</ele>
        <time>2020-01-09T06:51:26Z</time>
      </trkpt>
      <trkpt lat="59.335245" lon="18.079042">
        <ele>13</ele>
        <time>2020-01-09T06:51:28Z</time>
      </trkpt>
      <trkpt lat="59.335268" lon="18.079061">
        <ele>13</ele>
        <time>2020-01-09T06:51:29Z</time>
      </trkpt>
      <trkpt lat="59.335292" lon="18.079078">
        <ele>14</ele>
        <time>2020-01-09T06:51:30Z</time>
      </trkpt>
      <trkpt lat="59.335314" lon="18.079097">
        <ele>0</ele>
        <time>2020-01-09T06:51:30Z</time>
      </trkpt>
      <trkpt lat="59.335337" lon="18.079111">
        <ele>14</ele>
        <time>2020-01-09T06:51:31Z</time>
      </trkpt>
      <trkpt lat="59.335359" lon="18.07912">
        <ele>14</ele>
        <time>2020-01-09T06:51:33Z</time>
      </trkpt>
      <trkpt lat="59.335377" lon="18.07913">
        <ele>14</ele>
        <time>2020-01-09T06:51:34Z</time>
      </trkpt>
      <trkpt lat="59.335396" lon="18.07914">
        <ele>14</ele>
        <time>2020-01-09T06:51:35Z</time>
      </trkpt>
      <trkpt lat="59.335426" lon="18.079147">
        <ele>15</ele>
        <time>2020-01-09T06:51:37Z</time>
      </trkpt>
      <trkpt lat="59.33545" lon="18.079162">
        <ele>15</ele>
        <time>2020-01-09T06:51:38Z</time>
      </trkpt>
      <trkpt lat="59.335472" lon="18.079174">
        <ele>15</ele>
        <time>2020-01-09T06:51:39Z</time>
      </trkpt>
      <trkpt lat="59.335494" lon="18.079185">
        <ele>15</ele>
        <time>2020-01-09T06:51:40Z</time>
      </trkpt>
      <trkpt lat="59.33552" lon="18.079192">
        <ele>16</ele>
        <time>2020-01-09T06:51:41Z</time>
      </trkpt>
      <trkpt lat="59.335536" lon="18.079227">
        <ele>16</ele>
        <time>2020-01-09T06:51:42Z</time>
      </trkpt>
      <trkpt lat="59.335548" lon="18.079286">
        <ele>17</ele>
        <time>2020-01-09T06:51:43Z</time>
      </trkpt>
      <trkpt lat="59.335561" lon="18.079344">
        <ele>17</ele>
        <time>2020-01-09T06:51:44Z</time>
      </trkpt>
      <trkpt lat="59.335576" lon="18.079399">
        <ele>0</ele>
        <time>2020-01-09T06:51:44Z</time>
      </trkpt>
      <trkpt lat="59.335596" lon="18.079445">
        <ele>17</ele>
        <time>2020-01-09T06:51:45Z</time>
      </trkpt>
      <trkpt lat="59.335612" lon="18.079506">
        <ele>18</ele>
        <time>2020-01-09T06:51:47Z</time>
      </trkpt>
      <trkpt lat="59.33563" lon="18.079543">
        <ele>18</ele>
        <time>2020-01-09T06:51:48Z</time>
      </trkpt>
      <trkpt lat="59.33565" lon="18.079568">
        <ele>18</ele>
        <time>2020-01-09T06:51:49Z</time>
      </trkpt>
      <trkpt lat="59.335666" lon="18.079589">
        <ele>18</ele>
        <time>2020-01-09T06:51:50Z</time>
      </trkpt>
      <trkpt lat="59.335684" lon="18.079609">
        <ele>0</ele>
        <time>2020-01-09T06:51:50Z</time>
      </trkpt>
      <trkpt lat="59.335703" lon="18.07963">
        <ele>18</ele>
        <time>2020-01-09T06:51:51Z</time>
      </trkpt>
      <trkpt lat="59.335736" lon="18.079658">
        <ele>19</ele>
        <time>2020-01-09T06:51:54Z</time>
      </trkpt>
      <trkpt lat="59.335773" lon="18.079687">
        <ele>19</ele>
        <time>2020-01-09T06:51:56Z</time>
      </trkpt>
      <trkpt lat="59.335792" lon="18.079694">
        <ele>19</ele>
        <time>2020-01-09T06:51:57Z</time>
      </trkpt>
      <trkpt lat="59.335814" lon="18.0797">
        <ele>20</ele>
        <time>2020-01-09T06:51:58Z</time>
      </trkpt>
      <trkpt lat="59.33584" lon="18.079711">
        <ele>20</ele>
        <time>2020-01-09T06:51:59Z</time>
      </trkpt>
      <trkpt lat="59.335866" lon="18.079721">
        <ele>20</ele>
        <time>2020-01-09T06:52:00Z</time>
      </trkpt>
      <trkpt lat="59.33589" lon="18.07974">
        <ele>20</ele>
        <time>2020-01-09T06:52:01Z</time>
      </trkpt>
      <trkpt lat="59.335915" lon="18.079762">
        <ele>20</ele>
        <time>2020-01-09T06:52:02Z</time>
      </trkpt>
      <trkpt lat="59.335942" lon="18.079785">
        <ele>21</ele>
        <time>2020-01-09T06:52:03Z</time>
      </trkpt>
      <trkpt lat="59.335966" lon="18.079805">
        <ele>0</ele>
        <time>2020-01-09T06:52:03Z</time>
      </trkpt>
      <trkpt lat="59.33599" lon="18.079824">
        <ele>21</ele>
        <time>2020-01-09T06:52:04Z</time>
      </trkpt>
      <trkpt lat="59.33601" lon="18.079841">
        <ele>21</ele>
        <time>2020-01-09T06:52:06Z</time>
      </trkpt>
      <trkpt lat="59.336036" lon="18.079864">
        <ele>21</ele>
        <time>2020-01-09T06:52:07Z</time>
      </trkpt>
      <trkpt lat="59.336059" lon="18.079886">
        <ele>21</ele>
        <time>2020-01-09T06:52:08Z</time>
      </trkpt>
      <trkpt lat="59.336081" lon="18.079905">
        <ele>22</ele>
        <time>2020-01-09T06:52:09Z</time>
      </trkpt>
      <trkpt lat="59.336105" lon="18.079922">
        <ele>22</ele>
        <time>2020-01-09T06:52:10Z</time>
      </trkpt>
      <trkpt lat="59.336123" lon="18.079941">
        <ele>22</ele>
        <time>2020-01-09T06:52:11Z</time>
      </trkpt>
      <trkpt lat="59.336148" lon="18.079953">
        <ele>0</ele>
        <time>2020-01-09T06:52:11Z</time>
      </trkpt>
      <trkpt lat="59.336173" lon="18.079968">
        <ele>22</ele>
        <time>2020-01-09T06:52:12Z</time>
      </trkpt>
      <trkpt lat="59.336194" lon="18.079983">
        <ele>22</ele>
        <time>2020-01-09T06:52:14Z</time>
      </trkpt>
      <trkpt lat="59.336225" lon="18.079997">
        <ele>22</ele>
        <time>2020-01-09T06:52:15Z</time>
      </trkpt>
      <trkpt lat="59.336256" lon="18.080011">
        <ele>22</ele>
        <time>2020-01-09T06:52:16Z</time>
      </trkpt>
      <trkpt lat="59.336282" lon="18.080029">
        <ele>22</ele>
        <time>2020-01-09T06:52:17Z</time>
      </trkpt>
      <trkpt lat="59.336308" lon="18.080049">
        <ele>22</ele>
        <time>2020-01-09T06:52:18Z</time>
      </trkpt>
      <trkpt lat="59.336334" lon="18.080064">
        <ele>23</ele>
        <time>2020-01-09T06:52:19Z</time>
      </trkpt>
      <trkpt lat="59.336364" lon="18.080083">
        <ele>23</ele>
        <time>2020-01-09T06:52:20Z</time>
      </trkpt>
      <trkpt lat="59.336391" lon="18.0801">
        <ele>23</ele>
        <time>2020-01-09T06:52:21Z</time>
      </trkpt>
      <trkpt lat="59.336414" lon="18.080112">
        <ele>23</ele>
        <time>2020-01-09T06:52:22Z</time>
      </trkpt>
      <trkpt lat="59.336438" lon="18.080125">
        <ele>0</ele>
        <time>2020-01-09T06:52:22Z</time>
      </trkpt>
      <trkpt lat="59.336464" lon="18.080142">
        <ele>23</ele>
        <time>2020-01-09T06:52:23Z</time>
      </trkpt>
      <trkpt lat="59.336489" lon="18.080162">
        <ele>23</ele>
        <time>2020-01-09T06:52:25Z</time>
      </trkpt>
      <trkpt lat="59.336516" lon="18.080185">
        <ele>23</ele>
        <time>2020-01-09T06:52:26Z</time>
      </trkpt>
      <trkpt lat="59.336545" lon="18.080206">
        <ele>23</ele>
        <time>2020-01-09T06:52:27Z</time>
      </trkpt>
      <trkpt lat="59.336575" lon="18.080229">
        <ele>23</ele>
        <time>2020-01-09T06:52:28Z</time>
      </trkpt>
      <trkpt lat="59.336601" lon="18.080241">
        <ele>0</ele>
        <time>2020-01-09T06:52:28Z</time>
      </trkpt>
      <trkpt lat="59.336626" lon="18.080256">
        <ele>24</ele>
        <time>2020-01-09T06:52:29Z</time>
      </trkpt>
      <trkpt lat="59.336656" lon="18.080267">
        <ele>24</ele>
        <time>2020-01-09T06:52:31Z</time>
      </trkpt>
      <trkpt lat="59.336681" lon="18.080283">
        <ele>24</ele>
        <time>2020-01-09T06:52:32Z</time>
      </trkpt>
      <trkpt lat="59.336704" lon="18.080295">
        <ele>24</ele>
        <time>2020-01-09T06:52:33Z</time>
      </trkpt>
      <trkpt lat="59.336728" lon="18.080311">
        <ele>24</ele>
        <time>2020-01-09T06:52:34Z</time>
      </trkpt>
      <trkpt lat="59.336752" lon="18.080334">
        <ele>24</ele>
        <time>2020-01-09T06:52:35Z</time>
      </trkpt>
      <trkpt lat="59.336773" lon="18.080356">
        <ele>25</ele>
        <time>2020-01-09T06:52:36Z</time>
      </trkpt>
      <trkpt lat="59.336796" lon="18.080382">
        <ele>25</ele>
        <time>2020-01-09T06:52:37Z</time>
      </trkpt>
      <trkpt lat="59.33682" lon="18.080396">
        <ele>25</ele>
        <time>2020-01-09T06:52:38Z</time>
      </trkpt>
      <trkpt lat="59.336843" lon="18.08042">
        <ele>25</ele>
        <time>2020-01-09T06:52:39Z</time>
      </trkpt>
      <trkpt lat="59.336862" lon="18.080439">
        <ele>25</ele>
        <time>2020-01-09T06:52:40Z</time>
      </trkpt>
      <trkpt lat="59.336884" lon="18.080454">
        <ele>25</ele>
        <time>2020-01-09T06:52:41Z</time>
      </trkpt>
      <trkpt lat="59.336912" lon="18.080473">
        <ele>0</ele>
        <time>2020-01-09T06:52:41Z</time>
      </trkpt>
      <trkpt lat="59.336939" lon="18.080482">
        <ele>25</ele>
        <time>2020-01-09T06:52:42Z</time>
      </trkpt>
      <trkpt lat="59.336963" lon="18.080498">
        <ele>25</ele>
        <time>2020-01-09T06:52:44Z</time>
      </trkpt>
      <trkpt lat="59.336984" lon="18.080531">
        <ele>25</ele>
        <time>2020-01-09T06:52:45Z</time>
      </trkpt>
      <trkpt lat="59.337001" lon="18.080587">
        <ele>25</ele>
        <time>2020-01-09T06:52:46Z</time>
      </trkpt>
      <trkpt lat="59.337011" lon="18.080635">
        <ele>26</ele>
        <time>2020-01-09T06:52:47Z</time>
      </trkpt>
      <trkpt lat="59.337028" lon="18.080668">
        <ele>26</ele>
        <time>2020-01-09T06:52:48Z</time>
      </trkpt>
      <trkpt lat="59.337045" lon="18.080699">
        <ele>0</ele>
        <time>2020-01-09T06:52:48Z</time>
      </trkpt>
      <trkpt lat="59.337068" lon="18.08073">
        <ele>26</ele>
        <time>2020-01-09T06:52:49Z</time>
      </trkpt>
      <trkpt lat="59.337089" lon="18.080751">
        <ele>26</ele>
        <time>2020-01-09T06:52:51Z</time>
      </trkpt>
      <trkpt lat="59.337111" lon="18.080778">
        <ele>27</ele>
        <time>2020-01-09T06:52:52Z</time>
      </trkpt>
      <trkpt lat="59.337132" lon="18.080806">
        <ele>27</ele>
        <time>2020-01-09T06:52:53Z</time>
      </trkpt>
      <trkpt lat="59.337154" lon="18.080823">
        <ele>27</ele>
        <time>2020-01-09T06:52:54Z</time>
      </trkpt>
      <trkpt lat="59.337176" lon="18.080847">
        <ele>27</ele>
        <time>2020-01-09T06:52:55Z</time>
      </trkpt>
      <trkpt lat="59.337199" lon="18.080877">
        <ele>27</ele>
        <time>2020-01-09T06:52:56Z</time>
      </trkpt>
      <trkpt lat="59.337224" lon="18.0809">
        <ele>27</ele>
        <time>2020-01-09T06:52:57Z</time>
      </trkpt>
      <trkpt lat="59.337247" lon="18.080924">
        <ele>27</ele>
        <time>2020-01-09T06:52:58Z</time>
      </trkpt>
      <trkpt lat="59.337269" lon="18.080951">
        <ele>28</ele>
        <time>2020-01-09T06:52:59Z</time>
      </trkpt>
      <trkpt lat="59.337292" lon="18.080981">
        <ele>28</ele>
        <time>2020-01-09T06:53:00Z</time>
      </trkpt>
      <trkpt lat="59.337317" lon="18.081007">
        <ele>0</ele>
        <time>2020-01-09T06:53:00Z</time>
      </trkpt>
      <trkpt lat="59.337342" lon="18.08103">
        <ele>28</ele>
        <time>2020-01-09T06:53:01Z</time>
      </trkpt>
      <trkpt lat="59.337363" lon="18.081048">
        <ele>28</ele>
        <time>2020-01-09T06:53:03Z</time>
      </trkpt>
      <trkpt lat="59.337384" lon="18.08106">
        <ele>28</ele>
        <time>2020-01-09T06:53:04Z</time>
      </trkpt>
      <trkpt lat="59.337403" lon="18.08107">
        <ele>0</ele>
        <time>2020-01-09T06:53:04Z</time>
      </trkpt>
      <trkpt lat="59.337424" lon="18.081083">
        <ele>28</ele>
        <time>2020-01-09T06:53:05Z</time>
      </trkpt>
      <trkpt lat="59.337449" lon="18.081092">
        <ele>28</ele>
        <time>2020-01-09T06:53:07Z</time>
      </trkpt>
      <trkpt lat="59.337481" lon="18.081102">
        <ele>0</ele>
        <time>2020-01-09T06:53:07Z</time>
      </trkpt>
      <trkpt lat="59.337511" lon="18.081116">
        <ele>28</ele>
        <time>2020-01-09T06:53:08Z</time>
      </trkpt>
      <trkpt lat="59.337545" lon="18.081121">
        <ele>28</ele>
        <time>2020-01-09T06:53:10Z</time>
      </trkpt>
      <trkpt lat="59.337575" lon="18.081141">
        <ele>28</ele>
        <time>2020-01-09T06:53:11Z</time>
      </trkpt>
      <trkpt lat="59.337602" lon="18.08117">
        <ele>29</ele>
        <time>2020-01-09T06:53:12Z</time>
      </trkpt>
      <trkpt lat="59.33763" lon="18.081192">
        <ele>29</ele>
        <time>2020-01-09T06:53:13Z</time>
      </trkpt>
      <trkpt lat="59.337658" lon="18.081215">
        <ele>29</ele>
        <time>2020-01-09T06:53:14Z</time>
      </trkpt>
      <trkpt lat="59.337689" lon="18.081244">
        <ele>29</ele>
        <time>2020-01-09T06:53:15Z</time>
      </trkpt>
      <trkpt lat="59.337719" lon="18.081263">
        <ele>29</ele>
        <time>2020-01-09T06:53:16Z</time>
      </trkpt>
      <trkpt lat="59.337745" lon="18.081276">
        <ele>30</ele>
        <time>2020-01-09T06:53:17Z</time>
      </trkpt>
      <trkpt lat="59.337774" lon="18.081293">
        <ele>30</ele>
        <time>2020-01-09T06:53:18Z</time>
      </trkpt>
      <trkpt lat="59.337799" lon="18.081308">
        <ele>30</ele>
        <time>2020-01-09T06:53:19Z</time>
      </trkpt>
      <trkpt lat="59.337827" lon="18.081312">
        <ele>0</ele>
        <time>2020-01-09T06:53:19Z</time>
      </trkpt>
      <trkpt lat="59.337855" lon="18.081325">
        <ele>30</ele>
        <time>2020-01-09T06:53:20Z</time>
      </trkpt>
      <trkpt lat="59.337884" lon="18.081341">
        <ele>30</ele>
        <time>2020-01-09T06:53:22Z</time>
      </trkpt>
      <trkpt lat="59.337913" lon="18.08135">
        <ele>30</ele>
        <time>2020-01-09T06:53:23Z</time>
      </trkpt>
      <trkpt lat="59.337941" lon="18.081356">
        <ele>30</ele>
        <time>2020-01-09T06:53:24Z</time>
      </trkpt>
      <trkpt lat="59.337972" lon="18.081371">
        <ele>0</ele>
        <time>2020-01-09T06:53:24Z</time>
      </trkpt>
      <trkpt lat="59.337991" lon="18.0814">
        <ele>30</ele>
        <time>2020-01-09T06:53:25Z</time>
      </trkpt>
      <trkpt lat="59.338011" lon="18.081426">
        <ele>30</ele>
        <time>2020-01-09T06:53:27Z</time>
      </trkpt>
      <trkpt lat="59.338103" lon="18.081472">
        <ele>30</ele>
        <time>2020-01-09T06:53:30Z</time>
      </trkpt>
      <trkpt lat="59.338133" lon="18.081512">
        <ele>30</ele>
        <time>2020-01-09T06:53:31Z</time>
      </trkpt>
      <trkpt lat="59.338162" lon="18.081554">
        <ele>31</ele>
        <time>2020-01-09T06:53:32Z</time>
      </trkpt>
      <trkpt lat="59.338183" lon="18.081601">
        <ele>31</ele>
        <time>2020-01-09T06:53:33Z</time>
      </trkpt>
      <trkpt lat="59.338198" lon="18.081633">
        <ele>31</ele>
        <time>2020-01-09T06:53:34Z</time>
      </trkpt>
      <trkpt lat="59.338214" lon="18.081656">
        <ele>32</ele>
        <time>2020-01-09T06:53:35Z</time>
      </trkpt>
      <trkpt lat="59.338229" lon="18.081681">
        <ele>32</ele>
        <time>2020-01-09T06:53:36Z</time>
      </trkpt>
      <trkpt lat="59.338243" lon="18.081707">
        <ele>32</ele>
        <time>2020-01-09T06:53:37Z</time>
      </trkpt>
      <trkpt lat="59.338258" lon="18.081741">
        <ele>32</ele>
        <time>2020-01-09T06:53:38Z</time>
      </trkpt>
      <trkpt lat="59.338276" lon="18.081762">
        <ele>0</ele>
        <time>2020-01-09T06:53:38Z</time>
      </trkpt>
      <trkpt lat="59.338297" lon="18.081785">
        <ele>31</ele>
        <time>2020-01-09T06:53:39Z</time>
      </trkpt>
      <trkpt lat="59.338317" lon="18.08181">
        <ele>31</ele>
        <time>2020-01-09T06:53:41Z</time>
      </trkpt>
      <trkpt lat="59.338339" lon="18.08183">
        <ele>31</ele>
        <time>2020-01-09T06:53:42Z</time>
      </trkpt>
      <trkpt lat="59.338365" lon="18.081848">
        <ele>31</ele>
        <time>2020-01-09T06:53:43Z</time>
      </trkpt>
      <trkpt lat="59.338393" lon="18.081867">
        <ele>0</ele>
        <time>2020-01-09T06:53:43Z</time>
      </trkpt>
      <trkpt lat="59.338423" lon="18.081885">
        <ele>31</ele>
        <time>2020-01-09T06:53:44Z</time>
      </trkpt>
      <trkpt lat="59.338449" lon="18.081901">
        <ele>31</ele>
        <time>2020-01-09T06:53:46Z</time>
      </trkpt>
      <trkpt lat="59.338467" lon="18.081942">
        <ele>31</ele>
        <time>2020-01-09T06:53:47Z</time>
      </trkpt>
      <trkpt lat="59.33849" lon="18.081959">
        <ele>32</ele>
        <time>2020-01-09T06:53:48Z</time>
      </trkpt>
      <trkpt lat="59.338519" lon="18.081979">
        <ele>32</ele>
        <time>2020-01-09T06:53:49Z</time>
      </trkpt>
      <trkpt lat="59.338543" lon="18.081995">
        <ele>32</ele>
        <time>2020-01-09T06:53:50Z</time>
      </trkpt>
      <trkpt lat="59.33857" lon="18.08202">
        <ele>32</ele>
        <time>2020-01-09T06:53:51Z</time>
      </trkpt>
      <trkpt lat="59.338596" lon="18.082047">
        <ele>32</ele>
        <time>2020-01-09T06:53:52Z</time>
      </trkpt>
      <trkpt lat="59.338619" lon="18.082076">
        <ele>32</ele>
        <time>2020-01-09T06:53:53Z</time>
      </trkpt>
      <trkpt lat="59.338639" lon="18.082115">
        <ele>32</ele>
        <time>2020-01-09T06:53:54Z</time>
      </trkpt>
      <trkpt lat="59.338664" lon="18.082147">
        <ele>33</ele>
        <time>2020-01-09T06:53:55Z</time>
      </trkpt>
      <trkpt lat="59.338684" lon="18.08218">
        <ele>33</ele>
        <time>2020-01-09T06:53:56Z</time>
      </trkpt>
      <trkpt lat="59.338703" lon="18.082202">
        <ele>33</ele>
        <time>2020-01-09T06:53:57Z</time>
      </trkpt>
      <trkpt lat="59.338719" lon="18.082227">
        <ele>0</ele>
        <time>2020-01-09T06:53:57Z</time>
      </trkpt>
      <trkpt lat="59.338739" lon="18.082252">
        <ele>33</ele>
        <time>2020-01-09T06:53:58Z</time>
      </trkpt>
      <trkpt lat="59.338785" lon="18.082297">
        <ele>33</ele>
        <time>2020-01-09T06:54:01Z</time>
      </trkpt>
      <trkpt lat="59.338807" lon="18.082316">
        <ele>33</ele>
        <time>2020-01-09T06:54:02Z</time>
      </trkpt>
      <trkpt lat="59.338834" lon="18.08233">
        <ele>0</ele>
        <time>2020-01-09T06:54:02Z</time>
      </trkpt>
      <trkpt lat="59.33886" lon="18.082334">
        <ele>33</ele>
        <time>2020-01-09T06:54:03Z</time>
      </trkpt>
      <trkpt lat="59.338893" lon="18.082341">
        <ele>33</ele>
        <time>2020-01-09T06:54:05Z</time>
      </trkpt>
      <trkpt lat="59.338931" lon="18.082348">
        <ele>33</ele>
        <time>2020-01-09T06:54:06Z</time>
      </trkpt>
      <trkpt lat="59.338975" lon="18.082379">
        <ele>33</ele>
        <time>2020-01-09T06:54:07Z</time>
      </trkpt>
      <trkpt lat="59.339055" lon="18.082442">
        <ele>33</ele>
        <time>2020-01-09T06:54:09Z</time>
      </trkpt>
      <trkpt lat="59.339088" lon="18.08248">
        <ele>32</ele>
        <time>2020-01-09T06:54:10Z</time>
      </trkpt>
      <trkpt lat="59.339114" lon="18.082497">
        <ele>32</ele>
        <time>2020-01-09T06:54:11Z</time>
      </trkpt>
      <trkpt lat="59.33914" lon="18.08252">
        <ele>32</ele>
        <time>2020-01-09T06:54:12Z</time>
      </trkpt>
      <trkpt lat="59.339162" lon="18.082541">
        <ele>32</ele>
        <time>2020-01-09T06:54:13Z</time>
      </trkpt>
      <trkpt lat="59.33918" lon="18.082566">
        <ele>33</ele>
        <time>2020-01-09T06:54:14Z</time>
      </trkpt>
      <trkpt lat="59.3392" lon="18.082581">
        <ele>33</ele>
        <time>2020-01-09T06:54:15Z</time>
      </trkpt>
      <trkpt lat="59.339221" lon="18.082591">
        <ele>33</ele>
        <time>2020-01-09T06:54:16Z</time>
      </trkpt>
      <trkpt lat="59.339241" lon="18.082607">
        <ele>0</ele>
        <time>2020-01-09T06:54:16Z</time>
      </trkpt>
      <trkpt lat="59.339262" lon="18.082623">
        <ele>33</ele>
        <time>2020-01-09T06:54:17Z</time>
      </trkpt>
      <trkpt lat="59.339283" lon="18.082659">
        <ele>34</ele>
        <time>2020-01-09T06:54:20Z</time>
      </trkpt>
      <trkpt lat="59.339285" lon="18.082724">
        <ele>34</ele>
        <time>2020-01-09T06:54:21Z</time>
      </trkpt>
      <trkpt lat="59.339283" lon="18.082778">
        <ele>34</ele>
        <time>2020-01-09T06:54:23Z</time>
      </trkpt>
      <trkpt lat="59.339273" lon="18.082836">
        <ele>34</ele>
        <time>2020-01-09T06:54:24Z</time>
      </trkpt>
      <trkpt lat="59.339264" lon="18.082884">
        <ele>34</ele>
        <time>2020-01-09T06:54:25Z</time>
      </trkpt>
      <trkpt lat="59.339253" lon="18.082934">
        <ele>34</ele>
        <time>2020-01-09T06:54:26Z</time>
      </trkpt>
      <trkpt lat="59.339242" lon="18.082982">
        <ele>34</ele>
        <time>2020-01-09T06:54:27Z</time>
      </trkpt>
      <trkpt lat="59.339227" lon="18.083019">
        <ele>34</ele>
        <time>2020-01-09T06:54:28Z</time>
      </trkpt>
      <trkpt lat="59.339213" lon="18.083052">
        <ele>34</ele>
        <time>2020-01-09T06:54:29Z</time>
      </trkpt>
      <trkpt lat="59.339199" lon="18.083092">
        <ele>34</ele>
        <time>2020-01-09T06:54:30Z</time>
      </trkpt>
      <trkpt lat="59.339186" lon="18.08313">
        <ele>34</ele>
        <time>2020-01-09T06:54:31Z</time>
      </trkpt>
      <trkpt lat="59.339175" lon="18.083176">
        <ele>35</ele>
        <time>2020-01-09T06:54:32Z</time>
      </trkpt>
      <trkpt lat="59.339139" lon="18.083229">
        <ele>36</ele>
        <time>2020-01-09T06:54:33Z</time>
      </trkpt>
      <trkpt lat="59.339128" lon="18.083276">
        <ele>36</ele>
        <time>2020-01-09T06:54:34Z</time>
      </trkpt>
      <trkpt lat="59.339103" lon="18.083317">
        <ele>37</ele>
        <time>2020-01-09T06:54:35Z</time>
      </trkpt>
      <trkpt lat="59.339093" lon="18.083375">
        <ele>0</ele>
        <time>2020-01-09T06:54:35Z</time>
      </trkpt>
      <trkpt lat="59.339114" lon="18.083523">
        <ele>0</ele>
        <time>2020-01-09T06:54:38Z</time>
      </trkpt>
      <trkpt lat="59.339148" lon="18.083592">
        <ele>35</ele>
        <time>2020-01-09T06:54:39Z</time>
      </trkpt>
      <trkpt lat="59.339196" lon="18.08367">
        <ele>35</ele>
        <time>2020-01-09T06:54:41Z</time>
      </trkpt>
      <trkpt lat="59.33923" lon="18.083728">
        <ele>34</ele>
        <time>2020-01-09T06:54:42Z</time>
      </trkpt>
      <trkpt lat="59.33927" lon="18.083783">
        <ele>34</ele>
        <time>2020-01-09T06:54:43Z</time>
      </trkpt>
      <trkpt lat="59.339305" lon="18.083828">
        <ele>33</ele>
        <time>2020-01-09T06:54:44Z</time>
      </trkpt>
      <trkpt lat="59.339335" lon="18.083865">
        <ele>33</ele>
        <time>2020-01-09T06:54:45Z</time>
      </trkpt>
      <trkpt lat="59.339363" lon="18.083899">
        <ele>32</ele>
        <time>2020-01-09T06:54:46Z</time>
      </trkpt>
      <trkpt lat="59.339387" lon="18.083925">
        <ele>32</ele>
        <time>2020-01-09T06:54:47Z</time>
      </trkpt>
      <trkpt lat="59.339415" lon="18.083947">
        <ele>32</ele>
        <time>2020-01-09T06:54:48Z</time>
      </trkpt>
      <trkpt lat="59.339446" lon="18.083972">
        <ele>31</ele>
        <time>2020-01-09T06:54:49Z</time>
      </trkpt>
      <trkpt lat="59.339478" lon="18.083995">
        <ele>31</ele>
        <time>2020-01-09T06:54:50Z</time>
      </trkpt>
      <trkpt lat="59.339507" lon="18.084014">
        <ele>31</ele>
        <time>2020-01-09T06:54:51Z</time>
      </trkpt>
      <trkpt lat="59.339532" lon="18.084021">
        <ele>0</ele>
        <time>2020-01-09T06:54:51Z</time>
      </trkpt>
      <trkpt lat="59.339554" lon="18.084042">
        <ele>31</ele>
        <time>2020-01-09T06:54:52Z</time>
      </trkpt>
      <trkpt lat="59.339574" lon="18.084057">
        <ele>30</ele>
        <time>2020-01-09T06:54:54Z</time>
      </trkpt>
      <trkpt lat="59.339593" lon="18.084083">
        <ele>0</ele>
        <time>2020-01-09T06:54:54Z</time>
      </trkpt>
      <trkpt lat="59.339613" lon="18.084095">
        <ele>30</ele>
        <time>2020-01-09T06:54:55Z</time>
      </trkpt>
      <trkpt lat="59.339637" lon="18.084094">
        <ele>30</ele>
        <time>2020-01-09T06:54:57Z</time>
      </trkpt>
      <trkpt lat="59.339663" lon="18.084096">
        <ele>31</ele>
        <time>2020-01-09T06:54:58Z</time>
      </trkpt>
      <trkpt lat="59.339686" lon="18.084108">
        <ele>31</ele>
        <time>2020-01-09T06:54:59Z</time>
      </trkpt>
      <trkpt lat="59.339708" lon="18.08412">
        <ele>31</ele>
        <time>2020-01-09T06:55:00Z</time>
      </trkpt>
      <trkpt lat="59.339732" lon="18.08414">
        <ele>31</ele>
        <time>2020-01-09T06:55:01Z</time>
      </trkpt>
      <trkpt lat="59.339758" lon="18.084168">
        <ele>31</ele>
        <time>2020-01-09T06:55:02Z</time>
      </trkpt>
      <trkpt lat="59.339781" lon="18.084194">
        <ele>31</ele>
        <time>2020-01-09T06:55:03Z</time>
      </trkpt>
      <trkpt lat="59.3398" lon="18.084215">
        <ele>31</ele>
        <time>2020-01-09T06:55:04Z</time>
      </trkpt>
      <trkpt lat="59.33982" lon="18.08424">
        <ele>31</ele>
        <time>2020-01-09T06:55:05Z</time>
      </trkpt>
      <trkpt lat="59.339842" lon="18.084263">
        <ele>31</ele>
        <time>2020-01-09T06:55:06Z</time>
      </trkpt>
      <trkpt lat="59.339861" lon="18.084284">
        <ele>31</ele>
        <time>2020-01-09T06:55:07Z</time>
      </trkpt>
      <trkpt lat="59.33988" lon="18.084306">
        <ele>31</ele>
        <time>2020-01-09T06:55:08Z</time>
      </trkpt>
      <trkpt lat="59.339901" lon="18.084328">
        <ele>31</ele>
        <time>2020-01-09T06:55:09Z</time>
      </trkpt>
      <trkpt lat="59.339923" lon="18.084344">
        <ele>31</ele>
        <time>2020-01-09T06:55:10Z</time>
      </trkpt>
      <trkpt lat="59.339946" lon="18.084363">
        <ele>31</ele>
        <time>2020-01-09T06:55:11Z</time>
      </trkpt>
      <trkpt lat="59.339967" lon="18.084388">
        <ele>31</ele>
        <time>2020-01-09T06:55:12Z</time>
      </trkpt>
      <trkpt lat="59.339986" lon="18.084417">
        <ele>0</ele>
        <time>2020-01-09T06:55:12Z</time>
      </trkpt>
      <trkpt lat="59.340003" lon="18.084449">
        <ele>31</ele>
        <time>2020-01-09T06:55:13Z</time>
      </trkpt>
      <trkpt lat="59.340021" lon="18.084478">
        <ele>31</ele>
        <time>2020-01-09T06:55:14Z</time>
      </trkpt>
      <trkpt lat="59.340043" lon="18.084505">
        <ele>31</ele>
        <time>2020-01-09T06:55:16Z</time>
      </trkpt>
      <trkpt lat="59.340071" lon="18.084528">
        <ele>31</ele>
        <time>2020-01-09T06:55:17Z</time>
      </trkpt>
      <trkpt lat="59.340097" lon="18.084556">
        <ele>31</ele>
        <time>2020-01-09T06:55:18Z</time>
      </trkpt>
      <trkpt lat="59.340126" lon="18.084583">
        <ele>31</ele>
        <time>2020-01-09T06:55:19Z</time>
      </trkpt>
      <trkpt lat="59.340156" lon="18.084608">
        <ele>31</ele>
        <time>2020-01-09T06:55:20Z</time>
      </trkpt>
      <trkpt lat="59.34018" lon="18.084626">
        <ele>31</ele>
        <time>2020-01-09T06:55:21Z</time>
      </trkpt>
      <trkpt lat="59.340202" lon="18.084641">
        <ele>31</ele>
        <time>2020-01-09T06:55:22Z</time>
      </trkpt>
      <trkpt lat="59.340227" lon="18.084664">
        <ele>31</ele>
        <time>2020-01-09T06:55:23Z</time>
      </trkpt>
      <trkpt lat="59.340251" lon="18.08468">
        <ele>31</ele>
        <time>2020-01-09T06:55:24Z</time>
      </trkpt>
      <trkpt lat="59.340283" lon="18.084685">
        <ele>30</ele>
        <time>2020-01-09T06:55:25Z</time>
      </trkpt>
      <trkpt lat="59.340316" lon="18.084694">
        <ele>30</ele>
        <time>2020-01-09T06:55:26Z</time>
      </trkpt>
      <trkpt lat="59.34034" lon="18.084731">
        <ele>30</ele>
        <time>2020-01-09T06:55:27Z</time>
      </trkpt>
      <trkpt lat="59.340361" lon="18.084772">
        <ele>31</ele>
        <time>2020-01-09T06:55:28Z</time>
      </trkpt>
      <trkpt lat="59.340373" lon="18.084808">
        <ele>31</ele>
        <time>2020-01-09T06:55:29Z</time>
      </trkpt>
      <trkpt lat="59.340373" lon="18.084855">
        <ele>31</ele>
        <time>2020-01-09T06:55:30Z</time>
      </trkpt>
      <trkpt lat="59.340373" lon="18.084891">
        <ele>31</ele>
        <time>2020-01-09T06:55:31Z</time>
      </trkpt>
      <trkpt lat="59.340371" lon="18.08493">
        <ele>0</ele>
        <time>2020-01-09T06:55:31Z</time>
      </trkpt>
      <trkpt lat="59.340367" lon="18.084976">
        <ele>31</ele>
        <time>2020-01-09T06:55:32Z</time>
      </trkpt>
      <trkpt lat="59.340359" lon="18.085052">
        <ele>32</ele>
        <time>2020-01-09T06:55:36Z</time>
      </trkpt>
      <trkpt lat="59.340359" lon="18.085059">
        <ele>0</ele>
        <time>2020-01-09T06:55:36Z</time>
      </trkpt>
    </trkseg>
  </trk>
</gpx>